<?xml version='1.0' encoding='UTF-8'?><gpx version="1.1" creator="JPX - https://github.com/jenetics/jpx" xmlns="http://www.topografix.com/GPX/1/1"><trk><trkseg><trkpt lat="45.73406427976999" lon="-0.1536939455607639"><ele>72.0</ele><time>2026-04-06T09:11:25Z</time></trkpt><trkpt lat="45.73411754033778" lon="-0.15361901339188047"><ele>72.0</ele><time>2026-04-06T09:11:27Z</time></trkpt><trkpt lat="45.73420797297205" lon="-0.15364458735555447"><ele>72.0</ele><time>2026-04-06T09:11:29Z</time></trkpt><trkpt lat="45.73425357597082" lon="-0.1537740759244021"><ele>72.0</ele><time>2026-04-06T09:11:31Z</time></trkpt><trkpt lat="45.734281935507084" lon="-0.15385610184780088"><ele>72.0</ele><time>2026-04-06T09:11:32Z</time></trkpt><trkpt lat="45.73431810706092" lon="-0.1540264832101116"><ele>72.2</ele><time>2026-04-06T09:11:34Z</time></trkpt><trkpt lat="45.73433849742141" lon="-0.15411857173392812"><ele>72.4</ele><time>2026-04-06T09:11:35Z</time></trkpt><trkpt lat="45.73436725353802" lon="-0.15423787751854354"><ele>72.6</ele><time>2026-04-06T09:11:36Z</time></trkpt><trkpt lat="45.73438563435294" lon="-0.15435267835116773"><ele>72.8</ele><time>2026-04-06T09:11:38Z</time></trkpt><trkpt lat="45.734270281981196" lon="-0.15446728647169947"><ele>73.0</ele><time>2026-04-06T09:11:49Z</time></trkpt><trkpt lat="45.73417265854974" lon="-0.15448368577886043"><ele>73.0</ele><time>2026-04-06T09:11:50Z</time></trkpt><trkpt lat="45.73404884168872" lon="-0.15451658852576328"><ele>73.0</ele><time>2026-04-06T09:11:51Z</time></trkpt><trkpt lat="45.733906054834655" lon="-0.15456087105671434"><ele>73.0</ele><time>2026-04-06T09:11:52Z</time></trkpt><trkpt lat="45.733765413868014" lon="-0.15460860002254848"><ele>73.0</ele><time>2026-04-06T09:11:53Z</time></trkpt><trkpt lat="45.73363806428448" lon="-0.154649947637873"><ele>73.0</ele><time>2026-04-06T09:11:54Z</time></trkpt><trkpt lat="45.73353583060343" lon="-0.15467593023965961"><ele>73.0</ele><time>2026-04-06T09:11:55Z</time></trkpt><trkpt lat="45.73345081795939" lon="-0.15469118126911266"><ele>73.0</ele><time>2026-04-06T09:11:56Z</time></trkpt><trkpt lat="45.73338297820023" lon="-0.15473707374950815"><ele>73.0</ele><time>2026-04-06T09:11:58Z</time></trkpt><trkpt lat="45.73325933247706" lon="-0.15460420664472743"><ele>73.0</ele><time>2026-04-06T09:12:06Z</time></trkpt><trkpt lat="45.73322667941478" lon="-0.15444573333947903"><ele>73.0</ele><time>2026-04-06T09:12:07Z</time></trkpt><trkpt lat="45.733172034109124" lon="-0.15427493044992957"><ele>73.0</ele><time>2026-04-06T09:12:08Z</time></trkpt><trkpt lat="45.73309643556392" lon="-0.1540940336197656"><ele>73.0</ele><time>2026-04-06T09:12:09Z</time></trkpt><trkpt lat="45.73286916782541" lon="-0.1537427261092637"><ele>73.0</ele><time>2026-04-06T09:12:11Z</time></trkpt><trkpt lat="45.73273669999145" lon="-0.15360198722318108"><ele>73.0</ele><time>2026-04-06T09:12:12Z</time></trkpt><trkpt lat="45.732567470629405" lon="-0.1534522179738484"><ele>73.0</ele><time>2026-04-06T09:12:13Z</time></trkpt><trkpt lat="45.73237296756238" lon="-0.15328418531661678"><ele>72.0</ele><time>2026-04-06T09:12:14Z</time></trkpt><trkpt lat="45.73218164363839" lon="-0.15311014077508686"><ele>71.0</ele><time>2026-04-06T09:12:15Z</time></trkpt><trkpt lat="45.73199690916889" lon="-0.15293833842470986"><ele>70.0</ele><time>2026-04-06T09:12:16Z</time></trkpt><trkpt lat="45.73180967838421" lon="-0.1527586810755103"><ele>69.0</ele><time>2026-04-06T09:12:17Z</time></trkpt><trkpt lat="45.73161659632008" lon="-0.1525740893802864"><ele>68.0</ele><time>2026-04-06T09:12:18Z</time></trkpt><trkpt lat="45.73142665608596" lon="-0.15239398326898385"><ele>67.66666666666667</ele><time>2026-04-06T09:12:19Z</time></trkpt><trkpt lat="45.731261482395595" lon="-0.15223083840404844"><ele>67.33333333333333</ele><time>2026-04-06T09:12:20Z</time></trkpt><trkpt lat="45.73110872998162" lon="-0.152088394049743"><ele>67.0</ele><time>2026-04-06T09:12:21Z</time></trkpt><trkpt lat="45.73096223896474" lon="-0.15193786998320116"><ele>67.0</ele><time>2026-04-06T09:12:22Z</time></trkpt><trkpt lat="45.73083983024078" lon="-0.15177109103589306"><ele>67.0</ele><time>2026-04-06T09:12:23Z</time></trkpt><trkpt lat="45.73072739349189" lon="-0.1515789506496574"><ele>67.0</ele><time>2026-04-06T09:12:24Z</time></trkpt><trkpt lat="45.73062811621017" lon="-0.15138093885235712"><ele>67.0</ele><time>2026-04-06T09:12:25Z</time></trkpt><trkpt lat="45.730541026754054" lon="-0.15115098903981725"><ele>67.0</ele><time>2026-04-06T09:12:26Z</time></trkpt><trkpt lat="45.730465677099666" lon="-0.15091165339322288"><ele>67.0</ele><time>2026-04-06T09:12:27Z</time></trkpt><trkpt lat="45.73039906352335" lon="-0.15067674166063008"><ele>66.33333333333333</ele><time>2026-04-06T09:12:28Z</time></trkpt><trkpt lat="45.73032728972413" lon="-0.15044421032029148"><ele>65.66666666666667</ele><time>2026-04-06T09:12:29Z</time></trkpt><trkpt lat="45.730248443936496" lon="-0.15020332072576217"><ele>65.0</ele><time>2026-04-06T09:12:30Z</time></trkpt><trkpt lat="45.73017155417538" lon="-0.14996588962934862"><ele>64.33333333333334</ele><time>2026-04-06T09:12:31Z</time></trkpt><trkpt lat="45.73008479192834" lon="-0.14971374857433392"><ele>63.66666666666667</ele><time>2026-04-06T09:12:32Z</time></trkpt><trkpt lat="45.7300022725472" lon="-0.1494500112174713"><ele>63.0</ele><time>2026-04-06T09:12:33Z</time></trkpt><trkpt lat="45.72991592292534" lon="-0.14916413715120008"><ele>62.5</ele><time>2026-04-06T09:12:34Z</time></trkpt><trkpt lat="45.72981553198641" lon="-0.1488673437618722"><ele>62.0</ele><time>2026-04-06T09:12:35Z</time></trkpt><trkpt lat="45.72971259387536" lon="-0.1485494291016198"><ele>62.0</ele><time>2026-04-06T09:12:36Z</time></trkpt><trkpt lat="45.729613160688174" lon="-0.1482316525016753"><ele>62.0</ele><time>2026-04-06T09:12:37Z</time></trkpt><trkpt lat="45.729508369013146" lon="-0.14790921009051622"><ele>60.0</ele><time>2026-04-06T09:12:38Z</time></trkpt><trkpt lat="45.72940384683217" lon="-0.14757923505085213"><ele>58.0</ele><time>2026-04-06T09:12:39Z</time></trkpt><trkpt lat="45.72929973364539" lon="-0.14725398895797498"><ele>58.0</ele><time>2026-04-06T09:12:40Z</time></trkpt><trkpt lat="45.729193124626605" lon="-0.1469263492635944"><ele>58.0</ele><time>2026-04-06T09:12:41Z</time></trkpt><trkpt lat="45.72908426617285" lon="-0.14659380876089712"><ele>56.5</ele><time>2026-04-06T09:12:42Z</time></trkpt><trkpt lat="45.72898496742718" lon="-0.14627634703359263"><ele>55.0</ele><time>2026-04-06T09:12:43Z</time></trkpt><trkpt lat="45.728882760371384" lon="-0.14597030030010735"><ele>54.0</ele><time>2026-04-06T09:12:44Z</time></trkpt><trkpt lat="45.72879251365212" lon="-0.14568098872893367"><ele>53.0</ele><time>2026-04-06T09:12:45Z</time></trkpt><trkpt lat="45.72870144639235" lon="-0.1454158139804449"><ele>52.0</ele><time>2026-04-06T09:12:46Z</time></trkpt><trkpt lat="45.72860480845508" lon="-0.14516471703696104"><ele>53.0</ele><time>2026-04-06T09:12:47Z</time></trkpt><trkpt lat="45.7284837744869" lon="-0.14493657386575134"><ele>54.0</ele><time>2026-04-06T09:12:48Z</time></trkpt><trkpt lat="45.72834920903275" lon="-0.1447099560822919"><ele>55.0</ele><time>2026-04-06T09:12:49Z</time></trkpt><trkpt lat="45.72819654424441" lon="-0.14448147062434014"><ele>55.5</ele><time>2026-04-06T09:12:50Z</time></trkpt><trkpt lat="45.72803296570907" lon="-0.1442659783995498"><ele>56.0</ele><time>2026-04-06T09:12:51Z</time></trkpt><trkpt lat="45.727854846086714" lon="-0.14405340606478512"><ele>56.5</ele><time>2026-04-06T09:12:52Z</time></trkpt><trkpt lat="45.72767670605021" lon="-0.14381266084842623"><ele>57.0</ele><time>2026-04-06T09:12:53Z</time></trkpt><trkpt lat="45.72749605598521" lon="-0.1435688646418876"><ele>57.0</ele><time>2026-04-06T09:12:54Z</time></trkpt><trkpt lat="45.72731410252684" lon="-0.14332783026535376"><ele>57.0</ele><time>2026-04-06T09:12:55Z</time></trkpt><trkpt lat="45.72712549365167" lon="-0.14307775434263312"><ele>57.5</ele><time>2026-04-06T09:12:56Z</time></trkpt><trkpt lat="45.72693834731787" lon="-0.1428235282456241"><ele>58.0</ele><time>2026-04-06T09:12:57Z</time></trkpt><trkpt lat="45.726751101550065" lon="-0.14256819513641528"><ele>57.5</ele><time>2026-04-06T09:12:58Z</time></trkpt><trkpt lat="45.72656090984265" lon="-0.14231253742890154"><ele>57.0</ele><time>2026-04-06T09:12:59Z</time></trkpt><trkpt lat="45.72635542301743" lon="-0.14204785657291102"><ele>57.0</ele><time>2026-04-06T09:13:00Z</time></trkpt><trkpt lat="45.72616687644051" lon="-0.1417941911114733"><ele>57.0</ele><time>2026-04-06T09:13:01Z</time></trkpt><trkpt lat="45.7259810714088" lon="-0.14154246938018963"><ele>56.5</ele><time>2026-04-06T09:13:02Z</time></trkpt><trkpt lat="45.72579504552444" lon="-0.14128816217069565"><ele>56.0</ele><time>2026-04-06T09:13:03Z</time></trkpt><trkpt lat="45.72560518316354" lon="-0.1410354240529644"><ele>56.0</ele><time>2026-04-06T09:13:04Z</time></trkpt><trkpt lat="45.72542255287804" lon="-0.14078816793664503"><ele>56.0</ele><time>2026-04-06T09:13:05Z</time></trkpt><trkpt lat="45.725236770161764" lon="-0.14054886872970113"><ele>58.0</ele><time>2026-04-06T09:13:06Z</time></trkpt><trkpt lat="45.725056841902465" lon="-0.14031148145134656"><ele>60.0</ele><time>2026-04-06T09:13:07Z</time></trkpt><trkpt lat="45.72488130204267" lon="-0.14007953614942056"><ele>59.5</ele><time>2026-04-06T09:13:07.999Z</time></trkpt><trkpt lat="45.72471354058457" lon="-0.13985709780596217"><ele>59.0</ele><time>2026-04-06T09:13:08.999Z</time></trkpt><trkpt lat="45.724547376988234" lon="-0.13963605673255214"><ele>61.66666666666667</ele><time>2026-04-06T09:13:09.999Z</time></trkpt><trkpt lat="45.72438743167279" lon="-0.13941925109984138"><ele>64.33333333333333</ele><time>2026-04-06T09:13:10.999Z</time></trkpt><trkpt lat="45.72422066922823" lon="-0.1391991053840762"><ele>67.0</ele><time>2026-04-06T09:13:11.999Z</time></trkpt><trkpt lat="45.72405307532154" lon="-0.1389683683414279"><ele>67.0</ele><time>2026-04-06T09:13:12.999Z</time></trkpt><trkpt lat="45.723886119862776" lon="-0.13874371081369288"><ele>67.0</ele><time>2026-04-06T09:13:13.999Z</time></trkpt><trkpt lat="45.72372432797504" lon="-0.13852085086071228"><ele>70.0</ele><time>2026-04-06T09:13:14.999Z</time></trkpt><trkpt lat="45.723553322852176" lon="-0.13829181479880623"><ele>73.0</ele><time>2026-04-06T09:13:15.999Z</time></trkpt><trkpt lat="45.72338530476068" lon="-0.13806735498514267"><ele>74.0</ele><time>2026-04-06T09:13:16.999Z</time></trkpt><trkpt lat="45.723213792758074" lon="-0.1378346890893951"><ele>75.0</ele><time>2026-04-06T09:13:17.999Z</time></trkpt><trkpt lat="45.723044844835805" lon="-0.13761440411446874"><ele>75.0</ele><time>2026-04-06T09:13:18.999Z</time></trkpt><trkpt lat="45.72289570583754" lon="-0.1374067105859126"><ele>75.0</ele><time>2026-04-06T09:13:19.999Z</time></trkpt><trkpt lat="45.722752266824976" lon="-0.13720445906800055"><ele>75.0</ele><time>2026-04-06T09:13:20.999Z</time></trkpt><trkpt lat="45.7226179535825" lon="-0.13698288184175256"><ele>74.66666666666667</ele><time>2026-04-06T09:13:21.999Z</time></trkpt><trkpt lat="45.72250651097626" lon="-0.1367451228102209"><ele>74.33333333333334</ele><time>2026-04-06T09:13:22.999Z</time></trkpt><trkpt lat="45.72239886937998" lon="-0.13648997831201065"><ele>74.0</ele><time>2026-04-06T09:13:23.999Z</time></trkpt><trkpt lat="45.72230344413782" lon="-0.1362312845561979"><ele>74.0</ele><time>2026-04-06T09:13:24.999Z</time></trkpt><trkpt lat="45.72220340589895" lon="-0.13593708080074365"><ele>74.0</ele><time>2026-04-06T09:13:25.999Z</time></trkpt><trkpt lat="45.722103378424855" lon="-0.13564888195836694"><ele>75.0</ele><time>2026-04-06T09:13:26.999Z</time></trkpt><trkpt lat="45.72199164151504" lon="-0.13534075092104933"><ele>76.0</ele><time>2026-04-06T09:13:27.999Z</time></trkpt><trkpt lat="45.72187300401642" lon="-0.13502172986860914"><ele>72.0</ele><time>2026-04-06T09:13:28.999Z</time></trkpt><trkpt lat="45.721749189283464" lon="-0.13469118565809376"><ele>68.0</ele><time>2026-04-06T09:13:30Z</time></trkpt><trkpt lat="45.721624219828826" lon="-0.13435915385926814"><ele>68.0</ele><time>2026-04-06T09:13:31Z</time></trkpt><trkpt lat="45.72150558282745" lon="-0.13403973551789417"><ele>68.0</ele><time>2026-04-06T09:13:32Z</time></trkpt><trkpt lat="45.72138317933095" lon="-0.13370235782464038"><ele>68.0</ele><time>2026-04-06T09:13:33Z</time></trkpt><trkpt lat="45.72126395514738" lon="-0.13336677937675423"><ele>68.0</ele><time>2026-04-06T09:13:34Z</time></trkpt><trkpt lat="45.721144008280696" lon="-0.13302766173724856"><ele>69.0</ele><time>2026-04-06T09:13:35Z</time></trkpt><trkpt lat="45.721030440827796" lon="-0.13271922262430014"><ele>70.0</ele><time>2026-04-06T09:13:36Z</time></trkpt><trkpt lat="45.72091427354748" lon="-0.13243440388217226"><ele>70.66666666666666</ele><time>2026-04-06T09:13:37Z</time></trkpt><trkpt lat="45.72079440222948" lon="-0.13217017280784193"><ele>71.33333333333333</ele><time>2026-04-06T09:13:38Z</time></trkpt><trkpt lat="45.720662324957885" lon="-0.1319113577647564"><ele>72.0</ele><time>2026-04-06T09:13:39Z</time></trkpt><trkpt lat="45.72051097713552" lon="-0.13167255541281367"><ele>72.0</ele><time>2026-04-06T09:13:40Z</time></trkpt><trkpt lat="45.720343329428516" lon="-0.1314240425516219"><ele>72.0</ele><time>2026-04-06T09:13:41Z</time></trkpt><trkpt lat="45.720174619073134" lon="-0.131180581904574"><ele>72.5</ele><time>2026-04-06T09:13:42Z</time></trkpt><trkpt lat="45.72000623796408" lon="-0.13094324729003387"><ele>73.0</ele><time>2026-04-06T09:13:43Z</time></trkpt><trkpt lat="45.71983707293131" lon="-0.13068804556748312"><ele>73.0</ele><time>2026-04-06T09:13:44Z</time></trkpt><trkpt lat="45.71966502642482" lon="-0.13043347972663624"><ele>73.0</ele><time>2026-04-06T09:13:45Z</time></trkpt><trkpt lat="45.71948913524092" lon="-0.130164973458206"><ele>73.0</ele><time>2026-04-06T09:13:46Z</time></trkpt><trkpt lat="45.719311848455305" lon="-0.12990044750133956"><ele>73.0</ele><time>2026-04-06T09:13:47Z</time></trkpt><trkpt lat="45.719131995371924" lon="-0.1296322271523549"><ele>73.5</ele><time>2026-04-06T09:13:48Z</time></trkpt><trkpt lat="45.718951326132704" lon="-0.12935411616995257"><ele>74.0</ele><time>2026-04-06T09:13:49Z</time></trkpt><trkpt lat="45.718783066553314" lon="-0.12910167561716202"><ele>74.0</ele><time>2026-04-06T09:13:50Z</time></trkpt><trkpt lat="45.71862608721565" lon="-0.12887286926339753"><ele>74.0</ele><time>2026-04-06T09:13:51Z</time></trkpt><trkpt lat="45.71847312550363" lon="-0.12865003228864996"><ele>74.0</ele><time>2026-04-06T09:13:52Z</time></trkpt><trkpt lat="45.71831612279695" lon="-0.1284476883628558"><ele>74.0</ele><time>2026-04-06T09:13:53Z</time></trkpt><trkpt lat="45.718144594011505" lon="-0.128267003739159"><ele>74.0</ele><time>2026-04-06T09:13:54Z</time></trkpt><trkpt lat="45.71796292406813" lon="-0.12811622126141992"><ele>74.0</ele><time>2026-04-06T09:13:55Z</time></trkpt><trkpt lat="45.71777371981064" lon="-0.12799773549099197"><ele>73.66666666666667</ele><time>2026-04-06T09:13:56Z</time></trkpt><trkpt lat="45.71758167343959" lon="-0.12789719842215808"><ele>73.33333333333333</ele><time>2026-04-06T09:13:57Z</time></trkpt><trkpt lat="45.71738351601129" lon="-0.12782771880036195"><ele>73.0</ele><time>2026-04-06T09:13:58Z</time></trkpt><trkpt lat="45.717205965433266" lon="-0.12777420701893777"><ele>73.0</ele><time>2026-04-06T09:13:59Z</time></trkpt><trkpt lat="45.71703824248164" lon="-0.12773399551603545"><ele>73.0</ele><time>2026-04-06T09:14:00Z</time></trkpt><trkpt lat="45.716857124995194" lon="-0.1276946329547647"><ele>73.0</ele><time>2026-04-06T09:14:01Z</time></trkpt><trkpt lat="45.71667436369117" lon="-0.12765191162296802"><ele>72.33333333333333</ele><time>2026-04-06T09:14:02Z</time></trkpt><trkpt lat="45.716480870669166" lon="-0.1276005156910432"><ele>71.66666666666667</ele><time>2026-04-06T09:14:03Z</time></trkpt><trkpt lat="45.71629095160974" lon="-0.12755068490663177"><ele>71.0</ele><time>2026-04-06T09:14:04Z</time></trkpt><trkpt lat="45.71609435588937" lon="-0.12749523177980776"><ele>70.33333333333334</ele><time>2026-04-06T09:14:05Z</time></trkpt><trkpt lat="45.715904182430535" lon="-0.12743688479063367"><ele>69.66666666666667</ele><time>2026-04-06T09:14:06Z</time></trkpt><trkpt lat="45.71570186656621" lon="-0.12738377524263741"><ele>69.0</ele><time>2026-04-06T09:14:07Z</time></trkpt><trkpt lat="45.71551435444747" lon="-0.12732886247375394"><ele>68.66666666666667</ele><time>2026-04-06T09:14:08Z</time></trkpt><trkpt lat="45.715338337267134" lon="-0.12727841479981317"><ele>68.33333333333334</ele><time>2026-04-06T09:14:09Z</time></trkpt><trkpt lat="45.715160565855626" lon="-0.12722828136025127"><ele>68.0</ele><time>2026-04-06T09:14:10Z</time></trkpt><trkpt lat="45.714983961395724" lon="-0.1271774652052857"><ele>67.33333333333334</ele><time>2026-04-06T09:14:11Z</time></trkpt><trkpt lat="45.71481245619271" lon="-0.12713168798389288"><ele>66.66666666666667</ele><time>2026-04-06T09:14:12Z</time></trkpt><trkpt lat="45.71464565865545" lon="-0.12708377907680973"><ele>66.0</ele><time>2026-04-06T09:14:13Z</time></trkpt><trkpt lat="45.714473183615034" lon="-0.12703569210819868"><ele>66.66666666666667</ele><time>2026-04-06T09:14:14Z</time></trkpt><trkpt lat="45.71429949119036" lon="-0.12698793088328264"><ele>67.33333333333334</ele><time>2026-04-06T09:14:15Z</time></trkpt><trkpt lat="45.71413306033759" lon="-0.12693890473576305"><ele>68.0</ele><time>2026-04-06T09:14:16Z</time></trkpt><trkpt lat="45.71398087089225" lon="-0.126899304605589"><ele>68.0</ele><time>2026-04-06T09:14:17Z</time></trkpt><trkpt lat="45.713841182302446" lon="-0.12686133481481582"><ele>68.0</ele><time>2026-04-06T09:14:18Z</time></trkpt><trkpt lat="45.71371086449986" lon="-0.12682456902908204"><ele>68.0</ele><time>2026-04-06T09:14:19Z</time></trkpt><trkpt lat="45.71359503975268" lon="-0.12678633828249256"><ele>68.0</ele><time>2026-04-06T09:14:20Z</time></trkpt><trkpt lat="45.71348361232839" lon="-0.1267272355559876"><ele>68.5</ele><time>2026-04-06T09:14:21Z</time></trkpt><trkpt lat="45.71339248130294" lon="-0.1266436048994152"><ele>69.0</ele><time>2026-04-06T09:14:22Z</time></trkpt><trkpt lat="45.71330810802464" lon="-0.1265370172741613"><ele>69.5</ele><time>2026-04-06T09:14:23Z</time></trkpt><trkpt lat="45.71323610054494" lon="-0.1264065503594921"><ele>70.0</ele><time>2026-04-06T09:14:24Z</time></trkpt><trkpt lat="45.71319961276813" lon="-0.1262327929848037"><ele>70.25</ele><time>2026-04-06T09:14:25Z</time></trkpt><trkpt lat="45.713177464609" lon="-0.12604666057167035"><ele>70.5</ele><time>2026-04-06T09:14:26Z</time></trkpt><trkpt lat="45.713165211484394" lon="-0.12584837150665104"><ele>70.75</ele><time>2026-04-06T09:14:27Z</time></trkpt><trkpt lat="45.713138908565504" lon="-0.1256384501661263"><ele>71.0</ele><time>2026-04-06T09:14:28Z</time></trkpt><trkpt lat="45.71311816053105" lon="-0.12544039204830076"><ele>71.5</ele><time>2026-04-06T09:14:29Z</time></trkpt><trkpt lat="45.71309983374355" lon="-0.12524597113260247"><ele>72.0</ele><time>2026-04-06T09:14:30Z</time></trkpt><trkpt lat="45.71306882137998" lon="-0.1250703316494578"><ele>72.5</ele><time>2026-04-06T09:14:31Z</time></trkpt><trkpt lat="45.713082767891486" lon="-0.1249621019904215"><ele>73.0</ele><time>2026-04-06T09:14:32Z</time></trkpt><trkpt lat="45.71304452781485" lon="-0.12478541478976657"><ele>73.16666666666666</ele><time>2026-04-06T09:14:33Z</time></trkpt><trkpt lat="45.71303139527441" lon="-0.12465723059022579"><ele>73.33333333333333</ele><time>2026-04-06T09:14:34Z</time></trkpt><trkpt lat="45.71302415761429" lon="-0.1245095768302391"><ele>73.5</ele><time>2026-04-06T09:14:35Z</time></trkpt><trkpt lat="45.7130131111058" lon="-0.12441512446919842"><ele>73.66666666666667</ele><time>2026-04-06T09:14:36Z</time></trkpt><trkpt lat="45.7129944504939" lon="-0.12431896332209906"><ele>73.83333333333334</ele><time>2026-04-06T09:14:38Z</time></trkpt><trkpt lat="45.71297372171745" lon="-0.1242325435646259"><ele>74.0</ele><time>2026-04-06T09:14:40Z</time></trkpt><trkpt lat="45.71286357074873" lon="-0.12422980462611524"><ele>74.0</ele><time>2026-04-06T09:14:44Z</time></trkpt><trkpt lat="45.712791513424264" lon="-0.12428548374144452"><ele>74.0</ele><time>2026-04-06T09:14:45Z</time></trkpt><trkpt lat="45.71271773008162" lon="-0.12433009572472879"><ele>74.0</ele><time>2026-04-06T09:14:46Z</time></trkpt><trkpt lat="45.712604325255576" lon="-0.12438163108142858"><ele>74.0</ele><time>2026-04-06T09:14:47Z</time></trkpt><trkpt lat="45.712479424351194" lon="-0.12445948097310566"><ele>74.0</ele><time>2026-04-06T09:14:48Z</time></trkpt><trkpt lat="45.71234181517552" lon="-0.12454649429154781"><ele>73.25</ele><time>2026-04-06T09:14:49Z</time></trkpt><trkpt lat="45.71222731615145" lon="-0.12461521397083246"><ele>72.5</ele><time>2026-04-06T09:14:50Z</time></trkpt><trkpt lat="45.712114109664405" lon="-0.1246958515650935"><ele>71.75</ele><time>2026-04-06T09:14:51Z</time></trkpt><trkpt lat="45.71200784485968" lon="-0.12479794003296009"><ele>71.0</ele><time>2026-04-06T09:14:52Z</time></trkpt><trkpt lat="45.71191137560773" lon="-0.12490552558302032"><ele>70.25</ele><time>2026-04-06T09:14:53Z</time></trkpt><trkpt lat="45.711838432129966" lon="-0.12503692059512828"><ele>69.5</ele><time>2026-04-06T09:14:54Z</time></trkpt><trkpt lat="45.71177060907886" lon="-0.12516901154287746"><ele>68.75</ele><time>2026-04-06T09:14:55Z</time></trkpt><trkpt lat="45.71169517114794" lon="-0.12531168758697858"><ele>68.0</ele><time>2026-04-06T09:14:56Z</time></trkpt><trkpt lat="45.71161421986815" lon="-0.1254652789432496"><ele>68.0</ele><time>2026-04-06T09:14:57Z</time></trkpt><trkpt lat="45.71154483128252" lon="-0.1255827358761313"><ele>68.0</ele><time>2026-04-06T09:14:58Z</time></trkpt><trkpt lat="45.71148599921121" lon="-0.12567242247934454"><ele>68.0</ele><time>2026-04-06T09:14:59Z</time></trkpt><trkpt lat="45.711457295558596" lon="-0.1257661777051708"><ele>68.0</ele><time>2026-04-06T09:15:00Z</time></trkpt><trkpt lat="45.71132806577273" lon="-0.12574134973003384"><ele>68.0</ele><time>2026-04-06T09:15:01Z</time></trkpt><trkpt lat="45.711207798730186" lon="-0.12574393041822252"><ele>67.75</ele><time>2026-04-06T09:15:02Z</time></trkpt><trkpt lat="45.7110855035887" lon="-0.1258030834533592"><ele>67.5</ele><time>2026-04-06T09:15:03Z</time></trkpt><trkpt lat="45.71094699184619" lon="-0.12581246014775216"><ele>67.25</ele><time>2026-04-06T09:15:04Z</time></trkpt><trkpt lat="45.71080787434013" lon="-0.1258342968222884"><ele>67.0</ele><time>2026-04-06T09:15:05Z</time></trkpt><trkpt lat="45.71066949849769" lon="-0.12581950324294647"><ele>66.75</ele><time>2026-04-06T09:15:06Z</time></trkpt><trkpt lat="45.71054734048967" lon="-0.125755729314728"><ele>66.5</ele><time>2026-04-06T09:15:07Z</time></trkpt><trkpt lat="45.710429301517344" lon="-0.12565416951632521"><ele>66.25</ele><time>2026-04-06T09:15:08Z</time></trkpt><trkpt lat="45.71030581023178" lon="-0.12551643929598322"><ele>66.0</ele><time>2026-04-06T09:15:09Z</time></trkpt><trkpt lat="45.71017570006948" lon="-0.1253707100689296"><ele>65.33333333333333</ele><time>2026-04-06T09:15:10Z</time></trkpt><trkpt lat="45.71003226881562" lon="-0.12523578941128416"><ele>64.66666666666666</ele><time>2026-04-06T09:15:11Z</time></trkpt><trkpt lat="45.70986811823059" lon="-0.12512699163832275"><ele>64.0</ele><time>2026-04-06T09:15:12Z</time></trkpt><trkpt lat="45.709696499211525" lon="-0.12509936952106515"><ele>64.0</ele><time>2026-04-06T09:15:13Z</time></trkpt><trkpt lat="45.70951034606207" lon="-0.12507501010660899"><ele>64.0</ele><time>2026-04-06T09:15:13.999Z</time></trkpt><trkpt lat="45.709321841237745" lon="-0.12504366280298868"><ele>64.0</ele><time>2026-04-06T09:15:14.999Z</time></trkpt><trkpt lat="45.7091228831145" lon="-0.12504521780682135"><ele>63.33333333333333</ele><time>2026-04-06T09:15:15.999Z</time></trkpt><trkpt lat="45.70891502626804" lon="-0.1250401723975084"><ele>62.66666666666667</ele><time>2026-04-06T09:15:16.999Z</time></trkpt><trkpt lat="45.70869561859547" lon="-0.12502132590554982"><ele>62.0</ele><time>2026-04-06T09:15:17.999Z</time></trkpt><trkpt lat="45.708481318362054" lon="-0.12499987237230502"><ele>61.5</ele><time>2026-04-06T09:15:18.999Z</time></trkpt><trkpt lat="45.7082543429637" lon="-0.12497848306664462"><ele>61.0</ele><time>2026-04-06T09:15:20Z</time></trkpt><trkpt lat="45.70802588135491" lon="-0.12494851243436181"><ele>61.0</ele><time>2026-04-06T09:15:21Z</time></trkpt><trkpt lat="45.707794015709226" lon="-0.12492350939029165"><ele>61.0</ele><time>2026-04-06T09:15:22Z</time></trkpt><trkpt lat="45.70755941633575" lon="-0.1249111892319337"><ele>58.0</ele><time>2026-04-06T09:15:23Z</time></trkpt><trkpt lat="45.70732662670769" lon="-0.12489409394857405"><ele>55.0</ele><time>2026-04-06T09:15:24Z</time></trkpt><trkpt lat="45.70709322781143" lon="-0.12489774177437747"><ele>54.5</ele><time>2026-04-06T09:15:25Z</time></trkpt><trkpt lat="45.706866935853654" lon="-0.12488672315982063"><ele>54.0</ele><time>2026-04-06T09:15:26Z</time></trkpt><trkpt lat="45.70663385874478" lon="-0.12487619343499858"><ele>54.0</ele><time>2026-04-06T09:15:27Z</time></trkpt><trkpt lat="45.70640560893528" lon="-0.12485395508326437"><ele>54.0</ele><time>2026-04-06T09:15:28Z</time></trkpt><trkpt lat="45.70618052331424" lon="-0.12484435270855432"><ele>52.0</ele><time>2026-04-06T09:15:29Z</time></trkpt><trkpt lat="45.70595675968875" lon="-0.12482486904888675"><ele>50.0</ele><time>2026-04-06T09:15:30Z</time></trkpt><trkpt lat="45.70572768288937" lon="-0.12480087903283393"><ele>50.0</ele><time>2026-04-06T09:15:31Z</time></trkpt><trkpt lat="45.70550594649949" lon="-0.12478362863872822"><ele>50.0</ele><time>2026-04-06T09:15:32Z</time></trkpt><trkpt lat="45.70528490959701" lon="-0.12478028638422006"><ele>50.0</ele><time>2026-04-06T09:15:33Z</time></trkpt><trkpt lat="45.70507029162219" lon="-0.12477583685178895"><ele>49.0</ele><time>2026-04-06T09:15:34Z</time></trkpt><trkpt lat="45.70486220569299" lon="-0.12476844912471494"><ele>48.0</ele><time>2026-04-06T09:15:35Z</time></trkpt><trkpt lat="45.70465764656492" lon="-0.12475150577985047"><ele>47.0</ele><time>2026-04-06T09:15:36Z</time></trkpt><trkpt lat="45.704448592529054" lon="-0.12473184838941265"><ele>46.33333333333333</ele><time>2026-04-06T09:15:37Z</time></trkpt><trkpt lat="45.7042383870477" lon="-0.12471756778247363"><ele>45.666666666666664</ele><time>2026-04-06T09:15:38Z</time></trkpt><trkpt lat="45.70403645282939" lon="-0.12471938799384011"><ele>45.0</ele><time>2026-04-06T09:15:39Z</time></trkpt><trkpt lat="45.703851834554804" lon="-0.12472823491797363"><ele>45.0</ele><time>2026-04-06T09:15:40Z</time></trkpt><trkpt lat="45.7036755101037" lon="-0.12476311094213466"><ele>45.0</ele><time>2026-04-06T09:15:41Z</time></trkpt><trkpt lat="45.70349974515424" lon="-0.12481733261026055"><ele>45.0</ele><time>2026-04-06T09:15:42Z</time></trkpt><trkpt lat="45.70333911900248" lon="-0.12486601848340356"><ele>44.25</ele><time>2026-04-06T09:15:43Z</time></trkpt><trkpt lat="45.70320856308131" lon="-0.12490320807658986"><ele>43.5</ele><time>2026-04-06T09:15:44Z</time></trkpt><trkpt lat="45.703082406405755" lon="-0.12493494637334664"><ele>42.75</ele><time>2026-04-06T09:15:45Z</time></trkpt><trkpt lat="45.702970756740456" lon="-0.12493202887213722"><ele>42.0</ele><time>2026-04-06T09:15:46Z</time></trkpt><trkpt lat="45.702873500378644" lon="-0.12488025584350589"><ele>42.0</ele><time>2026-04-06T09:15:47Z</time></trkpt><trkpt lat="45.702804291200614" lon="-0.12477298827893576"><ele>42.0</ele><time>2026-04-06T09:15:48Z</time></trkpt><trkpt lat="45.70274325567055" lon="-0.1246323751053147"><ele>42.0</ele><time>2026-04-06T09:15:49Z</time></trkpt><trkpt lat="45.70270399191876" lon="-0.12444919445382192"><ele>42.0</ele><time>2026-04-06T09:15:50Z</time></trkpt><trkpt lat="45.702657829951136" lon="-0.12426469273240498"><ele>42.0</ele><time>2026-04-06T09:15:51Z</time></trkpt><trkpt lat="45.70259471564748" lon="-0.12412064796977054"><ele>42.0</ele><time>2026-04-06T09:15:52Z</time></trkpt><trkpt lat="45.70251996975453" lon="-0.12400763209436019"><ele>42.0</ele><time>2026-04-06T09:15:53Z</time></trkpt><trkpt lat="45.70239615446343" lon="-0.12398116901503867"><ele>42.0</ele><time>2026-04-06T09:15:54Z</time></trkpt><trkpt lat="45.70226991148999" lon="-0.12398452834372764"><ele>41.75</ele><time>2026-04-06T09:15:55Z</time></trkpt><trkpt lat="45.70215444765113" lon="-0.1240859745910073"><ele>41.5</ele><time>2026-04-06T09:15:56Z</time></trkpt><trkpt lat="45.70201939927717" lon="-0.12415860162798674"><ele>41.25</ele><time>2026-04-06T09:15:57Z</time></trkpt><trkpt lat="45.701873101496815" lon="-0.12423733365201502"><ele>41.0</ele><time>2026-04-06T09:15:58Z</time></trkpt><trkpt lat="45.70170522625821" lon="-0.12430557749103242"><ele>41.0</ele><time>2026-04-06T09:15:59Z</time></trkpt><trkpt lat="45.70153741700644" lon="-0.12439378821490935"><ele>41.0</ele><time>2026-04-06T09:16:00Z</time></trkpt><trkpt lat="45.70133910378978" lon="-0.12445585005256642"><ele>41.0</ele><time>2026-04-06T09:16:01Z</time></trkpt><trkpt lat="45.701144032655435" lon="-0.12448798973205893"><ele>41.0</ele><time>2026-04-06T09:16:02Z</time></trkpt><trkpt lat="45.7009438939065" lon="-0.12448829634924967"><ele>41.0</ele><time>2026-04-06T09:16:03Z</time></trkpt><trkpt lat="45.70075285081583" lon="-0.12444736729627508"><ele>41.0</ele><time>2026-04-06T09:16:04Z</time></trkpt><trkpt lat="45.700564255197875" lon="-0.12438837207521017"><ele>41.0</ele><time>2026-04-06T09:16:05Z</time></trkpt><trkpt lat="45.70037913911364" lon="-0.12428418693933466"><ele>41.0</ele><time>2026-04-06T09:16:06Z</time></trkpt><trkpt lat="45.70017210198689" lon="-0.12415415256507793"><ele>41.0</ele><time>2026-04-06T09:16:07Z</time></trkpt><trkpt lat="45.69997564183321" lon="-0.12402417655626416"><ele>40.0</ele><time>2026-04-06T09:16:08Z</time></trkpt><trkpt lat="45.69976780743164" lon="-0.12389618882438524"><ele>39.0</ele><time>2026-04-06T09:16:09Z</time></trkpt><trkpt lat="45.699551228786916" lon="-0.1237817802378172"><ele>38.333333333333336</ele><time>2026-04-06T09:16:10Z</time></trkpt><trkpt lat="45.69933757473165" lon="-0.12368078039055391"><ele>37.66666666666667</ele><time>2026-04-06T09:16:11Z</time></trkpt><trkpt lat="45.699123772436955" lon="-0.12360808780270136"><ele>37.0</ele><time>2026-04-06T09:16:12Z</time></trkpt><trkpt lat="45.69890442921821" lon="-0.1235617412914479"><ele>37.0</ele><time>2026-04-06T09:16:13Z</time></trkpt><trkpt lat="45.69867616547991" lon="-0.12355479858267883"><ele>37.0</ele><time>2026-04-06T09:16:14Z</time></trkpt><trkpt lat="45.69844244411394" lon="-0.12357715350919812"><ele>37.0</ele><time>2026-04-06T09:16:15Z</time></trkpt><trkpt lat="45.69820699560384" lon="-0.12361765797540378"><ele>37.0</ele><time>2026-04-06T09:16:16Z</time></trkpt><trkpt lat="45.69797941871112" lon="-0.12365248538584117"><ele>37.0</ele><time>2026-04-06T09:16:17Z</time></trkpt><trkpt lat="45.697766532312826" lon="-0.12368595856481616"><ele>37.0</ele><time>2026-04-06T09:16:18Z</time></trkpt><trkpt lat="45.69756902037331" lon="-0.12372061668460667"><ele>37.0</ele><time>2026-04-06T09:16:19Z</time></trkpt><trkpt lat="45.69736095530131" lon="-0.12375708695061664"><ele>35.66666666666667</ele><time>2026-04-06T09:16:20Z</time></trkpt><trkpt lat="45.69715487484442" lon="-0.12385745061950724"><ele>34.333333333333336</ele><time>2026-04-06T09:16:21Z</time></trkpt><trkpt lat="45.69694549198446" lon="-0.12396764124103023"><ele>33.0</ele><time>2026-04-06T09:16:22Z</time></trkpt><trkpt lat="45.696730767906224" lon="-0.12410842477954785"><ele>32.5</ele><time>2026-04-06T09:16:23Z</time></trkpt><trkpt lat="45.696511124820475" lon="-0.12426332502343393"><ele>32.0</ele><time>2026-04-06T09:16:24Z</time></trkpt><trkpt lat="45.69629375634017" lon="-0.12442486185559581"><ele>31.0</ele><time>2026-04-06T09:16:25Z</time></trkpt><trkpt lat="45.69607689847581" lon="-0.12459129794494733"><ele>30.0</ele><time>2026-04-06T09:16:26Z</time></trkpt><trkpt lat="45.69587098122521" lon="-0.12476194722037501"><ele>30.666666666666664</ele><time>2026-04-06T09:16:27Z</time></trkpt><trkpt lat="45.69568184760276" lon="-0.12492195737236056"><ele>31.333333333333332</ele><time>2026-04-06T09:16:28Z</time></trkpt><trkpt lat="45.69549551013378" lon="-0.1250800677643317"><ele>32.0</ele><time>2026-04-06T09:16:29Z</time></trkpt><trkpt lat="45.69532932596375" lon="-0.12522330152234218"><ele>31.0</ele><time>2026-04-06T09:16:30Z</time></trkpt><trkpt lat="45.69516354827284" lon="-0.12536074687835724"><ele>30.0</ele><time>2026-04-06T09:16:31Z</time></trkpt><trkpt lat="45.69498120146274" lon="-0.12546268950095318"><ele>29.0</ele><time>2026-04-06T09:16:32Z</time></trkpt><trkpt lat="45.69480218053347" lon="-0.12555716284376978"><ele>29.0</ele><time>2026-04-06T09:16:33Z</time></trkpt><trkpt lat="45.69462069006526" lon="-0.12561354938602312"><ele>29.0</ele><time>2026-04-06T09:16:34Z</time></trkpt><trkpt lat="45.694432218990386" lon="-0.1256443065759702"><ele>29.0</ele><time>2026-04-06T09:16:35Z</time></trkpt><trkpt lat="45.69424271570686" lon="-0.12563881921653383"><ele>29.0</ele><time>2026-04-06T09:16:36Z</time></trkpt><trkpt lat="45.694044300688034" lon="-0.12562894794235774"><ele>29.0</ele><time>2026-04-06T09:16:37Z</time></trkpt><trkpt lat="45.69385430105609" lon="-0.1256879135945658"><ele>29.0</ele><time>2026-04-06T09:16:38Z</time></trkpt><trkpt lat="45.69366952317863" lon="-0.1257132146496561"><ele>29.0</ele><time>2026-04-06T09:16:39Z</time></trkpt><trkpt lat="45.69349826632873" lon="-0.12575914352939718"><ele>29.0</ele><time>2026-04-06T09:16:40Z</time></trkpt><trkpt lat="45.69335905455994" lon="-0.12580025048711835"><ele>29.0</ele><time>2026-04-06T09:16:41Z</time></trkpt><trkpt lat="45.69324659941444" lon="-0.125829238824345"><ele>29.0</ele><time>2026-04-06T09:16:42Z</time></trkpt><trkpt lat="45.69314950638691" lon="-0.12586085408064646"><ele>28.999999999999996</ele><time>2026-04-06T09:16:43Z</time></trkpt><trkpt lat="45.69306667106095" lon="-0.12588257435411185"><ele>29.0</ele><time>2026-04-06T09:16:44Z</time></trkpt><trkpt lat="45.69300423120277" lon="-0.1259331657742166"><ele>29.0</ele><time>2026-04-06T09:16:45Z</time></trkpt><trkpt lat="45.6929393020059" lon="-0.12593595314794973"><ele>29.0</ele><time>2026-04-06T09:16:47Z</time></trkpt><trkpt lat="45.69283362932966" lon="-0.1259643820731726"><ele>28.999999999999996</ele><time>2026-04-06T09:16:51Z</time></trkpt><trkpt lat="45.69277173987003" lon="-0.12601621198685584"><ele>29.0</ele><time>2026-04-06T09:16:52Z</time></trkpt><trkpt lat="45.69269375349852" lon="-0.1260353779386346"><ele>28.833333333333332</ele><time>2026-04-06T09:16:53Z</time></trkpt><trkpt lat="45.69261686840047" lon="-0.12605109825922664"><ele>28.666666666666664</ele><time>2026-04-06T09:16:54Z</time></trkpt><trkpt lat="45.692548550916605" lon="-0.12607722023803283"><ele>28.5</ele><time>2026-04-06T09:16:55Z</time></trkpt><trkpt lat="45.692477319989" lon="-0.12612808042903859"><ele>28.333333333333336</ele><time>2026-04-06T09:16:56Z</time></trkpt><trkpt lat="45.69239060352957" lon="-0.12613908221295828"><ele>28.166666666666668</ele><time>2026-04-06T09:16:57Z</time></trkpt><trkpt lat="45.69230488328972" lon="-0.12618098200084688"><ele>28.0</ele><time>2026-04-06T09:16:58Z</time></trkpt><trkpt lat="45.69223002184321" lon="-0.126217315497488"><ele>28.0</ele><time>2026-04-06T09:16:59Z</time></trkpt><trkpt lat="45.69212432488945" lon="-0.12623185266955012"><ele>27.999999999999996</ele><time>2026-04-06T09:17:00Z</time></trkpt><trkpt lat="45.69203982496675" lon="-0.12627025448820106"><ele>27.999999999999996</ele><time>2026-04-06T09:17:01Z</time></trkpt><trkpt lat="45.6919488989507" lon="-0.12630487103432242"><ele>28.0</ele><time>2026-04-06T09:17:02Z</time></trkpt><trkpt lat="45.691861314911336" lon="-0.12633787510320948"><ele>28.0</ele><time>2026-04-06T09:17:03Z</time></trkpt><trkpt lat="45.69177836851995" lon="-0.12636910023267134"><ele>28.000000000000004</ele><time>2026-04-06T09:17:04Z</time></trkpt><trkpt lat="45.691696587020175" lon="-0.12639638355237626"><ele>28.0</ele><time>2026-04-06T09:17:05Z</time></trkpt><trkpt lat="45.691609608663974" lon="-0.12642397262046007"><ele>28.0</ele><time>2026-04-06T09:17:06Z</time></trkpt><trkpt lat="45.69152805517416" lon="-0.12645165941611927"><ele>28.0</ele><time>2026-04-06T09:17:07Z</time></trkpt><trkpt lat="45.691440018299105" lon="-0.12648261264005736"><ele>28.000000000000004</ele><time>2026-04-06T09:17:08Z</time></trkpt><trkpt lat="45.69135102519995" lon="-0.1265276927624338"><ele>28.0</ele><time>2026-04-06T09:17:09Z</time></trkpt><trkpt lat="45.69125710594205" lon="-0.1265660451575612"><ele>28.0</ele><time>2026-04-06T09:17:10Z</time></trkpt><trkpt lat="45.69117066493015" lon="-0.1265991798604894"><ele>27.999999999999996</ele><time>2026-04-06T09:17:11Z</time></trkpt><trkpt lat="45.69108267816979" lon="-0.12663164316418551"><ele>27.999999999999996</ele><time>2026-04-06T09:17:12Z</time></trkpt><trkpt lat="45.69099335463834" lon="-0.12666374044011752"><ele>28.0</ele><time>2026-04-06T09:17:13Z</time></trkpt><trkpt lat="45.69088715452752" lon="-0.12670828340912252"><ele>28.0</ele><time>2026-04-06T09:17:14Z</time></trkpt><trkpt lat="45.690801391356935" lon="-0.12673563813397126"><ele>27.799999999999997</ele><time>2026-04-06T09:17:15Z</time></trkpt><trkpt lat="45.69071015544617" lon="-0.12677302493069145"><ele>27.599999999999998</ele><time>2026-04-06T09:17:16Z</time></trkpt><trkpt lat="45.69062148768165" lon="-0.12679916799345206"><ele>27.400000000000002</ele><time>2026-04-06T09:17:17Z</time></trkpt><trkpt lat="45.69054809240783" lon="-0.12682655174031357"><ele>27.200000000000003</ele><time>2026-04-06T09:17:18Z</time></trkpt><trkpt lat="45.690449694108565" lon="-0.1268472141146102"><ele>27.0</ele><time>2026-04-06T09:17:19Z</time></trkpt><trkpt lat="45.690351030066836" lon="-0.12688978225025752"><ele>27.0</ele><time>2026-04-06T09:17:20Z</time></trkpt><trkpt lat="45.69027278588231" lon="-0.12691120537339362"><ele>27.000000000000004</ele><time>2026-04-06T09:17:21Z</time></trkpt><trkpt lat="45.690177221291236" lon="-0.1269455439133795"><ele>27.000000000000004</ele><time>2026-04-06T09:17:22Z</time></trkpt><trkpt lat="45.690090523221585" lon="-0.12697024189949963"><ele>27.0</ele><time>2026-04-06T09:17:23Z</time></trkpt><trkpt lat="45.68999325963591" lon="-0.12699392090222428"><ele>27.0</ele><time>2026-04-06T09:17:24Z</time></trkpt><trkpt lat="45.68990599477874" lon="-0.12702199328643782"><ele>26.6</ele><time>2026-04-06T09:17:25Z</time></trkpt><trkpt lat="45.689819080092114" lon="-0.12703518817753148"><ele>26.200000000000003</ele><time>2026-04-06T09:17:26Z</time></trkpt><trkpt lat="45.68974374945182" lon="-0.12701935373118006"><ele>25.8</ele><time>2026-04-06T09:17:27Z</time></trkpt><trkpt lat="45.689665750459824" lon="-0.12696683457977978"><ele>25.4</ele><time>2026-04-06T09:17:28Z</time></trkpt><trkpt lat="45.689590119024636" lon="-0.12688580294255503"><ele>25.0</ele><time>2026-04-06T09:17:29Z</time></trkpt><trkpt lat="45.68950747917961" lon="-0.1267800380005008"><ele>24.8</ele><time>2026-04-06T09:17:30Z</time></trkpt><trkpt lat="45.689384975541884" lon="-0.126683883463301"><ele>24.6</ele><time>2026-04-06T09:17:31Z</time></trkpt><trkpt lat="45.68931699056688" lon="-0.1266094605834783"><ele>24.4</ele><time>2026-04-06T09:17:32Z</time></trkpt><trkpt lat="45.689232479991084" lon="-0.12651770276974347"><ele>24.2</ele><time>2026-04-06T09:17:33Z</time></trkpt><trkpt lat="45.68913603939901" lon="-0.1264482518613532"><ele>24.0</ele><time>2026-04-06T09:17:34Z</time></trkpt><trkpt lat="45.6890251504269" lon="-0.12637915429939212"><ele>23.75</ele><time>2026-04-06T09:17:35Z</time></trkpt><trkpt lat="45.68890702838611" lon="-0.12632655723525227"><ele>23.5</ele><time>2026-04-06T09:17:36Z</time></trkpt><trkpt lat="45.68876880146774" lon="-0.12625551188303274"><ele>23.25</ele><time>2026-04-06T09:17:37Z</time></trkpt><trkpt lat="45.688632749052594" lon="-0.12618568607162253"><ele>23.0</ele><time>2026-04-06T09:17:38Z</time></trkpt><trkpt lat="45.688530284202926" lon="-0.1260931573227482"><ele>22.75</ele><time>2026-04-06T09:17:39Z</time></trkpt><trkpt lat="45.688414383411384" lon="-0.12601342995302048"><ele>22.5</ele><time>2026-04-06T09:17:40Z</time></trkpt><trkpt lat="45.68829852156353" lon="-0.1259122416682726"><ele>22.25</ele><time>2026-04-06T09:17:41Z</time></trkpt><trkpt lat="45.68819235859505" lon="-0.1258040208799261"><ele>22.0</ele><time>2026-04-06T09:17:42Z</time></trkpt><trkpt lat="45.68806686327331" lon="-0.12565273888700298"><ele>22.0</ele><time>2026-04-06T09:17:43Z</time></trkpt><trkpt lat="45.68795232145704" lon="-0.12548703618279927"><ele>22.0</ele><time>2026-04-06T09:17:44Z</time></trkpt><trkpt lat="45.68782333058891" lon="-0.12530150413095442"><ele>22.0</ele><time>2026-04-06T09:17:45Z</time></trkpt><trkpt lat="45.687687426019586" lon="-0.12513769393657762"><ele>21.666666666666664</ele><time>2026-04-06T09:17:46Z</time></trkpt><trkpt lat="45.6875336842011" lon="-0.12496476125178858"><ele>21.333333333333332</ele><time>2026-04-06T09:17:47Z</time></trkpt><trkpt lat="45.68737380038259" lon="-0.12480177811492273"><ele>21.0</ele><time>2026-04-06T09:17:48Z</time></trkpt><trkpt lat="45.6871971494798" lon="-0.12464839657802175"><ele>21.0</ele><time>2026-04-06T09:17:49Z</time></trkpt><trkpt lat="45.68703066848" lon="-0.12452672348025265"><ele>21.0</ele><time>2026-04-06T09:17:50Z</time></trkpt><trkpt lat="45.68687522978984" lon="-0.12440346294076418"><ele>21.0</ele><time>2026-04-06T09:17:51Z</time></trkpt><trkpt lat="45.68671333356426" lon="-0.12429976619062952"><ele>21.333333333333332</ele><time>2026-04-06T09:17:52Z</time></trkpt><trkpt lat="45.68655509912813" lon="-0.12421987230615322"><ele>21.666666666666664</ele><time>2026-04-06T09:17:53Z</time></trkpt><trkpt lat="45.68637550599073" lon="-0.12416236909752608"><ele>22.0</ele><time>2026-04-06T09:17:54Z</time></trkpt><trkpt lat="45.686189324882825" lon="-0.12411308075878319"><ele>21.666666666666664</ele><time>2026-04-06T09:17:55Z</time></trkpt><trkpt lat="45.686004671595576" lon="-0.12407565950057672"><ele>21.333333333333332</ele><time>2026-04-06T09:17:56Z</time></trkpt><trkpt lat="45.685811496332434" lon="-0.12404565410894618"><ele>21.0</ele><time>2026-04-06T09:17:57Z</time></trkpt><trkpt lat="45.685617342954025" lon="-0.12403470332395819"><ele>21.0</ele><time>2026-04-06T09:17:58Z</time></trkpt><trkpt lat="45.68543470989023" lon="-0.12404237256313161"><ele>21.0</ele><time>2026-04-06T09:17:59Z</time></trkpt><trkpt lat="45.68525172839691" lon="-0.12409201140210058"><ele>21.0</ele><time>2026-04-06T09:18:00Z</time></trkpt><trkpt lat="45.68508898521647" lon="-0.12411455242933671"><ele>21.5</ele><time>2026-04-06T09:18:01Z</time></trkpt><trkpt lat="45.684946356333455" lon="-0.12416166227508066"><ele>22.0</ele><time>2026-04-06T09:18:02Z</time></trkpt><trkpt lat="45.684815819780304" lon="-0.1241624230093464"><ele>22.5</ele><time>2026-04-06T09:18:03Z</time></trkpt><trkpt lat="45.684687708145226" lon="-0.1241048297961909"><ele>23.0</ele><time>2026-04-06T09:18:04Z</time></trkpt><trkpt lat="45.684545653978184" lon="-0.12399751316973018"><ele>23.666666666666668</ele><time>2026-04-06T09:18:05Z</time></trkpt><trkpt lat="45.68441209645153" lon="-0.12384940827490273"><ele>24.333333333333336</ele><time>2026-04-06T09:18:06Z</time></trkpt><trkpt lat="45.68428261767383" lon="-0.12368447438711576"><ele>25.0</ele><time>2026-04-06T09:18:07Z</time></trkpt><trkpt lat="45.684150951426275" lon="-0.12350577119884792"><ele>25.0</ele><time>2026-04-06T09:18:08Z</time></trkpt><trkpt lat="45.684023822838284" lon="-0.1233330372033997"><ele>25.0</ele><time>2026-04-06T09:18:09Z</time></trkpt><trkpt lat="45.68389889856376" lon="-0.12320123628428818"><ele>25.0</ele><time>2026-04-06T09:18:10Z</time></trkpt><trkpt lat="45.683760701975295" lon="-0.12314862850758991"><ele>25.25</ele><time>2026-04-06T09:18:11Z</time></trkpt><trkpt lat="45.68362342426129" lon="-0.12314231844378683"><ele>25.5</ele><time>2026-04-06T09:18:12Z</time></trkpt><trkpt lat="45.6834735511142" lon="-0.12316842788020317"><ele>25.75</ele><time>2026-04-06T09:18:13Z</time></trkpt><trkpt lat="45.68332036661886" lon="-0.12317894870843153"><ele>26.0</ele><time>2026-04-06T09:18:14Z</time></trkpt><trkpt lat="45.68316589924602" lon="-0.12315620715026657"><ele>26.0</ele><time>2026-04-06T09:18:15Z</time></trkpt><trkpt lat="45.68302444192232" lon="-0.1231103142437313"><ele>26.0</ele><time>2026-04-06T09:18:16Z</time></trkpt><trkpt lat="45.682894566229685" lon="-0.12301784705765417"><ele>26.0</ele><time>2026-04-06T09:18:17Z</time></trkpt><trkpt lat="45.68277270966021" lon="-0.12288781513772877"><ele>26.0</ele><time>2026-04-06T09:18:18Z</time></trkpt><trkpt lat="45.68266595746728" lon="-0.12272621456716651"><ele>26.0</ele><time>2026-04-06T09:18:19Z</time></trkpt><trkpt lat="45.68256042661789" lon="-0.12254562993999088"><ele>26.0</ele><time>2026-04-06T09:18:20Z</time></trkpt><trkpt lat="45.68246015672088" lon="-0.12235829222617002"><ele>26.0</ele><time>2026-04-06T09:18:21Z</time></trkpt><trkpt lat="45.682357443538145" lon="-0.12218014304177506"><ele>26.333333333333332</ele><time>2026-04-06T09:18:22Z</time></trkpt><trkpt lat="45.68225044837987" lon="-0.12200101284126018"><ele>26.666666666666664</ele><time>2026-04-06T09:18:23Z</time></trkpt><trkpt lat="45.68214365701053" lon="-0.12182063538350787"><ele>27.0</ele><time>2026-04-06T09:18:24Z</time></trkpt><trkpt lat="45.68203529781137" lon="-0.1216578671947123"><ele>26.333333333333336</ele><time>2026-04-06T09:18:25Z</time></trkpt><trkpt lat="45.6819181083591" lon="-0.1215131415529296"><ele>25.666666666666668</ele><time>2026-04-06T09:18:26Z</time></trkpt><trkpt lat="45.6817920085566" lon="-0.12138219299425244"><ele>25.0</ele><time>2026-04-06T09:18:27Z</time></trkpt><trkpt lat="45.68166467234838" lon="-0.12126473423071253"><ele>25.0</ele><time>2026-04-06T09:18:28Z</time></trkpt><trkpt lat="45.681535424518756" lon="-0.12114998418347925"><ele>25.0</ele><time>2026-04-06T09:18:29Z</time></trkpt><trkpt lat="45.681409232480874" lon="-0.1210414364822343"><ele>25.0</ele><time>2026-04-06T09:18:30Z</time></trkpt><trkpt lat="45.681282198940615" lon="-0.1209361278337974"><ele>25.0</ele><time>2026-04-06T09:18:31Z</time></trkpt><trkpt lat="45.68115128690085" lon="-0.12082421320562645"><ele>24.333333333333336</ele><time>2026-04-06T09:18:32Z</time></trkpt><trkpt lat="45.68102360748461" lon="-0.12070415518131869"><ele>23.666666666666668</ele><time>2026-04-06T09:18:33Z</time></trkpt><trkpt lat="45.68089410654457" lon="-0.12058794052573255"><ele>23.0</ele><time>2026-04-06T09:18:34Z</time></trkpt><trkpt lat="45.6807603622226" lon="-0.12046925220548639"><ele>23.0</ele><time>2026-04-06T09:18:35Z</time></trkpt><trkpt lat="45.68063421397785" lon="-0.12035439608113944"><ele>23.0</ele><time>2026-04-06T09:18:36Z</time></trkpt><trkpt lat="45.68050700868981" lon="-0.12024980461918013"><ele>23.0</ele><time>2026-04-06T09:18:37Z</time></trkpt><trkpt lat="45.68038506599548" lon="-0.12014463085452272"><ele>23.0</ele><time>2026-04-06T09:18:38Z</time></trkpt><trkpt lat="45.68026696119425" lon="-0.1200407909872077"><ele>22.25</ele><time>2026-04-06T09:18:39Z</time></trkpt><trkpt lat="45.680150623030116" lon="-0.11993056131547764"><ele>21.5</ele><time>2026-04-06T09:18:40Z</time></trkpt><trkpt lat="45.680031690392056" lon="-0.11982832539325247"><ele>20.75</ele><time>2026-04-06T09:18:41Z</time></trkpt><trkpt lat="45.67991652145325" lon="-0.11972624173297419"><ele>20.0</ele><time>2026-04-06T09:18:42Z</time></trkpt><trkpt lat="45.679811390985996" lon="-0.11963411268970557"><ele>19.8</ele><time>2026-04-06T09:18:43Z</time></trkpt><trkpt lat="45.679715432491136" lon="-0.11954913503968574"><ele>19.6</ele><time>2026-04-06T09:18:44Z</time></trkpt><trkpt lat="45.679627797888756" lon="-0.11946796396762431"><ele>19.4</ele><time>2026-04-06T09:18:45.001Z</time></trkpt><trkpt lat="45.679538900830096" lon="-0.11939850412371959"><ele>19.2</ele><time>2026-04-06T09:18:46.001Z</time></trkpt><trkpt lat="45.6794473824235" lon="-0.1193512315972998"><ele>19.0</ele><time>2026-04-06T09:18:47.001Z</time></trkpt><trkpt lat="45.6793612240759" lon="-0.11930003854197156"><ele>19.166666666666664</ele><time>2026-04-06T09:18:48.001Z</time></trkpt><trkpt lat="45.679314812201376" lon="-0.11920347560101752"><ele>19.333333333333332</ele><time>2026-04-06T09:18:49.001Z</time></trkpt><trkpt lat="45.67926541247533" lon="-0.11911881795198952"><ele>19.5</ele><time>2026-04-06T09:18:50.001Z</time></trkpt><trkpt lat="45.679232186221775" lon="-0.11899455832904055"><ele>19.666666666666668</ele><time>2026-04-06T09:18:51.001Z</time></trkpt><trkpt lat="45.67919280885624" lon="-0.11887463354281735"><ele>19.833333333333336</ele><time>2026-04-06T09:18:52.001Z</time></trkpt><trkpt lat="45.67915476914001" lon="-0.11875167905304991"><ele>20.0</ele><time>2026-04-06T09:18:53.001Z</time></trkpt><trkpt lat="45.67911512343668" lon="-0.11862665888354267"><ele>20.0</ele><time>2026-04-06T09:18:54.001Z</time></trkpt><trkpt lat="45.67907076426916" lon="-0.11849570190811927"><ele>20.0</ele><time>2026-04-06T09:18:55.001Z</time></trkpt><trkpt lat="45.679027411686924" lon="-0.1183665819450624"><ele>20.0</ele><time>2026-04-06T09:18:56.001Z</time></trkpt><trkpt lat="45.67897380454254" lon="-0.11822749840547303"><ele>20.0</ele><time>2026-04-06T09:18:57.001Z</time></trkpt><trkpt lat="45.67891192140774" lon="-0.11808554112661389"><ele>20.0</ele><time>2026-04-06T09:18:58.001Z</time></trkpt><trkpt lat="45.67883857561448" lon="-0.11794642512639907"><ele>19.5</ele><time>2026-04-06T09:18:59.001Z</time></trkpt><trkpt lat="45.67875122359183" lon="-0.11779664117646886"><ele>19.0</ele><time>2026-04-06T09:19:00.001Z</time></trkpt><trkpt lat="45.67864843030073" lon="-0.11764646198088598"><ele>18.5</ele><time>2026-04-06T09:19:01.001Z</time></trkpt><trkpt lat="45.678537614713484" lon="-0.1174964410773872"><ele>18.0</ele><time>2026-04-06T09:19:02.001Z</time></trkpt><trkpt lat="45.678420312468695" lon="-0.11736413121297337"><ele>18.0</ele><time>2026-04-06T09:19:03.001Z</time></trkpt><trkpt lat="45.67829420751968" lon="-0.11723394950670855"><ele>18.0</ele><time>2026-04-06T09:19:04.001Z</time></trkpt><trkpt lat="45.678171565646956" lon="-0.11711638315817786"><ele>18.0</ele><time>2026-04-06T09:19:05.001Z</time></trkpt><trkpt lat="45.678054279676275" lon="-0.11699158898385754"><ele>18.0</ele><time>2026-04-06T09:19:06.001Z</time></trkpt><trkpt lat="45.67793911878399" lon="-0.11686747962292919"><ele>18.0</ele><time>2026-04-06T09:19:07.001Z</time></trkpt><trkpt lat="45.67782363056478" lon="-0.11675607130583246"><ele>18.0</ele><time>2026-04-06T09:19:08.001Z</time></trkpt><trkpt lat="45.67771195849878" lon="-0.11664124573658208"><ele>18.0</ele><time>2026-04-06T09:19:09.001Z</time></trkpt><trkpt lat="45.67759994234501" lon="-0.11653386123687931"><ele>18.0</ele><time>2026-04-06T09:19:10.001Z</time></trkpt><trkpt lat="45.67748952677105" lon="-0.1164392952639487"><ele>19.25</ele><time>2026-04-06T09:19:11.001Z</time></trkpt><trkpt lat="45.677392622223984" lon="-0.11634106941603253"><ele>20.5</ele><time>2026-04-06T09:19:12.001Z</time></trkpt><trkpt lat="45.67729139379538" lon="-0.11624571228880982"><ele>21.75</ele><time>2026-04-06T09:19:13.001Z</time></trkpt><trkpt lat="45.677190667434374" lon="-0.11614330289023879"><ele>23.0</ele><time>2026-04-06T09:19:14.001Z</time></trkpt><trkpt lat="45.67710926295273" lon="-0.11601149303265341"><ele>23.0</ele><time>2026-04-06T09:19:15.001Z</time></trkpt><trkpt lat="45.67704440286518" lon="-0.1158476080533054"><ele>23.0</ele><time>2026-04-06T09:19:16.001Z</time></trkpt><trkpt lat="45.67695981244922" lon="-0.11571834003561762"><ele>23.0</ele><time>2026-04-06T09:19:17.001Z</time></trkpt><trkpt lat="45.67687991977898" lon="-0.11560402310805844"><ele>23.0</ele><time>2026-04-06T09:19:18.001Z</time></trkpt><trkpt lat="45.67680117050005" lon="-0.11552618313758012"><ele>23.2</ele><time>2026-04-06T09:19:19.001Z</time></trkpt><trkpt lat="45.6767151778698" lon="-0.115518236764518"><ele>23.4</ele><time>2026-04-06T09:19:20.001Z</time></trkpt><trkpt lat="45.67661965285061" lon="-0.11552437365729744"><ele>23.599999999999998</ele><time>2026-04-06T09:19:21.001Z</time></trkpt><trkpt lat="45.67650489654379" lon="-0.11550963984063421"><ele>23.799999999999997</ele><time>2026-04-06T09:19:22.001Z</time></trkpt><trkpt lat="45.67639049597974" lon="-0.11553427186922777"><ele>24.0</ele><time>2026-04-06T09:19:23.001Z</time></trkpt><trkpt lat="45.67626525895504" lon="-0.11553274123309508"><ele>24.0</ele><time>2026-04-06T09:19:24.001Z</time></trkpt><trkpt lat="45.676138879666226" lon="-0.11550796744381601"><ele>24.0</ele><time>2026-04-06T09:19:25.001Z</time></trkpt><trkpt lat="45.67600627603076" lon="-0.11547819075829409"><ele>24.0</ele><time>2026-04-06T09:19:26Z</time></trkpt><trkpt lat="45.67587364952963" lon="-0.11544174546166996"><ele>24.0</ele><time>2026-04-06T09:19:27Z</time></trkpt><trkpt lat="45.675721786044555" lon="-0.11541001880430586"><ele>23.666666666666668</ele><time>2026-04-06T09:19:28Z</time></trkpt><trkpt lat="45.67557440249322" lon="-0.11537222998405709"><ele>23.333333333333336</ele><time>2026-04-06T09:19:29Z</time></trkpt><trkpt lat="45.67542539631256" lon="-0.11534268969511488"><ele>23.0</ele><time>2026-04-06T09:19:30Z</time></trkpt><trkpt lat="45.67527161992737" lon="-0.11530889146508938"><ele>24.0</ele><time>2026-04-06T09:19:31Z</time></trkpt><trkpt lat="45.67510634870676" lon="-0.11526653379768625"><ele>25.0</ele><time>2026-04-06T09:19:32Z</time></trkpt><trkpt lat="45.674940954917" lon="-0.1152260855966376"><ele>26.0</ele><time>2026-04-06T09:19:33Z</time></trkpt><trkpt lat="45.67476347933851" lon="-0.11518469127626055"><ele>26.0</ele><time>2026-04-06T09:19:34Z</time></trkpt><trkpt lat="45.67460145956678" lon="-0.11516523929474337"><ele>26.0</ele><time>2026-04-06T09:19:35Z</time></trkpt><trkpt lat="45.674422330437295" lon="-0.11511424836315508"><ele>26.0</ele><time>2026-04-06T09:19:36Z</time></trkpt><trkpt lat="45.67424883196601" lon="-0.11507325113341638"><ele>27.0</ele><time>2026-04-06T09:19:37Z</time></trkpt><trkpt lat="45.674074312769974" lon="-0.1150423294988367"><ele>28.0</ele><time>2026-04-06T09:19:38Z</time></trkpt><trkpt lat="45.67391141111613" lon="-0.11501800656799233"><ele>29.0</ele><time>2026-04-06T09:19:39Z</time></trkpt><trkpt lat="45.673775527189164" lon="-0.11494442287669006"><ele>28.0</ele><time>2026-04-06T09:19:40Z</time></trkpt><trkpt lat="45.67365914662175" lon="-0.11483550657383544"><ele>27.0</ele><time>2026-04-06T09:19:41Z</time></trkpt><trkpt lat="45.67353331677818" lon="-0.11469661968741689"><ele>26.0</ele><time>2026-04-06T09:19:42Z</time></trkpt><trkpt lat="45.67340017684545" lon="-0.11451445097938455"><ele>26.0</ele><time>2026-04-06T09:19:43Z</time></trkpt><trkpt lat="45.67327826363115" lon="-0.1143299063688429"><ele>26.0</ele><time>2026-04-06T09:19:44Z</time></trkpt><trkpt lat="45.67314229634127" lon="-0.11413406386996998"><ele>26.0</ele><time>2026-04-06T09:19:45Z</time></trkpt><trkpt lat="45.67299666693495" lon="-0.11393335915851772"><ele>26.666666666666664</ele><time>2026-04-06T09:19:46Z</time></trkpt><trkpt lat="45.67284663095214" lon="-0.11373472341849886"><ele>27.333333333333336</ele><time>2026-04-06T09:19:47Z</time></trkpt><trkpt lat="45.6727061338925" lon="-0.1135321283158872"><ele>28.0</ele><time>2026-04-06T09:19:48Z</time></trkpt><trkpt lat="45.67257094804555" lon="-0.11333751799335579"><ele>25.666666666666668</ele><time>2026-04-06T09:19:49Z</time></trkpt><trkpt lat="45.67243024550368" lon="-0.11312099848242473"><ele>23.333333333333336</ele><time>2026-04-06T09:19:50Z</time></trkpt><trkpt lat="45.672297470605045" lon="-0.1129125413766457"><ele>21.0</ele><time>2026-04-06T09:19:51Z</time></trkpt><trkpt lat="45.67215939017191" lon="-0.11272826795547286"><ele>21.0</ele><time>2026-04-06T09:19:52Z</time></trkpt><trkpt lat="45.67201626850555" lon="-0.11257426618831272"><ele>21.0</ele><time>2026-04-06T09:19:53Z</time></trkpt><trkpt lat="45.671856500616876" lon="-0.11245356125190388"><ele>21.0</ele><time>2026-04-06T09:19:54Z</time></trkpt><trkpt lat="45.671679762904816" lon="-0.1123600800869847"><ele>21.333333333333332</ele><time>2026-04-06T09:19:55Z</time></trkpt><trkpt lat="45.67148671032919" lon="-0.11228315194620485"><ele>21.666666666666664</ele><time>2026-04-06T09:19:56Z</time></trkpt><trkpt lat="45.67129477197881" lon="-0.11220497832425462"><ele>22.0</ele><time>2026-04-06T09:19:57Z</time></trkpt><trkpt lat="45.671104028107514" lon="-0.11212483774098822"><ele>22.0</ele><time>2026-04-06T09:19:58Z</time></trkpt><trkpt lat="45.67090881682293" lon="-0.11202993447863381"><ele>22.0</ele><time>2026-04-06T09:19:59Z</time></trkpt><trkpt lat="45.670712590880726" lon="-0.11193720267124962"><ele>22.0</ele><time>2026-04-06T09:20:00Z</time></trkpt><trkpt lat="45.67051781701999" lon="-0.11183563376575434"><ele>22.0</ele><time>2026-04-06T09:20:01Z</time></trkpt><trkpt lat="45.670312709709584" lon="-0.1117395939592419"><ele>22.0</ele><time>2026-04-06T09:20:02Z</time></trkpt><trkpt lat="45.67010468088366" lon="-0.11164256575558025"><ele>22.0</ele><time>2026-04-06T09:20:03Z</time></trkpt><trkpt lat="45.66990312272644" lon="-0.11154885848783766"><ele>22.666666666666664</ele><time>2026-04-06T09:20:04Z</time></trkpt><trkpt lat="45.669729488086915" lon="-0.11146399219251389"><ele>23.333333333333332</ele><time>2026-04-06T09:20:05Z</time></trkpt><trkpt lat="45.6695714339849" lon="-0.11139349147858219"><ele>24.0</ele><time>2026-04-06T09:20:06Z</time></trkpt><trkpt lat="45.66942083186919" lon="-0.11132235728391979"><ele>24.5</ele><time>2026-04-06T09:20:07Z</time></trkpt><trkpt lat="45.66927879413525" lon="-0.11126062189881408"><ele>25.0</ele><time>2026-04-06T09:20:08Z</time></trkpt><trkpt lat="45.669146647001774" lon="-0.11119195276892953"><ele>25.5</ele><time>2026-04-06T09:20:09Z</time></trkpt><trkpt lat="45.66902916979412" lon="-0.11112881259824504"><ele>26.0</ele><time>2026-04-06T09:20:10Z</time></trkpt><trkpt lat="45.66891140440618" lon="-0.1110708245302086"><ele>26.0</ele><time>2026-04-06T09:20:11Z</time></trkpt><trkpt lat="45.66879798424152" lon="-0.11101685636858155"><ele>26.0</ele><time>2026-04-06T09:20:12Z</time></trkpt><trkpt lat="45.66869640460795" lon="-0.11097730214637587"><ele>26.0</ele><time>2026-04-06T09:20:13Z</time></trkpt><trkpt lat="45.66859855954895" lon="-0.11095095146827602"><ele>26.0</ele><time>2026-04-06T09:20:14Z</time></trkpt><trkpt lat="45.66850543353624" lon="-0.11088609092942053"><ele>26.0</ele><time>2026-04-06T09:20:15Z</time></trkpt><trkpt lat="45.66841567709605" lon="-0.11083970113433468"><ele>26.0</ele><time>2026-04-06T09:20:16Z</time></trkpt><trkpt lat="45.66831368165961" lon="-0.11080254244645821"><ele>26.0</ele><time>2026-04-06T09:20:17Z</time></trkpt><trkpt lat="45.66821849570758" lon="-0.11076275153661108"><ele>26.0</ele><time>2026-04-06T09:20:18Z</time></trkpt><trkpt lat="45.66812058468397" lon="-0.11070973837798244"><ele>26.0</ele><time>2026-04-06T09:20:19Z</time></trkpt><trkpt lat="45.66803350591994" lon="-0.11066186622662026"><ele>26.0</ele><time>2026-04-06T09:20:20Z</time></trkpt><trkpt lat="45.66794771459663" lon="-0.11062180271865643"><ele>26.0</ele><time>2026-04-06T09:20:21Z</time></trkpt><trkpt lat="45.66785297941259" lon="-0.11057876487812723"><ele>26.0</ele><time>2026-04-06T09:20:22Z</time></trkpt><trkpt lat="45.66775885461325" lon="-0.11053125734703767"><ele>26.0</ele><time>2026-04-06T09:20:23Z</time></trkpt><trkpt lat="45.667647289716236" lon="-0.11048446471020279"><ele>26.0</ele><time>2026-04-06T09:20:24Z</time></trkpt><trkpt lat="45.66753491492242" lon="-0.11044031733553901"><ele>26.0</ele><time>2026-04-06T09:20:25Z</time></trkpt><trkpt lat="45.66742116917697" lon="-0.11038015416205901"><ele>25.75</ele><time>2026-04-06T09:20:26Z</time></trkpt><trkpt lat="45.667298715803014" lon="-0.11033069524842849"><ele>25.5</ele><time>2026-04-06T09:20:27Z</time></trkpt><trkpt lat="45.66717820305382" lon="-0.11028770474558756"><ele>25.25</ele><time>2026-04-06T09:20:28Z</time></trkpt><trkpt lat="45.66705659510634" lon="-0.1102404970528591"><ele>25.0</ele><time>2026-04-06T09:20:29Z</time></trkpt><trkpt lat="45.66693687042724" lon="-0.11019057515337073"><ele>24.25</ele><time>2026-04-06T09:20:30Z</time></trkpt><trkpt lat="45.66682064451435" lon="-0.11014478883957865"><ele>23.5</ele><time>2026-04-06T09:20:31Z</time></trkpt><trkpt lat="45.666695879572494" lon="-0.1100943312176825"><ele>22.75</ele><time>2026-04-06T09:20:32Z</time></trkpt><trkpt lat="45.666581486400915" lon="-0.11005155670424309"><ele>22.0</ele><time>2026-04-06T09:20:33Z</time></trkpt><trkpt lat="45.66646951274412" lon="-0.10998019396876513"><ele>22.25</ele><time>2026-04-06T09:20:34Z</time></trkpt><trkpt lat="45.66635698715649" lon="-0.10990784636841636"><ele>22.5</ele><time>2026-04-06T09:20:35Z</time></trkpt><trkpt lat="45.66627274166785" lon="-0.10982757499008597"><ele>22.75</ele><time>2026-04-06T09:20:36Z</time></trkpt><trkpt lat="45.666135301378375" lon="-0.1097174221736921"><ele>23.0</ele><time>2026-04-06T09:20:37Z</time></trkpt><trkpt lat="45.66602613318748" lon="-0.10961680205272524"><ele>23.0</ele><time>2026-04-06T09:20:38Z</time></trkpt><trkpt lat="45.665933349048586" lon="-0.10951467080297761"><ele>23.0</ele><time>2026-04-06T09:20:39Z</time></trkpt><trkpt lat="45.66581257462131" lon="-0.10942724572840755"><ele>23.0</ele><time>2026-04-06T09:20:40Z</time></trkpt><trkpt lat="45.66570721695945" lon="-0.1093310049597685"><ele>23.0</ele><time>2026-04-06T09:20:41Z</time></trkpt><trkpt lat="45.66559670526375" lon="-0.10923133492236443"><ele>23.0</ele><time>2026-04-06T09:20:42Z</time></trkpt><trkpt lat="45.665478885811915" lon="-0.10914151872207221"><ele>23.0</ele><time>2026-04-06T09:20:43Z</time></trkpt><trkpt lat="45.66537458241665" lon="-0.10904779787239735"><ele>23.0</ele><time>2026-04-06T09:20:44Z</time></trkpt><trkpt lat="45.665272656440074" lon="-0.10896059524476664"><ele>23.0</ele><time>2026-04-06T09:20:45Z</time></trkpt><trkpt lat="45.66517523249056" lon="-0.10887414892313825"><ele>23.2</ele><time>2026-04-06T09:20:46Z</time></trkpt><trkpt lat="45.665087153646965" lon="-0.10878830858802852"><ele>23.4</ele><time>2026-04-06T09:20:47.001Z</time></trkpt><trkpt lat="45.665006700602405" lon="-0.10870290445321545"><ele>23.599999999999998</ele><time>2026-04-06T09:20:48.001Z</time></trkpt><trkpt lat="45.664922701512005" lon="-0.10861540229591125"><ele>23.799999999999997</ele><time>2026-04-06T09:20:49.001Z</time></trkpt><trkpt lat="45.664850957840535" lon="-0.10852264962761335"><ele>24.0</ele><time>2026-04-06T09:20:50.001Z</time></trkpt><trkpt lat="45.66478022870458" lon="-0.10843427781881548"><ele>24.0</ele><time>2026-04-06T09:20:51.001Z</time></trkpt><trkpt lat="45.66470701935059" lon="-0.10833424045672675"><ele>24.0</ele><time>2026-04-06T09:20:52.001Z</time></trkpt><trkpt lat="45.66464043470669" lon="-0.10822210837711678"><ele>24.0</ele><time>2026-04-06T09:20:53.001Z</time></trkpt><trkpt lat="45.66457764214973" lon="-0.10810632222103136"><ele>24.0</ele><time>2026-04-06T09:20:54.001Z</time></trkpt><trkpt lat="45.664515796700485" lon="-0.10798317984890633"><ele>24.0</ele><time>2026-04-06T09:20:55.001Z</time></trkpt><trkpt lat="45.66444878299076" lon="-0.10786663542974469"><ele>24.0</ele><time>2026-04-06T09:20:56.001Z</time></trkpt><trkpt lat="45.66438739821633" lon="-0.10775861023595573"><ele>24.0</ele><time>2026-04-06T09:20:57.001Z</time></trkpt><trkpt lat="45.664322142896665" lon="-0.1076585907635704"><ele>24.0</ele><time>2026-04-06T09:20:58.001Z</time></trkpt><trkpt lat="45.6642625966242" lon="-0.10756861432561358"><ele>24.0</ele><time>2026-04-06T09:20:59.001Z</time></trkpt><trkpt lat="45.66420999162316" lon="-0.10747620660237912"><ele>24.0</ele><time>2026-04-06T09:21:00.001Z</time></trkpt><trkpt lat="45.66416250638166" lon="-0.10737672294188484"><ele>24.0</ele><time>2026-04-06T09:21:01.001Z</time></trkpt><trkpt lat="45.66412731814051" lon="-0.10728564698805522"><ele>23.999999999999996</ele><time>2026-04-06T09:21:02.001Z</time></trkpt><trkpt lat="45.66408070170981" lon="-0.10720760459817083"><ele>24.0</ele><time>2026-04-06T09:21:03.001Z</time></trkpt><trkpt lat="45.66403419825808" lon="-0.10713059711486839"><ele>24.0</ele><time>2026-04-06T09:21:04.001Z</time></trkpt><trkpt lat="45.66397963541928" lon="-0.1070546631104357"><ele>24.0</ele><time>2026-04-06T09:21:05.001Z</time></trkpt><trkpt lat="45.66393217203986" lon="-0.1069755659696482"><ele>24.0</ele><time>2026-04-06T09:21:06.001Z</time></trkpt><trkpt lat="45.663886137129175" lon="-0.10690018908224141"><ele>23.999999999999996</ele><time>2026-04-06T09:21:07.001Z</time></trkpt><trkpt lat="45.663836147147435" lon="-0.10682343733239422"><ele>24.0</ele><time>2026-04-06T09:21:08.001Z</time></trkpt><trkpt lat="45.66379454798733" lon="-0.10674931338614364"><ele>23.999999999999996</ele><time>2026-04-06T09:21:09.001Z</time></trkpt><trkpt lat="45.66374701359526" lon="-0.10668641413586849"><ele>24.0</ele><time>2026-04-06T09:21:10.001Z</time></trkpt><trkpt lat="45.66369514794987" lon="-0.1066158005058647"><ele>24.0</ele><time>2026-04-06T09:21:11.001Z</time></trkpt><trkpt lat="45.663651745574654" lon="-0.10654390730151345"><ele>24.0</ele><time>2026-04-06T09:21:12.001Z</time></trkpt><trkpt lat="45.66360846041706" lon="-0.1064777435113557"><ele>24.0</ele><time>2026-04-06T09:21:13.001Z</time></trkpt><trkpt lat="45.66355595055689" lon="-0.10636144275292336"><ele>23.999999999999996</ele><time>2026-04-06T09:21:15.001Z</time></trkpt><trkpt lat="45.66350248401242" lon="-0.10627875628379531"><ele>24.0</ele><time>2026-04-06T09:21:19.001Z</time></trkpt><trkpt lat="45.66344631979569" lon="-0.10619096531947285"><ele>24.0</ele><time>2026-04-06T09:21:20.001Z</time></trkpt><trkpt lat="45.663374454654715" lon="-0.10609815458365986"><ele>24.0</ele><time>2026-04-06T09:21:21.001Z</time></trkpt><trkpt lat="45.66330295760854" lon="-0.10600609343009028"><ele>24.0</ele><time>2026-04-06T09:21:22.001Z</time></trkpt><trkpt lat="45.66322880869845" lon="-0.10592073843634323"><ele>24.0</ele><time>2026-04-06T09:21:23.001Z</time></trkpt><trkpt lat="45.66317474838903" lon="-0.10584172947339551"><ele>24.0</ele><time>2026-04-06T09:21:24.001Z</time></trkpt><trkpt lat="45.66311302547994" lon="-0.1057745945301808"><ele>24.0</ele><time>2026-04-06T09:21:25.001Z</time></trkpt><trkpt lat="45.6630539541444" lon="-0.10571455717120658"><ele>24.0</ele><time>2026-04-06T09:21:26.001Z</time></trkpt><trkpt lat="45.662949859908956" lon="-0.10562070350156977"><ele>24.0</ele><time>2026-04-06T09:21:28.001Z</time></trkpt><trkpt lat="45.662894983349986" lon="-0.10555293543127438"><ele>24.0</ele><time>2026-04-06T09:21:29.001Z</time></trkpt><trkpt lat="45.662835667622964" lon="-0.1054828223562242"><ele>24.0</ele><time>2026-04-06T09:21:30.001Z</time></trkpt><trkpt lat="45.662770151422514" lon="-0.10542156189776825"><ele>24.0</ele><time>2026-04-06T09:21:31.001Z</time></trkpt><trkpt lat="45.66269680379368" lon="-0.10535445320424616"><ele>24.0</ele><time>2026-04-06T09:21:32Z</time></trkpt><trkpt lat="45.662625989187376" lon="-0.10528634834926823"><ele>24.0</ele><time>2026-04-06T09:21:33Z</time></trkpt><trkpt lat="45.66254975070561" lon="-0.1051457493853191"><ele>24.0</ele><time>2026-04-06T09:21:35Z</time></trkpt><trkpt lat="45.66247309675449" lon="-0.10503558784505197"><ele>24.0</ele><time>2026-04-06T09:21:36Z</time></trkpt><trkpt lat="45.662418553475774" lon="-0.1049055505754394"><ele>24.0</ele><time>2026-04-06T09:21:37Z</time></trkpt><trkpt lat="45.6623549653004" lon="-0.10478086449035708"><ele>24.0</ele><time>2026-04-06T09:21:38Z</time></trkpt><trkpt lat="45.662276249886254" lon="-0.104652609485948"><ele>23.6</ele><time>2026-04-06T09:21:39Z</time></trkpt><trkpt lat="45.66223022839912" lon="-0.1045608527902702"><ele>23.2</ele><time>2026-04-06T09:21:40Z</time></trkpt><trkpt lat="45.66216334337629" lon="-0.10443812951795572"><ele>22.8</ele><time>2026-04-06T09:21:41Z</time></trkpt><trkpt lat="45.66209445602949" lon="-0.10432141538190567"><ele>22.400000000000002</ele><time>2026-04-06T09:21:42Z</time></trkpt><trkpt lat="45.66202534062553" lon="-0.10419195470019676"><ele>22.0</ele><time>2026-04-06T09:21:43Z</time></trkpt><trkpt lat="45.66194963942713" lon="-0.1040434685639418"><ele>21.666666666666664</ele><time>2026-04-06T09:21:44Z</time></trkpt><trkpt lat="45.661879543022955" lon="-0.10388636243191327"><ele>21.333333333333332</ele><time>2026-04-06T09:21:45Z</time></trkpt><trkpt lat="45.661772424057375" lon="-0.10370500058724558"><ele>21.0</ele><time>2026-04-06T09:21:46Z</time></trkpt><trkpt lat="45.66167244196631" lon="-0.10351694685569049"><ele>21.0</ele><time>2026-04-06T09:21:47Z</time></trkpt><trkpt lat="45.661570839079815" lon="-0.10331466938710274"><ele>21.0</ele><time>2026-04-06T09:21:48Z</time></trkpt><trkpt lat="45.66146188501245" lon="-0.10312064743338081"><ele>21.0</ele><time>2026-04-06T09:21:49Z</time></trkpt><trkpt lat="45.6613573554271" lon="-0.10290326456846208"><ele>20.666666666666668</ele><time>2026-04-06T09:21:50Z</time></trkpt><trkpt lat="45.66124013852899" lon="-0.10267586084570818"><ele>20.333333333333336</ele><time>2026-04-06T09:21:51Z</time></trkpt><trkpt lat="45.661125265021006" lon="-0.10245091397581352"><ele>20.0</ele><time>2026-04-06T09:21:52Z</time></trkpt><trkpt lat="45.6610163097889" lon="-0.10223112702767988"><ele>19.666666666666668</ele><time>2026-04-06T09:21:53Z</time></trkpt><trkpt lat="45.660900147502076" lon="-0.10199843960667913"><ele>19.333333333333332</ele><time>2026-04-06T09:21:54Z</time></trkpt><trkpt lat="45.66079130613918" lon="-0.10175653305146501"><ele>19.0</ele><time>2026-04-06T09:21:55Z</time></trkpt><trkpt lat="45.66067825905673" lon="-0.10151719199747715"><ele>19.0</ele><time>2026-04-06T09:21:56Z</time></trkpt><trkpt lat="45.660562595830584" lon="-0.10129327108844188"><ele>19.0</ele><time>2026-04-06T09:21:57Z</time></trkpt><trkpt lat="45.660419488170625" lon="-0.10106969020936311"><ele>19.0</ele><time>2026-04-06T09:21:58Z</time></trkpt><trkpt lat="45.660303449254684" lon="-0.1008741326977827"><ele>18.666666666666664</ele><time>2026-04-06T09:21:59Z</time></trkpt><trkpt lat="45.660182781196326" lon="-0.10067729454412472"><ele>18.333333333333332</ele><time>2026-04-06T09:22:00Z</time></trkpt><trkpt lat="45.66004223029627" lon="-0.10046779208057738"><ele>18.0</ele><time>2026-04-06T09:22:01Z</time></trkpt><trkpt lat="45.65991466677514" lon="-0.1002601321035495"><ele>18.0</ele><time>2026-04-06T09:22:02Z</time></trkpt><trkpt lat="45.65978851758642" lon="-0.10005480387178252"><ele>18.0</ele><time>2026-04-06T09:22:03Z</time></trkpt><trkpt lat="45.65966738920819" lon="-0.09985242078123083"><ele>18.0</ele><time>2026-04-06T09:22:04Z</time></trkpt><trkpt lat="45.659549976055786" lon="-0.09964713252464352"><ele>18.0</ele><time>2026-04-06T09:22:05Z</time></trkpt><trkpt lat="45.659411888612304" lon="-0.09942674020105596"><ele>18.0</ele><time>2026-04-06T09:22:06Z</time></trkpt><trkpt lat="45.65929115868256" lon="-0.09921860170851027"><ele>18.0</ele><time>2026-04-06T09:22:07Z</time></trkpt><trkpt lat="45.65918011901862" lon="-0.0989973157942461"><ele>18.666666666666668</ele><time>2026-04-06T09:22:08Z</time></trkpt><trkpt lat="45.659058604440524" lon="-0.09875545146384034"><ele>19.333333333333336</ele><time>2026-04-06T09:22:09Z</time></trkpt><trkpt lat="45.65896356996084" lon="-0.09850265532044548"><ele>20.0</ele><time>2026-04-06T09:22:10Z</time></trkpt><trkpt lat="45.658890389029274" lon="-0.0982323248543592"><ele>20.666666666666668</ele><time>2026-04-06T09:22:11Z</time></trkpt><trkpt lat="45.65881424379308" lon="-0.09797475833649866"><ele>21.333333333333332</ele><time>2026-04-06T09:22:12Z</time></trkpt><trkpt lat="45.65875567294439" lon="-0.09771275233185664"><ele>22.0</ele><time>2026-04-06T09:22:13Z</time></trkpt><trkpt lat="45.65868898360566" lon="-0.09745633039309663"><ele>21.666666666666664</ele><time>2026-04-06T09:22:14Z</time></trkpt><trkpt lat="45.65861607082793" lon="-0.09718554898668764"><ele>21.333333333333332</ele><time>2026-04-06T09:22:15Z</time></trkpt><trkpt lat="45.65854355786524" lon="-0.09692975210877658"><ele>21.0</ele><time>2026-04-06T09:22:16Z</time></trkpt><trkpt lat="45.658474454778926" lon="-0.0966796809411708"><ele>21.333333333333332</ele><time>2026-04-06T09:22:17Z</time></trkpt><trkpt lat="45.658404611557025" lon="-0.0964306986147073"><ele>21.666666666666664</ele><time>2026-04-06T09:22:18Z</time></trkpt><trkpt lat="45.658330613709296" lon="-0.09619396044074599"><ele>22.0</ele><time>2026-04-06T09:22:19Z</time></trkpt><trkpt lat="45.658209795160055" lon="-0.09595138056194545"><ele>22.0</ele><time>2026-04-06T09:22:20Z</time></trkpt><trkpt lat="45.65807375794892" lon="-0.0957209613244498"><ele>22.0</ele><time>2026-04-06T09:22:21Z</time></trkpt><trkpt lat="45.65794711226092" lon="-0.09549971394922668"><ele>22.0</ele><time>2026-04-06T09:22:22Z</time></trkpt><trkpt lat="45.65783223349889" lon="-0.09527856997232322"><ele>21.666666666666664</ele><time>2026-04-06T09:22:23Z</time></trkpt><trkpt lat="45.65772521145353" lon="-0.09504355025799266"><ele>21.333333333333332</ele><time>2026-04-06T09:22:24Z</time></trkpt><trkpt lat="45.65760291199428" lon="-0.09482095773162082"><ele>21.0</ele><time>2026-04-06T09:22:25Z</time></trkpt><trkpt lat="45.65747809558671" lon="-0.0946041956346967"><ele>21.0</ele><time>2026-04-06T09:22:26Z</time></trkpt><trkpt lat="45.65735068178678" lon="-0.09437278769248227"><ele>21.0</ele><time>2026-04-06T09:22:27Z</time></trkpt><trkpt lat="45.657230917553186" lon="-0.0941557768066725"><ele>21.0</ele><time>2026-04-06T09:22:28Z</time></trkpt><trkpt lat="45.65711001067536" lon="-0.09393003131712553"><ele>21.333333333333332</ele><time>2026-04-06T09:22:29Z</time></trkpt><trkpt lat="45.65699173374304" lon="-0.09371397776354949"><ele>21.666666666666664</ele><time>2026-04-06T09:22:30Z</time></trkpt><trkpt lat="45.656869446269845" lon="-0.09349384412292447"><ele>22.0</ele><time>2026-04-06T09:22:31Z</time></trkpt><trkpt lat="45.65674989022796" lon="-0.09327369674650923"><ele>21.333333333333332</ele><time>2026-04-06T09:22:32Z</time></trkpt><trkpt lat="45.65663572445692" lon="-0.09305563015477197"><ele>20.666666666666668</ele><time>2026-04-06T09:22:33Z</time></trkpt><trkpt lat="45.656510347878694" lon="-0.09283454175964026"><ele>20.0</ele><time>2026-04-06T09:22:34Z</time></trkpt><trkpt lat="45.65639370501344" lon="-0.09261506317588276"><ele>19.666666666666668</ele><time>2026-04-06T09:22:35Z</time></trkpt><trkpt lat="45.65627847555471" lon="-0.09239698301865236"><ele>19.333333333333332</ele><time>2026-04-06T09:22:36Z</time></trkpt><trkpt lat="45.65616099515226" lon="-0.0921747848273419"><ele>19.0</ele><time>2026-04-06T09:22:37Z</time></trkpt><trkpt lat="45.656048741597644" lon="-0.09194690664463744"><ele>19.0</ele><time>2026-04-06T09:22:38Z</time></trkpt><trkpt lat="45.655954104979436" lon="-0.09170851821869586"><ele>19.0</ele><time>2026-04-06T09:22:39Z</time></trkpt><trkpt lat="45.65587341054838" lon="-0.09145906279667093"><ele>19.0</ele><time>2026-04-06T09:22:40Z</time></trkpt><trkpt lat="45.655818187690045" lon="-0.09118711792840063"><ele>19.333333333333332</ele><time>2026-04-06T09:22:41Z</time></trkpt><trkpt lat="45.655760470915446" lon="-0.09091901760756785"><ele>19.666666666666668</ele><time>2026-04-06T09:22:42Z</time></trkpt><trkpt lat="45.65570214731677" lon="-0.09064916792134087"><ele>20.0</ele><time>2026-04-06T09:22:43Z</time></trkpt><trkpt lat="45.65564108522459" lon="-0.0903742325757444"><ele>20.0</ele><time>2026-04-06T09:22:44Z</time></trkpt><trkpt lat="45.655567229100875" lon="-0.09011522116206695"><ele>20.0</ele><time>2026-04-06T09:22:45Z</time></trkpt><trkpt lat="45.655513335840226" lon="-0.08984645966593678"><ele>20.0</ele><time>2026-04-06T09:22:46Z</time></trkpt><trkpt lat="45.655460254689004" lon="-0.08956652707397157"><ele>19.666666666666668</ele><time>2026-04-06T09:22:47Z</time></trkpt><trkpt lat="45.65539778134886" lon="-0.08930241165072698"><ele>19.333333333333332</ele><time>2026-04-06T09:22:48Z</time></trkpt><trkpt lat="45.65530994655994" lon="-0.08904410801831282"><ele>19.0</ele><time>2026-04-06T09:22:49Z</time></trkpt><trkpt lat="45.6551990680854" lon="-0.08880659711570772"><ele>19.0</ele><time>2026-04-06T09:22:50Z</time></trkpt><trkpt lat="45.65505613859874" lon="-0.08860643747722993"><ele>19.0</ele><time>2026-04-06T09:22:51Z</time></trkpt><trkpt lat="45.654902342571425" lon="-0.08845008834160605"><ele>19.0</ele><time>2026-04-06T09:22:52Z</time></trkpt><trkpt lat="45.65473529100729" lon="-0.08829252636965397"><ele>19.0</ele><time>2026-04-06T09:22:53Z</time></trkpt><trkpt lat="45.654578539116635" lon="-0.08815427413861411"><ele>19.0</ele><time>2026-04-06T09:22:54Z</time></trkpt><trkpt lat="45.65442001044204" lon="-0.08799929389678494"><ele>19.0</ele><time>2026-04-06T09:22:55Z</time></trkpt><trkpt lat="45.65426706009543" lon="-0.08784948138991608"><ele>19.0</ele><time>2026-04-06T09:22:56Z</time></trkpt><trkpt lat="45.65409967665066" lon="-0.08769752625207515"><ele>19.0</ele><time>2026-04-06T09:22:57Z</time></trkpt><trkpt lat="45.65393697167465" lon="-0.08754617831305544"><ele>19.0</ele><time>2026-04-06T09:22:58Z</time></trkpt><trkpt lat="45.65377052220447" lon="-0.08738802245202545"><ele>19.0</ele><time>2026-04-06T09:22:59Z</time></trkpt><trkpt lat="45.65361493258774" lon="-0.08723731583976105"><ele>19.0</ele><time>2026-04-06T09:23:00.001Z</time></trkpt><trkpt lat="45.653452333827886" lon="-0.08708414539150293"><ele>19.0</ele><time>2026-04-06T09:23:01.001Z</time></trkpt><trkpt lat="45.65329712058075" lon="-0.08691833066620785"><ele>19.0</ele><time>2026-04-06T09:23:02.001Z</time></trkpt><trkpt lat="45.65316433236755" lon="-0.08672434678718426"><ele>19.0</ele><time>2026-04-06T09:23:03.001Z</time></trkpt><trkpt lat="45.65304709470302" lon="-0.08651048937160469"><ele>19.0</ele><time>2026-04-06T09:23:04.001Z</time></trkpt><trkpt lat="45.65293845739323" lon="-0.08627513894223174"><ele>19.0</ele><time>2026-04-06T09:23:05.001Z</time></trkpt><trkpt lat="45.652826571583965" lon="-0.08603877190115693"><ele>19.0</ele><time>2026-04-06T09:23:06.001Z</time></trkpt><trkpt lat="45.65272039968993" lon="-0.08580449703731838"><ele>19.0</ele><time>2026-04-06T09:23:07.001Z</time></trkpt><trkpt lat="45.65260868967456" lon="-0.08556554073139754"><ele>19.0</ele><time>2026-04-06T09:23:08.001Z</time></trkpt><trkpt lat="45.652496632874" lon="-0.08533080783502658"><ele>19.0</ele><time>2026-04-06T09:23:09.001Z</time></trkpt><trkpt lat="45.65238463594259" lon="-0.08510151892034358"><ele>19.0</ele><time>2026-04-06T09:23:10.001Z</time></trkpt><trkpt lat="45.65227015738494" lon="-0.08486962439890801"><ele>18.666666666666664</ele><time>2026-04-06T09:23:11.001Z</time></trkpt><trkpt lat="45.65215528909564" lon="-0.08464309507927097"><ele>18.333333333333332</ele><time>2026-04-06T09:23:12.001Z</time></trkpt><trkpt lat="45.65204320501041" lon="-0.08440518582997644"><ele>18.0</ele><time>2026-04-06T09:23:13.001Z</time></trkpt><trkpt lat="45.65194029444086" lon="-0.08416206287548925"><ele>18.0</ele><time>2026-04-06T09:23:14.001Z</time></trkpt><trkpt lat="45.6518682041225" lon="-0.08390353419164573"><ele>18.0</ele><time>2026-04-06T09:23:15.001Z</time></trkpt><trkpt lat="45.65177588579289" lon="-0.08365799754463459"><ele>18.0</ele><time>2026-04-06T09:23:16.001Z</time></trkpt><trkpt lat="45.65169957965707" lon="-0.08340491462185524"><ele>18.333333333333332</ele><time>2026-04-06T09:23:17.001Z</time></trkpt><trkpt lat="45.65162807613536" lon="-0.0831474143068953"><ele>18.666666666666664</ele><time>2026-04-06T09:23:18.001Z</time></trkpt><trkpt lat="45.651552073854255" lon="-0.08289461968473115"><ele>19.0</ele><time>2026-04-06T09:23:19.001Z</time></trkpt><trkpt lat="45.651474167669036" lon="-0.08263859482919474"><ele>19.333333333333332</ele><time>2026-04-06T09:23:20.001Z</time></trkpt><trkpt lat="45.65139760613869" lon="-0.08238553618071462"><ele>19.666666666666668</ele><time>2026-04-06T09:23:21.001Z</time></trkpt><trkpt lat="45.6513225382383" lon="-0.08213079028810158"><ele>20.0</ele><time>2026-04-06T09:23:22.001Z</time></trkpt><trkpt lat="45.65124343733557" lon="-0.08187591153650448"><ele>20.0</ele><time>2026-04-06T09:23:23.001Z</time></trkpt><trkpt lat="45.65116840243122" lon="-0.08162016809679971"><ele>20.0</ele><time>2026-04-06T09:23:24.001Z</time></trkpt><trkpt lat="45.65108959619881" lon="-0.08136320674498096"><ele>20.0</ele><time>2026-04-06T09:23:25.001Z</time></trkpt><trkpt lat="45.65101446454883" lon="-0.08110330484579095"><ele>19.666666666666668</ele><time>2026-04-06T09:23:26.001Z</time></trkpt><trkpt lat="45.65094168653352" lon="-0.0808459756898283"><ele>19.333333333333332</ele><time>2026-04-06T09:23:27.001Z</time></trkpt><trkpt lat="45.650870607138955" lon="-0.08059085482801792"><ele>19.0</ele><time>2026-04-06T09:23:28.001Z</time></trkpt><trkpt lat="45.65081174251782" lon="-0.08031925533651883"><ele>20.0</ele><time>2026-04-06T09:23:29.001Z</time></trkpt><trkpt lat="45.65072720401903" lon="-0.08006922207598277"><ele>21.0</ele><time>2026-04-06T09:23:30.001Z</time></trkpt><trkpt lat="45.65065537313122" lon="-0.07981477128613562"><ele>22.0</ele><time>2026-04-06T09:23:31.001Z</time></trkpt><trkpt lat="45.65058262443625" lon="-0.07956320800892226"><ele>22.666666666666664</ele><time>2026-04-06T09:23:32.001Z</time></trkpt><trkpt lat="45.65050840976821" lon="-0.07930739133618527"><ele>23.333333333333332</ele><time>2026-04-06T09:23:33.001Z</time></trkpt><trkpt lat="45.65045121866413" lon="-0.0790893820312104"><ele>24.0</ele><time>2026-04-06T09:23:34.001Z</time></trkpt><trkpt lat="45.65039383848315" lon="-0.07888218469779643"><ele>24.25</ele><time>2026-04-06T09:23:35.001Z</time></trkpt><trkpt lat="45.65034561608917" lon="-0.0787003175834157"><ele>24.5</ele><time>2026-04-06T09:23:36.001Z</time></trkpt><trkpt lat="45.65029548496312" lon="-0.07851616032775872"><ele>24.75</ele><time>2026-04-06T09:23:37.001Z</time></trkpt><trkpt lat="45.65025097216297" lon="-0.0783546720987379"><ele>25.0</ele><time>2026-04-06T09:23:38Z</time></trkpt><trkpt lat="45.65020537530138" lon="-0.07819497465492425"><ele>25.75</ele><time>2026-04-06T09:23:39Z</time></trkpt><trkpt lat="45.65016165239541" lon="-0.07803684262046547"><ele>26.5</ele><time>2026-04-06T09:23:40Z</time></trkpt><trkpt lat="45.650117515937325" lon="-0.07787150694309808"><ele>27.25</ele><time>2026-04-06T09:23:41Z</time></trkpt><trkpt lat="45.65007361850047" lon="-0.07771314585924259"><ele>28.0</ele><time>2026-04-06T09:23:42Z</time></trkpt><trkpt lat="45.650029133769124" lon="-0.07756351571353341"><ele>28.4</ele><time>2026-04-06T09:23:43Z</time></trkpt><trkpt lat="45.6499869218899" lon="-0.07742232375937849"><ele>28.799999999999997</ele><time>2026-04-06T09:23:44Z</time></trkpt><trkpt lat="45.649944372609" lon="-0.07728767458094012"><ele>29.2</ele><time>2026-04-06T09:23:45Z</time></trkpt><trkpt lat="45.64990616335166" lon="-0.07715341481381009"><ele>29.6</ele><time>2026-04-06T09:23:46Z</time></trkpt><trkpt lat="45.64986864248804" lon="-0.07704105370148696"><ele>30.0</ele><time>2026-04-06T09:23:47Z</time></trkpt><trkpt lat="45.64983588685802" lon="-0.07693572672099033"><ele>30.0</ele><time>2026-04-06T09:23:48Z</time></trkpt><trkpt lat="45.64979194055106" lon="-0.07681953847278816"><ele>30.0</ele><time>2026-04-06T09:23:49Z</time></trkpt><trkpt lat="45.6497363422023" lon="-0.07670717207605278"><ele>30.0</ele><time>2026-04-06T09:23:50Z</time></trkpt><trkpt lat="45.64968551001445" lon="-0.07659225985125245"><ele>30.0</ele><time>2026-04-06T09:23:51Z</time></trkpt><trkpt lat="45.649647351863145" lon="-0.07646258697839803"><ele>30.0</ele><time>2026-04-06T09:23:52Z</time></trkpt><trkpt lat="45.64961446156563" lon="-0.07633298478357452"><ele>30.0</ele><time>2026-04-06T09:23:53Z</time></trkpt><trkpt lat="45.6495756037893" lon="-0.07619717834627499"><ele>30.0</ele><time>2026-04-06T09:23:54Z</time></trkpt><trkpt lat="45.649535834278986" lon="-0.07608115091232921"><ele>30.0</ele><time>2026-04-06T09:23:55Z</time></trkpt><trkpt lat="45.64949587481915" lon="-0.07596788412818921"><ele>30.0</ele><time>2026-04-06T09:23:56Z</time></trkpt><trkpt lat="45.64944745341131" lon="-0.07585812907834975"><ele>30.0</ele><time>2026-04-06T09:23:57Z</time></trkpt><trkpt lat="45.649379374500135" lon="-0.07576768702318606"><ele>29.5</ele><time>2026-04-06T09:23:58Z</time></trkpt><trkpt lat="45.64931347601571" lon="-0.07568475988580457"><ele>29.0</ele><time>2026-04-06T09:23:59Z</time></trkpt><trkpt lat="45.649255359346" lon="-0.07560678970654089"><ele>28.5</ele><time>2026-04-06T09:24:00Z</time></trkpt><trkpt lat="45.649220239769015" lon="-0.07549962636341051"><ele>28.0</ele><time>2026-04-06T09:24:01Z</time></trkpt><trkpt lat="45.64921457657051" lon="-0.0753747716098356"><ele>27.5</ele><time>2026-04-06T09:24:02Z</time></trkpt><trkpt lat="45.64921302364223" lon="-0.07523507529934223"><ele>27.0</ele><time>2026-04-06T09:24:03Z</time></trkpt><trkpt lat="45.64919820203976" lon="-0.07508668746490697"><ele>26.75</ele><time>2026-04-06T09:24:04Z</time></trkpt><trkpt lat="45.649180576248995" lon="-0.07493504247116424"><ele>26.5</ele><time>2026-04-06T09:24:05Z</time></trkpt><trkpt lat="45.64916913251397" lon="-0.0747771256475359"><ele>26.25</ele><time>2026-04-06T09:24:06Z</time></trkpt><trkpt lat="45.649163929451895" lon="-0.07460553161369253"><ele>26.0</ele><time>2026-04-06T09:24:07Z</time></trkpt><trkpt lat="45.64916445971654" lon="-0.07444112796345898"><ele>26.0</ele><time>2026-04-06T09:24:08Z</time></trkpt><trkpt lat="45.64915490743451" lon="-0.07428444205623577"><ele>26.0</ele><time>2026-04-06T09:24:09Z</time></trkpt><trkpt lat="45.64914020342269" lon="-0.07414142888667359"><ele>26.0</ele><time>2026-04-06T09:24:10Z</time></trkpt><trkpt lat="45.64912496847379" lon="-0.07400532027414343"><ele>26.0</ele><time>2026-04-06T09:24:11Z</time></trkpt><trkpt lat="45.64910128592555" lon="-0.07387555315792238"><ele>26.0</ele><time>2026-04-06T09:24:12Z</time></trkpt><trkpt lat="45.6490503533926" lon="-0.07376796609538479"><ele>25.6</ele><time>2026-04-06T09:24:13Z</time></trkpt><trkpt lat="45.64897975209813" lon="-0.07368327150786917"><ele>25.200000000000003</ele><time>2026-04-06T09:24:14Z</time></trkpt><trkpt lat="45.6488882655161" lon="-0.07362382546779239"><ele>24.799999999999997</ele><time>2026-04-06T09:24:15Z</time></trkpt><trkpt lat="45.64878818067028" lon="-0.07358395347316611"><ele>24.4</ele><time>2026-04-06T09:24:16Z</time></trkpt><trkpt lat="45.64867965385775" lon="-0.0735381626808291"><ele>24.0</ele><time>2026-04-06T09:24:17Z</time></trkpt><trkpt lat="45.648565675906134" lon="-0.07348163058086973"><ele>24.0</ele><time>2026-04-06T09:24:18Z</time></trkpt><trkpt lat="45.6484421249586" lon="-0.07342424784638577"><ele>24.0</ele><time>2026-04-06T09:24:19Z</time></trkpt><trkpt lat="45.64831834626659" lon="-0.07335971191359394"><ele>24.0</ele><time>2026-04-06T09:24:20Z</time></trkpt><trkpt lat="45.648214614148294" lon="-0.07328041112628142"><ele>24.0</ele><time>2026-04-06T09:24:21Z</time></trkpt><trkpt lat="45.648122577053016" lon="-0.07316811377598124"><ele>24.0</ele><time>2026-04-06T09:24:22Z</time></trkpt><trkpt lat="45.64805358635639" lon="-0.07303257502796717"><ele>24.0</ele><time>2026-04-06T09:24:23Z</time></trkpt><trkpt lat="45.64800376442433" lon="-0.07286909701612251"><ele>24.0</ele><time>2026-04-06T09:24:24Z</time></trkpt><trkpt lat="45.6479637371214" lon="-0.07268522531717468"><ele>24.0</ele><time>2026-04-06T09:24:25Z</time></trkpt><trkpt lat="45.64792639745741" lon="-0.07248742057314933"><ele>24.333333333333336</ele><time>2026-04-06T09:24:26Z</time></trkpt><trkpt lat="45.64788488935915" lon="-0.07228913036898837"><ele>24.666666666666668</ele><time>2026-04-06T09:24:27Z</time></trkpt><trkpt lat="45.64782157752875" lon="-0.07208826777017203"><ele>25.0</ele><time>2026-04-06T09:24:28Z</time></trkpt><trkpt lat="45.647751142818116" lon="-0.07187839804098888"><ele>23.333333333333336</ele><time>2026-04-06T09:24:29Z</time></trkpt><trkpt lat="45.64767436405519" lon="-0.07165444884394223"><ele>21.666666666666668</ele><time>2026-04-06T09:24:30Z</time></trkpt><trkpt lat="45.64759503140474" lon="-0.07143579368568134"><ele>20.0</ele><time>2026-04-06T09:24:31Z</time></trkpt><trkpt lat="45.64751528273656" lon="-0.07120669062154471"><ele>20.0</ele><time>2026-04-06T09:24:32Z</time></trkpt><trkpt lat="45.64742951238768" lon="-0.07097326206738011"><ele>20.0</ele><time>2026-04-06T09:24:33Z</time></trkpt><trkpt lat="45.64733690541809" lon="-0.07072365199438348"><ele>20.0</ele><time>2026-04-06T09:24:34Z</time></trkpt><trkpt lat="45.647250269350224" lon="-0.0705001683222293"><ele>20.0</ele><time>2026-04-06T09:24:35Z</time></trkpt><trkpt lat="45.647163853683914" lon="-0.07026581004985394"><ele>20.0</ele><time>2026-04-06T09:24:36Z</time></trkpt><trkpt lat="45.64707894890386" lon="-0.07003270690077888"><ele>20.0</ele><time>2026-04-06T09:24:37Z</time></trkpt><trkpt lat="45.64698886294759" lon="-0.06979498554136995"><ele>20.0</ele><time>2026-04-06T09:24:38Z</time></trkpt><trkpt lat="45.64689579647015" lon="-0.06955915916633033"><ele>20.0</ele><time>2026-04-06T09:24:39Z</time></trkpt><trkpt lat="45.64680182108319" lon="-0.06932394356578522"><ele>20.0</ele><time>2026-04-06T09:24:40Z</time></trkpt><trkpt lat="45.64669980330223" lon="-0.06909045113419349"><ele>20.0</ele><time>2026-04-06T09:24:41Z</time></trkpt><trkpt lat="45.64659222846683" lon="-0.06885497377245181"><ele>20.0</ele><time>2026-04-06T09:24:42Z</time></trkpt><trkpt lat="45.64647914304172" lon="-0.06862859080033606"><ele>20.0</ele><time>2026-04-06T09:24:43Z</time></trkpt><trkpt lat="45.646372525351495" lon="-0.0684040351726457"><ele>20.666666666666668</ele><time>2026-04-06T09:24:44Z</time></trkpt><trkpt lat="45.64626009302458" lon="-0.06816473457719668"><ele>21.333333333333332</ele><time>2026-04-06T09:24:45Z</time></trkpt><trkpt lat="45.64615194120143" lon="-0.06794693639249337"><ele>22.0</ele><time>2026-04-06T09:24:46Z</time></trkpt><trkpt lat="45.64604199642759" lon="-0.06772539018091983"><ele>20.666666666666664</ele><time>2026-04-06T09:24:47Z</time></trkpt><trkpt lat="45.64594065440704" lon="-0.0675004165028661"><ele>19.333333333333332</ele><time>2026-04-06T09:24:48Z</time></trkpt><trkpt lat="45.6458330631258" lon="-0.06728349958326653"><ele>18.0</ele><time>2026-04-06T09:24:49Z</time></trkpt><trkpt lat="45.64571489660764" lon="-0.0670851204538127"><ele>18.0</ele><time>2026-04-06T09:24:50Z</time></trkpt><trkpt lat="45.64559528395429" lon="-0.0668943206568062"><ele>18.0</ele><time>2026-04-06T09:24:51Z</time></trkpt><trkpt lat="45.645447577188364" lon="-0.06672519407721195"><ele>18.0</ele><time>2026-04-06T09:24:52Z</time></trkpt><trkpt lat="45.64529223111515" lon="-0.06656995074107984"><ele>18.333333333333332</ele><time>2026-04-06T09:24:53Z</time></trkpt><trkpt lat="45.64514308764369" lon="-0.06641380729504746"><ele>18.666666666666664</ele><time>2026-04-06T09:24:54Z</time></trkpt><trkpt lat="45.64499637621525" lon="-0.06626610531838284"><ele>19.0</ele><time>2026-04-06T09:24:55Z</time></trkpt><trkpt lat="45.644841694562835" lon="-0.0661176631492679"><ele>19.0</ele><time>2026-04-06T09:24:56Z</time></trkpt><trkpt lat="45.64469660191088" lon="-0.06597159694675263"><ele>19.0</ele><time>2026-04-06T09:24:57Z</time></trkpt><trkpt lat="45.64456501493899" lon="-0.0658335075411504"><ele>19.0</ele><time>2026-04-06T09:24:58Z</time></trkpt><trkpt lat="45.64443427276945" lon="-0.0657079600246301"><ele>19.25</ele><time>2026-04-06T09:24:59Z</time></trkpt><trkpt lat="45.64431493566112" lon="-0.0655948035688079"><ele>19.5</ele><time>2026-04-06T09:25:00Z</time></trkpt><trkpt lat="45.64420138992156" lon="-0.0654718760815322"><ele>19.75</ele><time>2026-04-06T09:25:01.001Z</time></trkpt><trkpt lat="45.64408639468238" lon="-0.06534691135578753"><ele>20.0</ele><time>2026-04-06T09:25:02.001Z</time></trkpt><trkpt lat="45.643980353288484" lon="-0.06522110905570118"><ele>20.0</ele><time>2026-04-06T09:25:03.001Z</time></trkpt><trkpt lat="45.643876012693454" lon="-0.06512072117376992"><ele>20.0</ele><time>2026-04-06T09:25:04.001Z</time></trkpt><trkpt lat="45.64377595334362" lon="-0.06503356012599215"><ele>20.0</ele><time>2026-04-06T09:25:05.001Z</time></trkpt><trkpt lat="45.6436814349096" lon="-0.06493118844320782"><ele>20.0</ele><time>2026-04-06T09:25:06.001Z</time></trkpt><trkpt lat="45.64358719854749" lon="-0.06485273482724978"><ele>20.0</ele><time>2026-04-06T09:25:07.001Z</time></trkpt><trkpt lat="45.64351155624452" lon="-0.06474970520146711"><ele>20.0</ele><time>2026-04-06T09:25:08.001Z</time></trkpt><trkpt lat="45.643438087163574" lon="-0.06463160908798389"><ele>20.0</ele><time>2026-04-06T09:25:09.001Z</time></trkpt><trkpt lat="45.64337535552497" lon="-0.06450559579808837"><ele>20.0</ele><time>2026-04-06T09:25:10.001Z</time></trkpt><trkpt lat="45.64329885195772" lon="-0.06439026823141411"><ele>20.0</ele><time>2026-04-06T09:25:11.001Z</time></trkpt><trkpt lat="45.64322297445136" lon="-0.06428952388351901"><ele>20.0</ele><time>2026-04-06T09:25:12.001Z</time></trkpt><trkpt lat="45.64315944588908" lon="-0.06419116651547217"><ele>20.0</ele><time>2026-04-06T09:25:13.001Z</time></trkpt><trkpt lat="45.64309423652377" lon="-0.06410989956969747"><ele>20.0</ele><time>2026-04-06T09:25:14.001Z</time></trkpt><trkpt lat="45.64299284726747" lon="-0.06398985940620137"><ele>20.0</ele><time>2026-04-06T09:25:16.001Z</time></trkpt><trkpt lat="45.6429792318655" lon="-0.06387723082688024"><ele>20.0</ele><time>2026-04-06T09:25:18.001Z</time></trkpt><trkpt lat="45.64308457591655" lon="-0.06378079110698684"><ele>20.0</ele><time>2026-04-06T09:25:19.001Z</time></trkpt><trkpt lat="45.64316402694221" lon="-0.06370775150564714"><ele>20.0</ele><time>2026-04-06T09:25:20.001Z</time></trkpt><trkpt lat="45.64324809841452" lon="-0.06362652646106959"><ele>20.0</ele><time>2026-04-06T09:25:21.001Z</time></trkpt><trkpt lat="45.64332477867701" lon="-0.06351705453801657"><ele>20.0</ele><time>2026-04-06T09:25:22.001Z</time></trkpt><trkpt lat="45.64340224422869" lon="-0.06339601383148205"><ele>20.0</ele><time>2026-04-06T09:25:23.001Z</time></trkpt><trkpt lat="45.643474872052316" lon="-0.0632655881277352"><ele>20.0</ele><time>2026-04-06T09:25:24.001Z</time></trkpt><trkpt lat="45.643555406471826" lon="-0.06312859958882612"><ele>20.0</ele><time>2026-04-06T09:25:25.001Z</time></trkpt><trkpt lat="45.64362944308113" lon="-0.06298909042434304"><ele>20.0</ele><time>2026-04-06T09:25:26.001Z</time></trkpt><trkpt lat="45.64370814772088" lon="-0.06285918322995913"><ele>20.0</ele><time>2026-04-06T09:25:27.001Z</time></trkpt><trkpt lat="45.643783448297164" lon="-0.06271655561023416"><ele>20.75</ele><time>2026-04-06T09:25:28.001Z</time></trkpt><trkpt lat="45.64386121256073" lon="-0.06256426050007162"><ele>21.5</ele><time>2026-04-06T09:25:29.001Z</time></trkpt><trkpt lat="45.64394791709499" lon="-0.06239716886478851"><ele>22.25</ele><time>2026-04-06T09:25:30.001Z</time></trkpt><trkpt lat="45.64403173441911" lon="-0.0622266396693899"><ele>23.0</ele><time>2026-04-06T09:25:31.001Z</time></trkpt><trkpt lat="45.64412416642229" lon="-0.06203938431881713"><ele>23.666666666666668</ele><time>2026-04-06T09:25:32.001Z</time></trkpt><trkpt lat="45.64422711345902" lon="-0.06183676474572225"><ele>24.333333333333336</ele><time>2026-04-06T09:25:33.001Z</time></trkpt><trkpt lat="45.64434419465418" lon="-0.06162838941549486"><ele>25.0</ele><time>2026-04-06T09:25:34.001Z</time></trkpt><trkpt lat="45.6444376015506" lon="-0.06144387194864132"><ele>25.8</ele><time>2026-04-06T09:25:35.001Z</time></trkpt><trkpt lat="45.64452266628969" lon="-0.06128068246096103"><ele>26.6</ele><time>2026-04-06T09:25:36.001Z</time></trkpt><trkpt lat="45.64458548113542" lon="-0.06114739007570195"><ele>27.4</ele><time>2026-04-06T09:25:37.001Z</time></trkpt><trkpt lat="45.64464064325605" lon="-0.06104117138669322"><ele>28.2</ele><time>2026-04-06T09:25:38.001Z</time></trkpt><trkpt lat="45.64467883213963" lon="-0.060957786321365524"><ele>29.0</ele><time>2026-04-06T09:25:39.001Z</time></trkpt><trkpt lat="45.644698188226954" lon="-0.060840722374344264"><ele>29.2</ele><time>2026-04-06T09:25:41.001Z</time></trkpt><trkpt lat="45.64460453138624" lon="-0.06071415261317379"><ele>29.4</ele><time>2026-04-06T09:25:43.001Z</time></trkpt><trkpt lat="45.644549480543894" lon="-0.06066967226162867"><ele>29.6</ele><time>2026-04-06T09:25:44Z</time></trkpt><trkpt lat="45.64447984914718" lon="-0.060555940474503245"><ele>29.8</ele><time>2026-04-06T09:25:46Z</time></trkpt><trkpt lat="45.64452593954206" lon="-0.060407337300918476"><ele>30.0</ele><time>2026-04-06T09:25:47Z</time></trkpt><trkpt lat="45.64455481318363" lon="-0.06028820334202005"><ele>30.0</ele><time>2026-04-06T09:25:48Z</time></trkpt><trkpt lat="45.64458150937051" lon="-0.06014479903932174"><ele>30.0</ele><time>2026-04-06T09:25:49Z</time></trkpt><trkpt lat="45.644578549854344" lon="-0.05995682370084392"><ele>30.0</ele><time>2026-04-06T09:25:50Z</time></trkpt><trkpt lat="45.64455085252908" lon="-0.05972580068832578"><ele>30.0</ele><time>2026-04-06T09:25:51Z</time></trkpt><trkpt lat="45.64452007858636" lon="-0.05942807073660598"><ele>28.5</ele><time>2026-04-06T09:25:52Z</time></trkpt><trkpt lat="45.64449366338719" lon="-0.059077768898078774"><ele>27.0</ele><time>2026-04-06T09:25:53Z</time></trkpt><trkpt lat="45.64446364843883" lon="-0.05869628656837196"><ele>26.666666666666664</ele><time>2026-04-06T09:25:54Z</time></trkpt><trkpt lat="45.64443479402984" lon="-0.05836930253811172"><ele>26.333333333333332</ele><time>2026-04-06T09:25:55Z</time></trkpt><trkpt lat="45.644410623297176" lon="-0.058068151067037346"><ele>26.0</ele><time>2026-04-06T09:25:56Z</time></trkpt><trkpt lat="45.64438289922047" lon="-0.05776113107203551"><ele>25.333333333333332</ele><time>2026-04-06T09:25:57Z</time></trkpt><trkpt lat="45.64433359025487" lon="-0.05747159890430294"><ele>24.666666666666664</ele><time>2026-04-06T09:25:58Z</time></trkpt><trkpt lat="45.644243267700325" lon="-0.0572105010546969"><ele>24.0</ele><time>2026-04-06T09:25:59Z</time></trkpt><trkpt lat="45.644118812222224" lon="-0.05694469220242392"><ele>23.5</ele><time>2026-04-06T09:26:00Z</time></trkpt><trkpt lat="45.643976256236535" lon="-0.05666962532562899"><ele>23.0</ele><time>2026-04-06T09:26:01Z</time></trkpt><trkpt lat="45.64381666205917" lon="-0.056362573070809996"><ele>24.5</ele><time>2026-04-06T09:26:02Z</time></trkpt><trkpt lat="45.643656461863195" lon="-0.05602357080130777"><ele>26.0</ele><time>2026-04-06T09:26:03Z</time></trkpt><trkpt lat="45.64349365804174" lon="-0.05569351081825746"><ele>27.0</ele><time>2026-04-06T09:26:04Z</time></trkpt><trkpt lat="45.643326557610436" lon="-0.055345336658569846"><ele>28.0</ele><time>2026-04-06T09:26:05Z</time></trkpt><trkpt lat="45.64315086228229" lon="-0.05498438395798989"><ele>29.0</ele><time>2026-04-06T09:26:06Z</time></trkpt><trkpt lat="45.64298299687363" lon="-0.054631886957448125"><ele>30.0</ele><time>2026-04-06T09:26:07Z</time></trkpt><trkpt lat="45.64281822927387" lon="-0.05429705462481547"><ele>31.5</ele><time>2026-04-06T09:26:08Z</time></trkpt><trkpt lat="45.64266796648444" lon="-0.0539806443928781"><ele>33.0</ele><time>2026-04-06T09:26:09Z</time></trkpt><trkpt lat="45.642534460718565" lon="-0.053697279076993926"><ele>33.0</ele><time>2026-04-06T09:26:10Z</time></trkpt><trkpt lat="45.64240531750479" lon="-0.05344113257791696"><ele>33.0</ele><time>2026-04-06T09:26:11Z</time></trkpt><trkpt lat="45.6422821571174" lon="-0.05319050885893232"><ele>33.0</ele><time>2026-04-06T09:26:12Z</time></trkpt><trkpt lat="45.642167310328894" lon="-0.05295568189811621"><ele>34.666666666666664</ele><time>2026-04-06T09:26:13Z</time></trkpt><trkpt lat="45.642067907604165" lon="-0.05274810322859804"><ele>36.33333333333333</ele><time>2026-04-06T09:26:14Z</time></trkpt><trkpt lat="45.641977989522665" lon="-0.05256157760321547"><ele>38.0</ele><time>2026-04-06T09:26:15Z</time></trkpt><trkpt lat="45.6418933547442" lon="-0.05238568204741148"><ele>38.8</ele><time>2026-04-06T09:26:16Z</time></trkpt><trkpt lat="45.64183277726413" lon="-0.052235517448937854"><ele>39.599999999999994</ele><time>2026-04-06T09:26:17Z</time></trkpt><trkpt lat="45.64181449148708" lon="-0.05209530426902339"><ele>40.400000000000006</ele><time>2026-04-06T09:26:18Z</time></trkpt><trkpt lat="45.64183076167031" lon="-0.051957487392097775"><ele>41.2</ele><time>2026-04-06T09:26:19Z</time></trkpt><trkpt lat="45.641886382313174" lon="-0.05182479078515333"><ele>42.0</ele><time>2026-04-06T09:26:20Z</time></trkpt><trkpt lat="45.6419807769643" lon="-0.05171526537753904"><ele>44.33333333333333</ele><time>2026-04-06T09:26:21Z</time></trkpt><trkpt lat="45.6421046190099" lon="-0.051608108268642296"><ele>46.666666666666664</ele><time>2026-04-06T09:26:22Z</time></trkpt><trkpt lat="45.64225928567058" lon="-0.05148976415735021"><ele>49.0</ele><time>2026-04-06T09:26:23Z</time></trkpt><trkpt lat="45.64242358049185" lon="-0.05134662739803874"><ele>49.0</ele><time>2026-04-06T09:26:24Z</time></trkpt><trkpt lat="45.64259238829157" lon="-0.05119490394391413"><ele>49.0</ele><time>2026-04-06T09:26:25Z</time></trkpt><trkpt lat="45.64275028626423" lon="-0.05104399660546259"><ele>49.0</ele><time>2026-04-06T09:26:26Z</time></trkpt><trkpt lat="45.64287718331756" lon="-0.05089074461885805"><ele>48.0</ele><time>2026-04-06T09:26:27Z</time></trkpt><trkpt lat="45.642981596401256" lon="-0.050731735371388205"><ele>47.0</ele><time>2026-04-06T09:26:28Z</time></trkpt><trkpt lat="45.64306361385689" lon="-0.05055049375985153"><ele>46.0</ele><time>2026-04-06T09:26:29Z</time></trkpt><trkpt lat="45.64312600016471" lon="-0.05033338924181055"><ele>46.0</ele><time>2026-04-06T09:26:30Z</time></trkpt><trkpt lat="45.643161997236476" lon="-0.0500851864909162"><ele>46.0</ele><time>2026-04-06T09:26:31Z</time></trkpt><trkpt lat="45.643189000282526" lon="-0.049811754118114004"><ele>46.0</ele><time>2026-04-06T09:26:32Z</time></trkpt><trkpt lat="45.643204251380176" lon="-0.04952164839109139"><ele>47.333333333333336</ele><time>2026-04-06T09:26:33Z</time></trkpt><trkpt lat="45.64323001510197" lon="-0.04920678917309085"><ele>48.66666666666667</ele><time>2026-04-06T09:26:34Z</time></trkpt><trkpt lat="45.64326056986283" lon="-0.04889149293933113"><ele>50.0</ele><time>2026-04-06T09:26:35Z</time></trkpt><trkpt lat="45.64327963157181" lon="-0.048607210423538175"><ele>50.66666666666667</ele><time>2026-04-06T09:26:36Z</time></trkpt><trkpt lat="45.64330917758975" lon="-0.048347537901406376"><ele>51.33333333333333</ele><time>2026-04-06T09:26:37Z</time></trkpt><trkpt lat="45.64332588625402" lon="-0.04810908433184515"><ele>52.0</ele><time>2026-04-06T09:26:38Z</time></trkpt><trkpt lat="45.64330910738462" lon="-0.04786851072715316"><ele>53.33333333333333</ele><time>2026-04-06T09:26:39Z</time></trkpt><trkpt lat="45.64325112067882" lon="-0.04764791901532988"><ele>54.66666666666667</ele><time>2026-04-06T09:26:40Z</time></trkpt><trkpt lat="45.643172808742186" lon="-0.04746014602860044"><ele>56.0</ele><time>2026-04-06T09:26:41Z</time></trkpt><trkpt lat="45.64305950135729" lon="-0.047273365054574475"><ele>57.66666666666667</ele><time>2026-04-06T09:26:42Z</time></trkpt><trkpt lat="45.642915229555385" lon="-0.04708912402949349"><ele>59.33333333333333</ele><time>2026-04-06T09:26:43Z</time></trkpt><trkpt lat="45.64274973544257" lon="-0.046880835636146416"><ele>61.0</ele><time>2026-04-06T09:26:44Z</time></trkpt><trkpt lat="45.642585382766086" lon="-0.04666188389725732"><ele>63.0</ele><time>2026-04-06T09:26:45Z</time></trkpt><trkpt lat="45.642432220709836" lon="-0.046458532192909366"><ele>65.0</ele><time>2026-04-06T09:26:46Z</time></trkpt><trkpt lat="45.64230728524841" lon="-0.04626617498161369"><ele>67.0</ele><time>2026-04-06T09:26:47Z</time></trkpt><trkpt lat="45.64215636663776" lon="-0.04618429095214853"><ele>67.0</ele><time>2026-04-06T09:26:48Z</time></trkpt><trkpt lat="45.64198868835885" lon="-0.046089283917735126"><ele>67.0</ele><time>2026-04-06T09:26:49Z</time></trkpt><trkpt lat="45.641783925852295" lon="-0.046012572034010234"><ele>67.0</ele><time>2026-04-06T09:26:50Z</time></trkpt><trkpt lat="45.64157363894175" lon="-0.045972316168143554"><ele>67.66666666666666</ele><time>2026-04-06T09:26:51Z</time></trkpt><trkpt lat="45.64134964331224" lon="-0.04591287291939991"><ele>68.33333333333333</ele><time>2026-04-06T09:26:52Z</time></trkpt><trkpt lat="45.64114584148956" lon="-0.04585514363014161"><ele>69.0</ele><time>2026-04-06T09:26:53Z</time></trkpt><trkpt lat="45.64097926457535" lon="-0.04580635602553493"><ele>70.0</ele><time>2026-04-06T09:26:54Z</time></trkpt><trkpt lat="45.64083118684638" lon="-0.04574660044431159"><ele>71.0</ele><time>2026-04-06T09:26:55Z</time></trkpt><trkpt lat="45.64070297340235" lon="-0.0456638404245346"><ele>72.0</ele><time>2026-04-06T09:26:56Z</time></trkpt><trkpt lat="45.64059483681449" lon="-0.04554175761982358"><ele>73.0</ele><time>2026-04-06T09:26:57Z</time></trkpt><trkpt lat="45.64050218548853" lon="-0.045374855779265255"><ele>73.0</ele><time>2026-04-06T09:26:58Z</time></trkpt><trkpt lat="45.64043569457903" lon="-0.04518114780332301"><ele>73.0</ele><time>2026-04-06T09:26:59Z</time></trkpt><trkpt lat="45.640389182994404" lon="-0.04493812136631659"><ele>73.0</ele><time>2026-04-06T09:27:00Z</time></trkpt><trkpt lat="45.64036893256946" lon="-0.044694219492241075"><ele>73.0</ele><time>2026-04-06T09:27:01Z</time></trkpt><trkpt lat="45.640326401831594" lon="-0.044436207017068366"><ele>73.0</ele><time>2026-04-06T09:27:02Z</time></trkpt><trkpt lat="45.64027177690905" lon="-0.04417099506098824"><ele>73.0</ele><time>2026-04-06T09:27:03Z</time></trkpt><trkpt lat="45.64021435937212" lon="-0.04388819309219477"><ele>73.0</ele><time>2026-04-06T09:27:04Z</time></trkpt><trkpt lat="45.64015976466064" lon="-0.043603944135943234"><ele>73.0</ele><time>2026-04-06T09:27:05Z</time></trkpt><trkpt lat="45.64010543121856" lon="-0.04331223319520622"><ele>73.0</ele><time>2026-04-06T09:27:06Z</time></trkpt><trkpt lat="45.640053011778484" lon="-0.04300426646464871"><ele>73.66666666666666</ele><time>2026-04-06T09:27:07Z</time></trkpt><trkpt lat="45.63998940935581" lon="-0.042698823717529616"><ele>74.33333333333333</ele><time>2026-04-06T09:27:08Z</time></trkpt><trkpt lat="45.63993546541131" lon="-0.04239244256134118"><ele>75.0</ele><time>2026-04-06T09:27:09Z</time></trkpt><trkpt lat="45.63988233894633" lon="-0.042093438750633524"><ele>75.33333333333333</ele><time>2026-04-06T09:27:10Z</time></trkpt><trkpt lat="45.639823880270285" lon="-0.04178930851184947"><ele>75.66666666666666</ele><time>2026-04-06T09:27:11Z</time></trkpt><trkpt lat="45.63976355240107" lon="-0.04148756459073163"><ele>76.0</ele><time>2026-04-06T09:27:12Z</time></trkpt><trkpt lat="45.63970680193023" lon="-0.04117839976977406"><ele>76.0</ele><time>2026-04-06T09:27:13Z</time></trkpt><trkpt lat="45.6396477832421" lon="-0.0408674486560018"><ele>76.0</ele><time>2026-04-06T09:27:14Z</time></trkpt><trkpt lat="45.63958751971374" lon="-0.040552607591185924"><ele>76.66666666666666</ele><time>2026-04-06T09:27:15Z</time></trkpt><trkpt lat="45.63952518463369" lon="-0.040239840208980575"><ele>77.33333333333333</ele><time>2026-04-06T09:27:16Z</time></trkpt><trkpt lat="45.639469509610606" lon="-0.03993254427857006"><ele>78.0</ele><time>2026-04-06T09:27:17Z</time></trkpt><trkpt lat="45.63941463209434" lon="-0.03961404395052152"><ele>79.0</ele><time>2026-04-06T09:27:18Z</time></trkpt><trkpt lat="45.63935538970066" lon="-0.03930029467771547"><ele>80.0</ele><time>2026-04-06T09:27:19Z</time></trkpt><trkpt lat="45.639292235048444" lon="-0.038990447569659255"><ele>80.0</ele><time>2026-04-06T09:27:20Z</time></trkpt><trkpt lat="45.63923902524046" lon="-0.038685381111874514"><ele>80.0</ele><time>2026-04-06T09:27:21Z</time></trkpt><trkpt lat="45.63917810846687" lon="-0.038379779465691634"><ele>80.0</ele><time>2026-04-06T09:27:22Z</time></trkpt><trkpt lat="45.639117124227994" lon="-0.03806236636687147"><ele>80.66666666666667</ele><time>2026-04-06T09:27:23Z</time></trkpt><trkpt lat="45.63905797948151" lon="-0.03774673872035591"><ele>81.33333333333333</ele><time>2026-04-06T09:27:24Z</time></trkpt><trkpt lat="45.63900159274226" lon="-0.03744466816480225"><ele>82.0</ele><time>2026-04-06T09:27:25Z</time></trkpt><trkpt lat="45.638950874405445" lon="-0.0371722516010998"><ele>82.33333333333333</ele><time>2026-04-06T09:27:26Z</time></trkpt><trkpt lat="45.63889823568749" lon="-0.036921844421946605"><ele>82.66666666666667</ele><time>2026-04-06T09:27:27Z</time></trkpt><trkpt lat="45.63885183460643" lon="-0.03668363855554863"><ele>83.0</ele><time>2026-04-06T09:27:28Z</time></trkpt><trkpt lat="45.63881216392868" lon="-0.036457677041347246"><ele>83.33333333333334</ele><time>2026-04-06T09:27:29Z</time></trkpt><trkpt lat="45.6387769508301" lon="-0.03623577074776379"><ele>83.66666666666667</ele><time>2026-04-06T09:27:30Z</time></trkpt><trkpt lat="45.63873549329266" lon="-0.036024144223057476"><ele>84.0</ele><time>2026-04-06T09:27:31Z</time></trkpt><trkpt lat="45.63869604101763" lon="-0.03580902411618521"><ele>83.5</ele><time>2026-04-06T09:27:32Z</time></trkpt><trkpt lat="45.63865847093718" lon="-0.03560221642932567"><ele>83.0</ele><time>2026-04-06T09:27:33Z</time></trkpt><trkpt lat="45.63861986000941" lon="-0.035403696874414754"><ele>82.5</ele><time>2026-04-06T09:27:34Z</time></trkpt><trkpt lat="45.63858458167733" lon="-0.035208345214391965"><ele>82.0</ele><time>2026-04-06T09:27:35Z</time></trkpt><trkpt lat="45.6385519304465" lon="-0.0350194347742639"><ele>81.5</ele><time>2026-04-06T09:27:36Z</time></trkpt><trkpt lat="45.638518867083064" lon="-0.03484041008032228"><ele>81.0</ele><time>2026-04-06T09:27:37.001Z</time></trkpt><trkpt lat="45.63848623738056" lon="-0.034671241983937486"><ele>80.5</ele><time>2026-04-06T09:27:38.001Z</time></trkpt><trkpt lat="45.63845204858847" lon="-0.034500020678155906"><ele>80.0</ele><time>2026-04-06T09:27:39.001Z</time></trkpt><trkpt lat="45.63842514348889" lon="-0.034349176128988704"><ele>80.0</ele><time>2026-04-06T09:27:40.001Z</time></trkpt><trkpt lat="45.638402159927885" lon="-0.03423073162602864"><ele>80.0</ele><time>2026-04-06T09:27:41.001Z</time></trkpt><trkpt lat="45.638377938739204" lon="-0.034141956992550467"><ele>80.0</ele><time>2026-04-06T09:27:42.001Z</time></trkpt><trkpt lat="45.63835483271592" lon="-0.034034843626481674"><ele>80.0</ele><time>2026-04-06T09:27:44.001Z</time></trkpt><trkpt lat="45.63833168492251" lon="-0.03393534235742589"><ele>80.0</ele><time>2026-04-06T09:27:46.001Z</time></trkpt><trkpt lat="45.638320005485085" lon="-0.033844569739385565"><ele>80.0</ele><time>2026-04-06T09:27:48.001Z</time></trkpt><trkpt lat="45.63827360681756" lon="-0.03371712777403865"><ele>80.25</ele><time>2026-04-06T09:27:49.001Z</time></trkpt><trkpt lat="45.638251017199785" lon="-0.033587331591737365"><ele>80.5</ele><time>2026-04-06T09:27:50Z</time></trkpt><trkpt lat="45.63820697843072" lon="-0.03343969429509625"><ele>80.75</ele><time>2026-04-06T09:27:51Z</time></trkpt><trkpt lat="45.63816755067191" lon="-0.033254418890648486"><ele>81.0</ele><time>2026-04-06T09:27:52Z</time></trkpt><trkpt lat="45.63812130624692" lon="-0.03304932546008249"><ele>81.0</ele><time>2026-04-06T09:27:53Z</time></trkpt><trkpt lat="45.638060840193944" lon="-0.03284140309178677"><ele>81.0</ele><time>2026-04-06T09:27:54Z</time></trkpt><trkpt lat="45.63799862027879" lon="-0.03261385736595716"><ele>81.0</ele><time>2026-04-06T09:27:55Z</time></trkpt><trkpt lat="45.63793267897821" lon="-0.03238949594734201"><ele>80.66666666666667</ele><time>2026-04-06T09:27:56Z</time></trkpt><trkpt lat="45.637859222382275" lon="-0.03216279532437767"><ele>80.33333333333334</ele><time>2026-04-06T09:27:57Z</time></trkpt><trkpt lat="45.6377822098485" lon="-0.03191017275185241"><ele>80.0</ele><time>2026-04-06T09:27:58Z</time></trkpt><trkpt lat="45.637705250077026" lon="-0.03163883133397614"><ele>79.33333333333334</ele><time>2026-04-06T09:27:59Z</time></trkpt><trkpt lat="45.63762965630027" lon="-0.031366250668104306"><ele>78.66666666666667</ele><time>2026-04-06T09:28:00Z</time></trkpt><trkpt lat="45.6375593411899" lon="-0.031093896032566983"><ele>78.0</ele><time>2026-04-06T09:28:01Z</time></trkpt><trkpt lat="45.63749348494491" lon="-0.030813360446987858"><ele>78.0</ele><time>2026-04-06T09:28:02Z</time></trkpt><trkpt lat="45.63741800177658" lon="-0.030550028521639228"><ele>78.0</ele><time>2026-04-06T09:28:03Z</time></trkpt><trkpt lat="45.63732149820267" lon="-0.030266992629916452"><ele>78.0</ele><time>2026-04-06T09:28:04Z</time></trkpt><trkpt lat="45.63724779109068" lon="-0.029969764499094807"><ele>78.0</ele><time>2026-04-06T09:28:05Z</time></trkpt><trkpt lat="45.63716603671961" lon="-0.029672358137371267"><ele>78.0</ele><time>2026-04-06T09:28:06Z</time></trkpt><trkpt lat="45.63710383420798" lon="-0.02938846503529171"><ele>78.0</ele><time>2026-04-06T09:28:07Z</time></trkpt><trkpt lat="45.63705230638766" lon="-0.029102809218924275"><ele>77.33333333333333</ele><time>2026-04-06T09:28:08Z</time></trkpt><trkpt lat="45.63702134882749" lon="-0.028809456299295603"><ele>76.66666666666666</ele><time>2026-04-06T09:28:09Z</time></trkpt><trkpt lat="45.6370163594545" lon="-0.02851404622816831"><ele>76.0</ele><time>2026-04-06T09:28:10Z</time></trkpt><trkpt lat="45.637022484184406" lon="-0.028188010746570177"><ele>75.5</ele><time>2026-04-06T09:28:11Z</time></trkpt><trkpt lat="45.63701128769453" lon="-0.027863188265501722"><ele>75.0</ele><time>2026-04-06T09:28:12Z</time></trkpt><trkpt lat="45.637000962870644" lon="-0.027532184998346112"><ele>74.5</ele><time>2026-04-06T09:28:13Z</time></trkpt><trkpt lat="45.63698598470862" lon="-0.02719878173139295"><ele>74.0</ele><time>2026-04-06T09:28:14Z</time></trkpt><trkpt lat="45.6369719315323" lon="-0.026867892796313457"><ele>73.5</ele><time>2026-04-06T09:28:15Z</time></trkpt><trkpt lat="45.636959386765746" lon="-0.02651805896531967"><ele>73.0</ele><time>2026-04-06T09:28:16Z</time></trkpt><trkpt lat="45.636948302979896" lon="-0.026183732502745423"><ele>73.0</ele><time>2026-04-06T09:28:17Z</time></trkpt><trkpt lat="45.63693484853221" lon="-0.025836803711146546"><ele>73.0</ele><time>2026-04-06T09:28:18Z</time></trkpt><trkpt lat="45.636922011538374" lon="-0.02549926010946656"><ele>72.0</ele><time>2026-04-06T09:28:19Z</time></trkpt><trkpt lat="45.63691088257994" lon="-0.025148271789664518"><ele>71.0</ele><time>2026-04-06T09:28:20Z</time></trkpt><trkpt lat="45.63689849115208" lon="-0.024816322020024616"><ele>71.0</ele><time>2026-04-06T09:28:21Z</time></trkpt><trkpt lat="45.63688981265626" lon="-0.02447503326063114"><ele>71.0</ele><time>2026-04-06T09:28:22Z</time></trkpt><trkpt lat="45.63687634815846" lon="-0.024141005430484825"><ele>72.0</ele><time>2026-04-06T09:28:23Z</time></trkpt><trkpt lat="45.63686409375439" lon="-0.023800061870130798"><ele>73.0</ele><time>2026-04-06T09:28:24Z</time></trkpt><trkpt lat="45.63685488758788" lon="-0.023465833659647422"><ele>73.0</ele><time>2026-04-06T09:28:25Z</time></trkpt><trkpt lat="45.63683841140155" lon="-0.023130490681982484"><ele>73.0</ele><time>2026-04-06T09:28:26Z</time></trkpt><trkpt lat="45.636819363649266" lon="-0.022790379849788468"><ele>72.5</ele><time>2026-04-06T09:28:27Z</time></trkpt><trkpt lat="45.63678999904544" lon="-0.022450103296782334"><ele>72.0</ele><time>2026-04-06T09:28:28Z</time></trkpt><trkpt lat="45.63675028215196" lon="-0.0221104449125136"><ele>72.0</ele><time>2026-04-06T09:28:29Z</time></trkpt><trkpt lat="45.636707722558235" lon="-0.021777993308069062"><ele>72.0</ele><time>2026-04-06T09:28:30Z</time></trkpt><trkpt lat="45.63665945797942" lon="-0.02143778136579466"><ele>72.0</ele><time>2026-04-06T09:28:31Z</time></trkpt><trkpt lat="45.63661450049823" lon="-0.021092456774646107"><ele>72.0</ele><time>2026-04-06T09:28:32Z</time></trkpt><trkpt lat="45.63657506669066" lon="-0.02075728997224772"><ele>71.0</ele><time>2026-04-06T09:28:33Z</time></trkpt><trkpt lat="45.636533264906504" lon="-0.02041399753150583"><ele>70.0</ele><time>2026-04-06T09:28:34Z</time></trkpt><trkpt lat="45.636500954830254" lon="-0.0200776034628185"><ele>69.5</ele><time>2026-04-06T09:28:35Z</time></trkpt><trkpt lat="45.63648233010952" lon="-0.01973292458465798"><ele>69.0</ele><time>2026-04-06T09:28:36Z</time></trkpt><trkpt lat="45.63648957051287" lon="-0.01939493378248219"><ele>70.5</ele><time>2026-04-06T09:28:37Z</time></trkpt><trkpt lat="45.636496074155716" lon="-0.019047461509825232"><ele>72.0</ele><time>2026-04-06T09:28:38Z</time></trkpt><trkpt lat="45.63650675624793" lon="-0.01869335617413699"><ele>72.0</ele><time>2026-04-06T09:28:39Z</time></trkpt><trkpt lat="45.63651832046601" lon="-0.018343160429303684"><ele>72.0</ele><time>2026-04-06T09:28:40Z</time></trkpt><trkpt lat="45.636526028981486" lon="-0.017997516578574662"><ele>72.0</ele><time>2026-04-06T09:28:41Z</time></trkpt><trkpt lat="45.636530500896576" lon="-0.01764437432631649"><ele>72.0</ele><time>2026-04-06T09:28:42Z</time></trkpt><trkpt lat="45.63654102580863" lon="-0.0172867136503284"><ele>71.0</ele><time>2026-04-06T09:28:43Z</time></trkpt><trkpt lat="45.63655068744915" lon="-0.016934323602946392"><ele>70.0</ele><time>2026-04-06T09:28:44Z</time></trkpt><trkpt lat="45.636556316953" lon="-0.01658078621594507"><ele>70.0</ele><time>2026-04-06T09:28:45Z</time></trkpt><trkpt lat="45.636564747399596" lon="-0.016226526579149022"><ele>70.0</ele><time>2026-04-06T09:28:46Z</time></trkpt><trkpt lat="45.63657089060523" lon="-0.015857213443647128"><ele>70.5</ele><time>2026-04-06T09:28:47Z</time></trkpt><trkpt lat="45.63657503508112" lon="-0.015507985406560775"><ele>71.0</ele><time>2026-04-06T09:28:48Z</time></trkpt><trkpt lat="45.63656617879602" lon="-0.01515942551203983"><ele>70.5</ele><time>2026-04-06T09:28:49Z</time></trkpt><trkpt lat="45.63655114229832" lon="-0.014812176562985602"><ele>70.0</ele><time>2026-04-06T09:28:50Z</time></trkpt><trkpt lat="45.63654142099437" lon="-0.014464231243525973"><ele>69.0</ele><time>2026-04-06T09:28:51Z</time></trkpt><trkpt lat="45.636530212069154" lon="-0.014108491002077866"><ele>68.0</ele><time>2026-04-06T09:28:52Z</time></trkpt><trkpt lat="45.636523653456216" lon="-0.01376840765133495"><ele>68.0</ele><time>2026-04-06T09:28:53Z</time></trkpt><trkpt lat="45.636511175972004" lon="-0.013450675299707816"><ele>68.0</ele><time>2026-04-06T09:28:54Z</time></trkpt><trkpt lat="45.63650104481832" lon="-0.01316068261353374"><ele>68.0</ele><time>2026-04-06T09:28:55Z</time></trkpt><trkpt lat="45.63649073379682" lon="-0.01287806739617634"><ele>67.33333333333334</ele><time>2026-04-06T09:28:56Z</time></trkpt><trkpt lat="45.63648904686391" lon="-0.012603729741167273"><ele>66.66666666666667</ele><time>2026-04-06T09:28:57Z</time></trkpt><trkpt lat="45.636510916242585" lon="-0.012371344225240537"><ele>66.0</ele><time>2026-04-06T09:28:58Z</time></trkpt><trkpt lat="45.636555496463224" lon="-0.012112168427529482"><ele>65.0</ele><time>2026-04-06T09:28:59Z</time></trkpt><trkpt lat="45.63663698291676" lon="-0.011851598907730972"><ele>64.0</ele><time>2026-04-06T09:29:00Z</time></trkpt><trkpt lat="45.63672543464124" lon="-0.011610332705710602"><ele>63.0</ele><time>2026-04-06T09:29:01Z</time></trkpt><trkpt lat="45.636822779583056" lon="-0.01135261066370495"><ele>61.33333333333333</ele><time>2026-04-06T09:29:02Z</time></trkpt><trkpt lat="45.63690195644851" lon="-0.0111071949061561"><ele>59.666666666666664</ele><time>2026-04-06T09:29:03Z</time></trkpt><trkpt lat="45.63697134107419" lon="-0.010854981727115437"><ele>58.0</ele><time>2026-04-06T09:29:04Z</time></trkpt><trkpt lat="45.63701287777032" lon="-0.010612134895335305"><ele>55.666666666666664</ele><time>2026-04-06T09:29:05Z</time></trkpt><trkpt lat="45.637031713537404" lon="-0.010361133980791002"><ele>53.33333333333333</ele><time>2026-04-06T09:29:06Z</time></trkpt><trkpt lat="45.63702289732703" lon="-0.010095484059274181"><ele>51.0</ele><time>2026-04-06T09:29:07Z</time></trkpt><trkpt lat="45.63698887438084" lon="-0.009810993539111797"><ele>50.33333333333333</ele><time>2026-04-06T09:29:08Z</time></trkpt><trkpt lat="45.636939326111346" lon="-0.009524171964393466"><ele>49.666666666666664</ele><time>2026-04-06T09:29:09Z</time></trkpt><trkpt lat="45.636895342727534" lon="-0.009235937776211888"><ele>49.0</ele><time>2026-04-06T09:29:10Z</time></trkpt><trkpt lat="45.63685205513415" lon="-0.00893500328820824"><ele>49.0</ele><time>2026-04-06T09:29:11Z</time></trkpt><trkpt lat="45.63680971618898" lon="-0.008648420529959221"><ele>49.0</ele><time>2026-04-06T09:29:12Z</time></trkpt><trkpt lat="45.63676684621795" lon="-0.008382182640865692"><ele>49.0</ele><time>2026-04-06T09:29:13Z</time></trkpt><trkpt lat="45.63673308746591" lon="-0.008135688798370176"><ele>47.666666666666664</ele><time>2026-04-06T09:29:14Z</time></trkpt><trkpt lat="45.6366976511114" lon="-0.007888638335542621"><ele>46.33333333333333</ele><time>2026-04-06T09:29:15Z</time></trkpt><trkpt lat="45.63666158403103" lon="-0.007657835695809071"><ele>45.0</ele><time>2026-04-06T09:29:16Z</time></trkpt><trkpt lat="45.63662848865501" lon="-0.007436579915982909"><ele>44.0</ele><time>2026-04-06T09:29:17Z</time></trkpt><trkpt lat="45.63659455848162" lon="-0.007231531521651179"><ele>43.0</ele><time>2026-04-06T09:29:18Z</time></trkpt><trkpt lat="45.63654882887325" lon="-0.007029965768845292"><ele>42.0</ele><time>2026-04-06T09:29:19Z</time></trkpt><trkpt lat="45.636476460957084" lon="-0.006849719310039731"><ele>41.0</ele><time>2026-04-06T09:29:20Z</time></trkpt><trkpt lat="45.63637982514065" lon="-0.00669878476419522"><ele>39.33333333333333</ele><time>2026-04-06T09:29:21Z</time></trkpt><trkpt lat="45.63625217685188" lon="-0.006602156558104378"><ele>37.666666666666664</ele><time>2026-04-06T09:29:22Z</time></trkpt><trkpt lat="45.63610005624604" lon="-0.006529301220411075"><ele>36.0</ele><time>2026-04-06T09:29:23Z</time></trkpt><trkpt lat="45.635935803709145" lon="-0.0064563209488194585"><ele>36.0</ele><time>2026-04-06T09:29:24Z</time></trkpt><trkpt lat="45.63577349779024" lon="-0.006377407770610688"><ele>36.0</ele><time>2026-04-06T09:29:25Z</time></trkpt><trkpt lat="45.63562750112693" lon="-0.006289363600530871"><ele>36.0</ele><time>2026-04-06T09:29:26Z</time></trkpt><trkpt lat="45.63548766261238" lon="-0.006200843537144639"><ele>36.0</ele><time>2026-04-06T09:29:27Z</time></trkpt><trkpt lat="45.63536175281497" lon="-0.006097835832086337"><ele>36.0</ele><time>2026-04-06T09:29:28Z</time></trkpt><trkpt lat="45.63525016035769" lon="-0.005980311686379506"><ele>36.0</ele><time>2026-04-06T09:29:29Z</time></trkpt><trkpt lat="45.63514439502527" lon="-0.005855871455168332"><ele>36.0</ele><time>2026-04-06T09:29:30Z</time></trkpt><trkpt lat="45.63504631739085" lon="-0.005713598060299565"><ele>34.75</ele><time>2026-04-06T09:29:31Z</time></trkpt><trkpt lat="45.63495796273523" lon="-0.005555953210304122"><ele>33.5</ele><time>2026-04-06T09:29:32Z</time></trkpt><trkpt lat="45.634878345326506" lon="-0.005396334152713386"><ele>32.25</ele><time>2026-04-06T09:29:33Z</time></trkpt><trkpt lat="45.6348190003848" lon="-0.00522953931432095"><ele>31.0</ele><time>2026-04-06T09:29:34Z</time></trkpt><trkpt lat="45.63477191428792" lon="-0.005062230466009754"><ele>30.6</ele><time>2026-04-06T09:29:35Z</time></trkpt><trkpt lat="45.634731747500865" lon="-0.004907122977636265"><ele>30.200000000000003</ele><time>2026-04-06T09:29:36Z</time></trkpt><trkpt lat="45.63469472048976" lon="-0.0047574207449059104"><ele>29.799999999999997</ele><time>2026-04-06T09:29:37Z</time></trkpt><trkpt lat="45.63466346586208" lon="-0.004629511926377265"><ele>29.4</ele><time>2026-04-06T09:29:38Z</time></trkpt><trkpt lat="45.63464190850677" lon="-0.0045363477904963615"><ele>29.0</ele><time>2026-04-06T09:29:39Z</time></trkpt><trkpt lat="45.63460359484069" lon="-0.004459817866056106"><ele>29.0</ele><time>2026-04-06T09:29:41Z</time></trkpt><trkpt lat="45.63453829456298" lon="-0.0043375944017442405"><ele>29.0</ele><time>2026-04-06T09:29:45Z</time></trkpt><trkpt lat="45.63453197833168" lon="-0.004222465189298743"><ele>29.0</ele><time>2026-04-06T09:29:46Z</time></trkpt><trkpt lat="45.63452179274072" lon="-0.004092014484137533"><ele>29.0</ele><time>2026-04-06T09:29:47Z</time></trkpt><trkpt lat="45.63450731057454" lon="-0.0039482559362413626"><ele>29.0</ele><time>2026-04-06T09:29:48Z</time></trkpt><trkpt lat="45.63448761400681" lon="-0.003809382201470629"><ele>28.4</ele><time>2026-04-06T09:29:49Z</time></trkpt><trkpt lat="45.634473318624615" lon="-0.0036634890098342808"><ele>27.799999999999997</ele><time>2026-04-06T09:29:50Z</time></trkpt><trkpt lat="45.634466367008564" lon="-0.003509982115469062"><ele>27.200000000000003</ele><time>2026-04-06T09:29:51Z</time></trkpt><trkpt lat="45.63446626097163" lon="-0.0033629794268329343"><ele>26.6</ele><time>2026-04-06T09:29:52Z</time></trkpt><trkpt lat="45.63447700692146" lon="-0.0032129275903852845"><ele>26.0</ele><time>2026-04-06T09:29:53Z</time></trkpt><trkpt lat="45.63450185180526" lon="-0.003076015996252445"><ele>25.8</ele><time>2026-04-06T09:29:54Z</time></trkpt><trkpt lat="45.63455538466831" lon="-0.002948220981019018"><ele>25.6</ele><time>2026-04-06T09:29:55Z</time></trkpt><trkpt lat="45.63462956509384" lon="-0.002842931422157741"><ele>25.4</ele><time>2026-04-06T09:29:56Z</time></trkpt><trkpt lat="45.63471864375776" lon="-0.002750861720633049"><ele>25.2</ele><time>2026-04-06T09:29:57Z</time></trkpt><trkpt lat="45.634808655070515" lon="-0.0026639542371850572"><ele>25.0</ele><time>2026-04-06T09:29:58Z</time></trkpt><trkpt lat="45.63489274193914" lon="-0.0025739412566307667"><ele>25.0</ele><time>2026-04-06T09:29:59Z</time></trkpt><trkpt lat="45.63497246727476" lon="-0.0024822622533302754"><ele>25.0</ele><time>2026-04-06T09:30:00Z</time></trkpt><trkpt lat="45.63505544712806" lon="-0.0023794137135189114"><ele>25.0</ele><time>2026-04-06T09:30:01Z</time></trkpt><trkpt lat="45.635113579861276" lon="-0.0022622033787289336"><ele>25.0</ele><time>2026-04-06T09:30:02Z</time></trkpt><trkpt lat="45.63514801561905" lon="-0.0021269756861657376"><ele>25.0</ele><time>2026-04-06T09:30:03Z</time></trkpt><trkpt lat="45.63515372352699" lon="-0.0019743505043357595"><ele>25.0</ele><time>2026-04-06T09:30:04Z</time></trkpt><trkpt lat="45.63513039179759" lon="-0.0018179295439276582"><ele>25.0</ele><time>2026-04-06T09:30:05Z</time></trkpt><trkpt lat="45.63508516273007" lon="-0.0016691125507712983"><ele>25.0</ele><time>2026-04-06T09:30:06Z</time></trkpt><trkpt lat="45.63503204575795" lon="-0.0015208025648148751"><ele>25.0</ele><time>2026-04-06T09:30:07Z</time></trkpt><trkpt lat="45.63499322605057" lon="-0.0013801629948940832"><ele>25.0</ele><time>2026-04-06T09:30:08Z</time></trkpt><trkpt lat="45.63497290814717" lon="-0.0012460284176408665"><ele>25.6</ele><time>2026-04-06T09:30:09Z</time></trkpt><trkpt lat="45.63496244723923" lon="-0.001121637383034697"><ele>26.2</ele><time>2026-04-06T09:30:10Z</time></trkpt><trkpt lat="45.63496415851153" lon="-0.0010305520089962921"><ele>26.799999999999997</ele><time>2026-04-06T09:30:11Z</time></trkpt><trkpt lat="45.63499470452073" lon="-9.180929121032177E-4"><ele>27.4</ele><time>2026-04-06T09:30:13Z</time></trkpt><trkpt lat="45.635061548792784" lon="-7.630560492041879E-4"><ele>28.0</ele><time>2026-04-06T09:30:17Z</time></trkpt><trkpt lat="45.635120298426656" lon="-6.554734215406114E-4"><ele>28.0</ele><time>2026-04-06T09:30:18Z</time></trkpt><trkpt lat="45.63518508175416" lon="-4.947783250520368E-4"><ele>28.0</ele><time>2026-04-06T09:30:19Z</time></trkpt><trkpt lat="45.63524348131082" lon="-3.074109839572806E-4"><ele>28.0</ele><time>2026-04-06T09:30:20Z</time></trkpt><trkpt lat="45.635306347047695" lon="-7.899941499428988E-5"><ele>28.0</ele><time>2026-04-06T09:30:21Z</time></trkpt><trkpt lat="45.63538147695065" lon="1.651818450064304E-4"><ele>29.666666666666668</ele><time>2026-04-06T09:30:22Z</time></trkpt><trkpt lat="45.63544841957944" lon="3.930192463169952E-4"><ele>31.333333333333336</ele><time>2026-04-06T09:30:23Z</time></trkpt><trkpt lat="45.63551595524319" lon="6.364931500718241E-4"><ele>33.0</ele><time>2026-04-06T09:30:24Z</time></trkpt><trkpt lat="45.63559453715394" lon="9.132348503058527E-4"><ele>33.0</ele><time>2026-04-06T09:30:25Z</time></trkpt><trkpt lat="45.6356754783817" lon="0.001190792127330842"><ele>33.0</ele><time>2026-04-06T09:30:26Z</time></trkpt><trkpt lat="45.63575559860237" lon="0.0014508526143867486"><ele>33.0</ele><time>2026-04-06T09:30:27Z</time></trkpt><trkpt lat="45.635852501093574" lon="0.0017112540036091843"><ele>32.0</ele><time>2026-04-06T09:30:28Z</time></trkpt><trkpt lat="45.63596002350386" lon="0.0019569577030433627"><ele>31.0</ele><time>2026-04-06T09:30:29Z</time></trkpt><trkpt lat="45.63608523048835" lon="0.0022033504211771263"><ele>30.0</ele><time>2026-04-06T09:30:30Z</time></trkpt><trkpt lat="45.63620397609759" lon="0.0024408406161466113"><ele>31.333333333333336</ele><time>2026-04-06T09:30:31Z</time></trkpt><trkpt lat="45.63628327879064" lon="0.0026749736524791638"><ele>32.66666666666667</ele><time>2026-04-06T09:30:32Z</time></trkpt><trkpt lat="45.63633839725787" lon="0.0029148160603536667"><ele>34.0</ele><time>2026-04-06T09:30:33Z</time></trkpt><trkpt lat="45.6363964837258" lon="0.0031778997051895323"><ele>33.333333333333336</ele><time>2026-04-06T09:30:34Z</time></trkpt><trkpt lat="45.636454076103405" lon="0.0034450593754224716"><ele>32.666666666666664</ele><time>2026-04-06T09:30:35Z</time></trkpt><trkpt lat="45.636499779979516" lon="0.0037349451769307404"><ele>32.0</ele><time>2026-04-06T09:30:36Z</time></trkpt><trkpt lat="45.63654028648412" lon="0.004040617861633756"><ele>31.0</ele><time>2026-04-06T09:30:37Z</time></trkpt><trkpt lat="45.63658662611975" lon="0.004351244103853726"><ele>30.0</ele><time>2026-04-06T09:30:38Z</time></trkpt><trkpt lat="45.63663806462217" lon="0.004665818024877163"><ele>29.0</ele><time>2026-04-06T09:30:39Z</time></trkpt><trkpt lat="45.636682399458" lon="0.004949479188888548"><ele>29.0</ele><time>2026-04-06T09:30:40Z</time></trkpt><trkpt lat="45.63671722340446" lon="0.005204529991721986"><ele>29.0</ele><time>2026-04-06T09:30:41Z</time></trkpt><trkpt lat="45.63672159803674" lon="0.005455803093680879"><ele>29.0</ele><time>2026-04-06T09:30:42Z</time></trkpt><trkpt lat="45.636692594981305" lon="0.005715639572308689"><ele>29.666666666666664</ele><time>2026-04-06T09:30:43Z</time></trkpt><trkpt lat="45.63664462987882" lon="0.0060026120930747155"><ele>30.333333333333336</ele><time>2026-04-06T09:30:44Z</time></trkpt><trkpt lat="45.63660368923593" lon="0.0062794272272555"><ele>31.0</ele><time>2026-04-06T09:30:45Z</time></trkpt><trkpt lat="45.63658195219978" lon="0.006547640914477188"><ele>31.666666666666668</ele><time>2026-04-06T09:30:46Z</time></trkpt><trkpt lat="45.636595919900834" lon="0.006778154336970162"><ele>32.333333333333336</ele><time>2026-04-06T09:30:47Z</time></trkpt><trkpt lat="45.636633862345384" lon="0.007021439736622459"><ele>33.0</ele><time>2026-04-06T09:30:48Z</time></trkpt><trkpt lat="45.63669341538092" lon="0.007261325065436404"><ele>33.0</ele><time>2026-04-06T09:30:49Z</time></trkpt><trkpt lat="45.63675232109232" lon="0.007517067862179021"><ele>33.0</ele><time>2026-04-06T09:30:50Z</time></trkpt><trkpt lat="45.63681832637273" lon="0.007759345480765719"><ele>33.0</ele><time>2026-04-06T09:30:51Z</time></trkpt><trkpt lat="45.63689758012474" lon="0.00794668505239847"><ele>34.0</ele><time>2026-04-06T09:30:52Z</time></trkpt><trkpt lat="45.63701332376813" lon="0.008129116503999141"><ele>35.0</ele><time>2026-04-06T09:30:53Z</time></trkpt><trkpt lat="45.637144167649176" lon="0.008290787634209443"><ele>36.0</ele><time>2026-04-06T09:30:54Z</time></trkpt><trkpt lat="45.63727997728457" lon="0.008460780154248003"><ele>36.0</ele><time>2026-04-06T09:30:55Z</time></trkpt><trkpt lat="45.637398881288426" lon="0.008655552228062639"><ele>36.0</ele><time>2026-04-06T09:30:56Z</time></trkpt><trkpt lat="45.63749126671083" lon="0.008878315810542131"><ele>36.0</ele><time>2026-04-06T09:30:57Z</time></trkpt><trkpt lat="45.63755793010684" lon="0.009122095470968362"><ele>36.333333333333336</ele><time>2026-04-06T09:30:58Z</time></trkpt><trkpt lat="45.637626150802" lon="0.009387780946044411"><ele>36.66666666666667</ele><time>2026-04-06T09:30:59Z</time></trkpt><trkpt lat="45.63767702814536" lon="0.009646158361160775"><ele>37.0</ele><time>2026-04-06T09:31:00Z</time></trkpt><trkpt lat="45.63775068832434" lon="0.009920971532124574"><ele>39.66666666666667</ele><time>2026-04-06T09:31:01Z</time></trkpt><trkpt lat="45.63782569121034" lon="0.010195566768142716"><ele>42.333333333333336</ele><time>2026-04-06T09:31:02Z</time></trkpt><trkpt lat="45.637902475018116" lon="0.010464683976438304"><ele>45.0</ele><time>2026-04-06T09:31:03Z</time></trkpt><trkpt lat="45.63798788669223" lon="0.010687240135530126"><ele>43.666666666666664</ele><time>2026-04-06T09:31:04Z</time></trkpt><trkpt lat="45.638097455134684" lon="0.010886638759372092"><ele>42.33333333333333</ele><time>2026-04-06T09:31:05Z</time></trkpt><trkpt lat="45.63822318420423" lon="0.011080822163657423"><ele>41.0</ele><time>2026-04-06T09:31:06Z</time></trkpt><trkpt lat="45.63836216847941" lon="0.011287189354797963"><ele>41.0</ele><time>2026-04-06T09:31:07Z</time></trkpt><trkpt lat="45.63850473080332" lon="0.011497484897579794"><ele>41.0</ele><time>2026-04-06T09:31:08Z</time></trkpt><trkpt lat="45.6386525814008" lon="0.011715303256018026"><ele>41.0</ele><time>2026-04-06T09:31:09Z</time></trkpt><trkpt lat="45.63880000614725" lon="0.011930745360758483"><ele>42.0</ele><time>2026-04-06T09:31:10Z</time></trkpt><trkpt lat="45.63895444359" lon="0.01215608513586056"><ele>43.0</ele><time>2026-04-06T09:31:11Z</time></trkpt><trkpt lat="45.6391030760282" lon="0.012386896701974898"><ele>44.0</ele><time>2026-04-06T09:31:12Z</time></trkpt><trkpt lat="45.639256890701766" lon="0.012624906379305061"><ele>46.5</ele><time>2026-04-06T09:31:13Z</time></trkpt><trkpt lat="45.639401999267" lon="0.01287239581950149"><ele>49.0</ele><time>2026-04-06T09:31:14Z</time></trkpt><trkpt lat="45.63953558603462" lon="0.01314376618037843"><ele>46.0</ele><time>2026-04-06T09:31:15Z</time></trkpt><trkpt lat="45.63965290436469" lon="0.013430429813077134"><ele>43.0</ele><time>2026-04-06T09:31:16Z</time></trkpt><trkpt lat="45.63977028229957" lon="0.013720067346797435"><ele>43.0</ele><time>2026-04-06T09:31:17Z</time></trkpt><trkpt lat="45.63989711984071" lon="0.014008175772470923"><ele>43.0</ele><time>2026-04-06T09:31:18Z</time></trkpt><trkpt lat="45.64001868757583" lon="0.014283045333805623"><ele>42.0</ele><time>2026-04-06T09:31:19Z</time></trkpt><trkpt lat="45.640130406693515" lon="0.014545139778127403"><ele>41.0</ele><time>2026-04-06T09:31:20Z</time></trkpt><trkpt lat="45.64023932182989" lon="0.014764153759239115"><ele>40.0</ele><time>2026-04-06T09:31:21Z</time></trkpt><trkpt lat="45.64035543981361" lon="0.01496367298369823"><ele>41.333333333333336</ele><time>2026-04-06T09:31:22Z</time></trkpt><trkpt lat="45.64048160443473" lon="0.015128288967949231"><ele>42.666666666666664</ele><time>2026-04-06T09:31:23Z</time></trkpt><trkpt lat="45.640631845405686" lon="0.01528596331248293"><ele>44.0</ele><time>2026-04-06T09:31:24Z</time></trkpt><trkpt lat="45.64079064049281" lon="0.01543699065734061"><ele>44.0</ele><time>2026-04-06T09:31:25Z</time></trkpt><trkpt lat="45.640955156360256" lon="0.015587221409525818"><ele>44.0</ele><time>2026-04-06T09:31:26Z</time></trkpt><trkpt lat="45.6411276915896" lon="0.015742897473183116"><ele>44.0</ele><time>2026-04-06T09:31:27Z</time></trkpt><trkpt lat="45.64130772271497" lon="0.015898884655385567"><ele>46.0</ele><time>2026-04-06T09:31:28Z</time></trkpt><trkpt lat="45.64148107763359" lon="0.016056282313212378"><ele>48.0</ele><time>2026-04-06T09:31:29Z</time></trkpt><trkpt lat="45.64164843052166" lon="0.016230736180015744"><ele>50.0</ele><time>2026-04-06T09:31:30Z</time></trkpt><trkpt lat="45.641814236371104" lon="0.01638190313220461"><ele>50.0</ele><time>2026-04-06T09:31:31Z</time></trkpt><trkpt lat="45.64195855375996" lon="0.01650204485536015"><ele>50.0</ele><time>2026-04-06T09:31:32Z</time></trkpt><trkpt lat="45.64208818968952" lon="0.016632456310087272"><ele>50.0</ele><time>2026-04-06T09:31:33Z</time></trkpt><trkpt lat="45.64219170466972" lon="0.016794867124556082"><ele>50.0</ele><time>2026-04-06T09:31:34Z</time></trkpt><trkpt lat="45.64226284944423" lon="0.016949124810567512"><ele>50.0</ele><time>2026-04-06T09:31:35Z</time></trkpt><trkpt lat="45.64229503315221" lon="0.017118035040572487"><ele>50.0</ele><time>2026-04-06T09:31:36Z</time></trkpt><trkpt lat="45.642306338422195" lon="0.017316551919526108"><ele>50.0</ele><time>2026-04-06T09:31:37Z</time></trkpt><trkpt lat="45.6422782362885" lon="0.01751633799244007"><ele>50.0</ele><time>2026-04-06T09:31:38Z</time></trkpt><trkpt lat="45.64218094971234" lon="0.01767470592388448"><ele>50.0</ele><time>2026-04-06T09:31:39Z</time></trkpt><trkpt lat="45.642102908400624" lon="0.01785833439432262"><ele>50.0</ele><time>2026-04-06T09:31:40Z</time></trkpt><trkpt lat="45.64199044252398" lon="0.01802647356781788"><ele>47.0</ele><time>2026-04-06T09:31:41Z</time></trkpt><trkpt lat="45.641868969311304" lon="0.018193385013334538"><ele>44.0</ele><time>2026-04-06T09:31:42Z</time></trkpt><trkpt lat="45.64175128431173" lon="0.01837700334510403"><ele>41.0</ele><time>2026-04-06T09:31:43Z</time></trkpt><trkpt lat="45.641634925313376" lon="0.01856596130139245"><ele>41.0</ele><time>2026-04-06T09:31:44Z</time></trkpt><trkpt lat="45.64152242493932" lon="0.018744378021455246"><ele>41.0</ele><time>2026-04-06T09:31:45Z</time></trkpt><trkpt lat="45.64144013997573" lon="0.01892588866101772"><ele>41.0</ele><time>2026-04-06T09:31:46Z</time></trkpt><trkpt lat="45.641377177813325" lon="0.019111630331506643"><ele>42.666666666666664</ele><time>2026-04-06T09:31:47Z</time></trkpt><trkpt lat="45.6413373322451" lon="0.019323841762228827"><ele>44.333333333333336</ele><time>2026-04-06T09:31:48Z</time></trkpt><trkpt lat="45.64131511730561" lon="0.019540647189801724"><ele>46.0</ele><time>2026-04-06T09:31:49Z</time></trkpt><trkpt lat="45.64131294693676" lon="0.019761640547946793"><ele>47.333333333333336</ele><time>2026-04-06T09:31:50Z</time></trkpt><trkpt lat="45.641322886670046" lon="0.019987748562178255"><ele>48.66666666666667</ele><time>2026-04-06T09:31:51Z</time></trkpt><trkpt lat="45.64133125579765" lon="0.02021556292756845"><ele>50.0</ele><time>2026-04-06T09:31:52Z</time></trkpt><trkpt lat="45.64133890873194" lon="0.02045239445241511"><ele>50.0</ele><time>2026-04-06T09:31:53Z</time></trkpt><trkpt lat="45.64134781122157" lon="0.02068701345788864"><ele>50.0</ele><time>2026-04-06T09:31:54Z</time></trkpt><trkpt lat="45.64134754863402" lon="0.020914026177874013"><ele>50.0</ele><time>2026-04-06T09:31:55.001Z</time></trkpt><trkpt lat="45.64135627227642" lon="0.02112943458586801"><ele>49.5</ele><time>2026-04-06T09:31:56.001Z</time></trkpt><trkpt lat="45.64139030902503" lon="0.02131781264446658"><ele>49.0</ele><time>2026-04-06T09:31:57.001Z</time></trkpt><trkpt lat="45.64145303343561" lon="0.021472190121403945"><ele>48.5</ele><time>2026-04-06T09:31:58.001Z</time></trkpt><trkpt lat="45.641553422532596" lon="0.02162866938018469"><ele>48.0</ele><time>2026-04-06T09:31:59.001Z</time></trkpt><trkpt lat="45.6416568050623" lon="0.021780699294538054"><ele>48.0</ele><time>2026-04-06T09:32:00.001Z</time></trkpt><trkpt lat="45.64177288401554" lon="0.021943411137154267"><ele>48.0</ele><time>2026-04-06T09:32:01.001Z</time></trkpt><trkpt lat="45.641886127539756" lon="0.022123325002142917"><ele>48.0</ele><time>2026-04-06T09:32:02Z</time></trkpt><trkpt lat="45.64199999363973" lon="0.022314679708356783"><ele>49.66666666666667</ele><time>2026-04-06T09:32:03Z</time></trkpt><trkpt lat="45.642118378299685" lon="0.02251812843666892"><ele>51.333333333333336</ele><time>2026-04-06T09:32:04Z</time></trkpt><trkpt lat="45.642249170958785" lon="0.02273731438144925"><ele>53.0</ele><time>2026-04-06T09:32:05Z</time></trkpt><trkpt lat="45.642393775404315" lon="0.02296215659789815"><ele>53.0</ele><time>2026-04-06T09:32:06Z</time></trkpt><trkpt lat="45.64254469093611" lon="0.02320623553665482"><ele>53.0</ele><time>2026-04-06T09:32:07Z</time></trkpt><trkpt lat="45.642701633010965" lon="0.023450311375474236"><ele>55.5</ele><time>2026-04-06T09:32:08Z</time></trkpt><trkpt lat="45.64285646116446" lon="0.02369470513311392"><ele>58.0</ele><time>2026-04-06T09:32:09Z</time></trkpt><trkpt lat="45.64301039250107" lon="0.023945686415567526"><ele>57.33333333333333</ele><time>2026-04-06T09:32:10Z</time></trkpt><trkpt lat="45.64315963412225" lon="0.024191135990895687"><ele>56.66666666666667</ele><time>2026-04-06T09:32:11Z</time></trkpt><trkpt lat="45.64329709235331" lon="0.024417667641506"><ele>56.0</ele><time>2026-04-06T09:32:12Z</time></trkpt><trkpt lat="45.64342706376488" lon="0.024617950173992473"><ele>56.0</ele><time>2026-04-06T09:32:13Z</time></trkpt><trkpt lat="45.64355479559862" lon="0.024825423626004848"><ele>56.0</ele><time>2026-04-06T09:32:14Z</time></trkpt><trkpt lat="45.64369745070151" lon="0.0250541575343042"><ele>56.0</ele><time>2026-04-06T09:32:15Z</time></trkpt><trkpt lat="45.643841012992624" lon="0.025275103831975017"><ele>55.66666666666667</ele><time>2026-04-06T09:32:16Z</time></trkpt><trkpt lat="45.64398592831737" lon="0.025509815072394432"><ele>55.33333333333333</ele><time>2026-04-06T09:32:17Z</time></trkpt><trkpt lat="45.64412301452709" lon="0.025741495822295894"><ele>55.0</ele><time>2026-04-06T09:32:18Z</time></trkpt><trkpt lat="45.64426533316027" lon="0.025968422653075498"><ele>55.0</ele><time>2026-04-06T09:32:19Z</time></trkpt><trkpt lat="45.644387852573196" lon="0.02620336172097384"><ele>55.0</ele><time>2026-04-06T09:32:20Z</time></trkpt><trkpt lat="45.64449058795662" lon="0.026441169572163546"><ele>55.0</ele><time>2026-04-06T09:32:21Z</time></trkpt><trkpt lat="45.64457222914667" lon="0.026699919023656888"><ele>56.0</ele><time>2026-04-06T09:32:22Z</time></trkpt><trkpt lat="45.64464734846159" lon="0.026943206579457632"><ele>57.0</ele><time>2026-04-06T09:32:23Z</time></trkpt><trkpt lat="45.644725902257875" lon="0.027160999395807028"><ele>58.0</ele><time>2026-04-06T09:32:24Z</time></trkpt><trkpt lat="45.6447976487141" lon="0.027363396416015262"><ele>59.75</ele><time>2026-04-06T09:32:25Z</time></trkpt><trkpt lat="45.644865393830656" lon="0.027568933151659286"><ele>61.5</ele><time>2026-04-06T09:32:26Z</time></trkpt><trkpt lat="45.6449228989926" lon="0.02775384508556407"><ele>63.25</ele><time>2026-04-06T09:32:27Z</time></trkpt><trkpt lat="45.64496193787793" lon="0.02793215199267928"><ele>65.0</ele><time>2026-04-06T09:32:28Z</time></trkpt><trkpt lat="45.64497910872827" lon="0.028115656732061924"><ele>66.33333333333334</ele><time>2026-04-06T09:32:29Z</time></trkpt><trkpt lat="45.64496000524451" lon="0.028322347377410212"><ele>67.66666666666667</ele><time>2026-04-06T09:32:30Z</time></trkpt><trkpt lat="45.644902300349415" lon="0.028530311555314786"><ele>69.0</ele><time>2026-04-06T09:32:31Z</time></trkpt><trkpt lat="45.644863697096866" lon="0.02874683956367498"><ele>69.0</ele><time>2026-04-06T09:32:32Z</time></trkpt><trkpt lat="45.64484168830679" lon="0.0289842263898496"><ele>69.0</ele><time>2026-04-06T09:32:33Z</time></trkpt><trkpt lat="45.64482335827729" lon="0.02921160319240547"><ele>69.0</ele><time>2026-04-06T09:32:34Z</time></trkpt><trkpt lat="45.64481094846748" lon="0.02941246423014891"><ele>69.25</ele><time>2026-04-06T09:32:35Z</time></trkpt><trkpt lat="45.64480913986612" lon="0.02962856479095907"><ele>69.5</ele><time>2026-04-06T09:32:36Z</time></trkpt><trkpt lat="45.64479977970974" lon="0.029822566173731635"><ele>69.75</ele><time>2026-04-06T09:32:37Z</time></trkpt><trkpt lat="45.644800480873435" lon="0.030019573549630873"><ele>70.0</ele><time>2026-04-06T09:32:38Z</time></trkpt><trkpt lat="45.644828668598855" lon="0.03019932373566969"><ele>70.75</ele><time>2026-04-06T09:32:39Z</time></trkpt><trkpt lat="45.64488944341973" lon="0.030375206065266523"><ele>71.5</ele><time>2026-04-06T09:32:40Z</time></trkpt><trkpt lat="45.644970907172905" lon="0.030543914866455135"><ele>72.25</ele><time>2026-04-06T09:32:41Z</time></trkpt><trkpt lat="45.64507030531987" lon="0.03068313843799141"><ele>73.0</ele><time>2026-04-06T09:32:42Z</time></trkpt><trkpt lat="45.645178529365815" lon="0.030852320050383596"><ele>74.33333333333333</ele><time>2026-04-06T09:32:43Z</time></trkpt><trkpt lat="45.64526607695729" lon="0.031060449088656794"><ele>75.66666666666667</ele><time>2026-04-06T09:32:44Z</time></trkpt><trkpt lat="45.64535246938199" lon="0.031282330034477036"><ele>77.0</ele><time>2026-04-06T09:32:45Z</time></trkpt><trkpt lat="45.645428306197694" lon="0.031490204608690134"><ele>75.66666666666667</ele><time>2026-04-06T09:32:46Z</time></trkpt><trkpt lat="45.64546106487639" lon="0.03173952743336447"><ele>74.33333333333333</ele><time>2026-04-06T09:32:47Z</time></trkpt><trkpt lat="45.6455159978707" lon="0.03200021124506658"><ele>73.0</ele><time>2026-04-06T09:32:48Z</time></trkpt><trkpt lat="45.645573093933734" lon="0.032232260334813356"><ele>73.0</ele><time>2026-04-06T09:32:49Z</time></trkpt><trkpt lat="45.64562207054297" lon="0.03245648031331949"><ele>73.0</ele><time>2026-04-06T09:32:50Z</time></trkpt><trkpt lat="45.64567596911734" lon="0.03266650439743842"><ele>73.0</ele><time>2026-04-06T09:32:51Z</time></trkpt><trkpt lat="45.64572429983639" lon="0.032886750571123245"><ele>74.0</ele><time>2026-04-06T09:32:52Z</time></trkpt><trkpt lat="45.64577452535965" lon="0.03310649095285257"><ele>75.0</ele><time>2026-04-06T09:32:53Z</time></trkpt><trkpt lat="45.645822151198345" lon="0.0333202189354147"><ele>76.0</ele><time>2026-04-06T09:32:54Z</time></trkpt><trkpt lat="45.64587504180671" lon="0.033541797343168596"><ele>77.0</ele><time>2026-04-06T09:32:55Z</time></trkpt><trkpt lat="45.64592751219537" lon="0.03375552413323549"><ele>78.0</ele><time>2026-04-06T09:32:56Z</time></trkpt><trkpt lat="45.645950641498374" lon="0.03395483930826656"><ele>79.0</ele><time>2026-04-06T09:32:57Z</time></trkpt><trkpt lat="45.64594748703898" lon="0.03414469233114369"><ele>80.0</ele><time>2026-04-06T09:32:58Z</time></trkpt><trkpt lat="45.64591745517687" lon="0.03431765113772791"><ele>81.25</ele><time>2026-04-06T09:32:59Z</time></trkpt><trkpt lat="45.64585200512692" lon="0.03447723530256759"><ele>82.5</ele><time>2026-04-06T09:33:00Z</time></trkpt><trkpt lat="45.64577566960717" lon="0.03462233449095121"><ele>83.75</ele><time>2026-04-06T09:33:01Z</time></trkpt><trkpt lat="45.64567528815549" lon="0.03473945792545673"><ele>85.0</ele><time>2026-04-06T09:33:02Z</time></trkpt><trkpt lat="45.64555476814644" lon="0.03483173049536187"><ele>85.0</ele><time>2026-04-06T09:33:03Z</time></trkpt><trkpt lat="45.645430317061674" lon="0.03490337976296775"><ele>85.0</ele><time>2026-04-06T09:33:04Z</time></trkpt><trkpt lat="45.645311811324184" lon="0.03496043113015136"><ele>85.0</ele><time>2026-04-06T09:33:05Z</time></trkpt><trkpt lat="45.64518872621406" lon="0.035023188221096076"><ele>85.0</ele><time>2026-04-06T09:33:06Z</time></trkpt><trkpt lat="45.64507938237389" lon="0.035083250041070706"><ele>85.75</ele><time>2026-04-06T09:33:07Z</time></trkpt><trkpt lat="45.644968584543925" lon="0.03515252172585569"><ele>86.5</ele><time>2026-04-06T09:33:08Z</time></trkpt><trkpt lat="45.64486038209655" lon="0.03523079814783684"><ele>87.25</ele><time>2026-04-06T09:33:09Z</time></trkpt><trkpt lat="45.644760433170205" lon="0.035314595322265795"><ele>88.0</ele><time>2026-04-06T09:33:10Z</time></trkpt><trkpt lat="45.644668752642325" lon="0.03541872625717722"><ele>88.0</ele><time>2026-04-06T09:33:11Z</time></trkpt><trkpt lat="45.64458467004164" lon="0.035556314344723124"><ele>88.0</ele><time>2026-04-06T09:33:12Z</time></trkpt><trkpt lat="45.644536167345976" lon="0.03572639186070762"><ele>88.0</ele><time>2026-04-06T09:33:13Z</time></trkpt><trkpt lat="45.644518664722135" lon="0.03591263509943368"><ele>88.0</ele><time>2026-04-06T09:33:14Z</time></trkpt><trkpt lat="45.64452213509187" lon="0.036118743307650955"><ele>86.75</ele><time>2026-04-06T09:33:15Z</time></trkpt><trkpt lat="45.64454985758685" lon="0.036313791626115664"><ele>85.5</ele><time>2026-04-06T09:33:16Z</time></trkpt><trkpt lat="45.64457971499714" lon="0.03652536146726716"><ele>84.25</ele><time>2026-04-06T09:33:17Z</time></trkpt><trkpt lat="45.644605992227085" lon="0.03674344947005153"><ele>83.0</ele><time>2026-04-06T09:33:18Z</time></trkpt><trkpt lat="45.644628548241684" lon="0.03696428826294197"><ele>82.33333333333334</ele><time>2026-04-06T09:33:19Z</time></trkpt><trkpt lat="45.644655484761444" lon="0.03718661786241206"><ele>81.66666666666667</ele><time>2026-04-06T09:33:20Z</time></trkpt><trkpt lat="45.64468660387556" lon="0.03742976006830255"><ele>81.0</ele><time>2026-04-06T09:33:21Z</time></trkpt><trkpt lat="45.64471627819089" lon="0.03767475635045352"><ele>80.33333333333333</ele><time>2026-04-06T09:33:22Z</time></trkpt><trkpt lat="45.644738900991705" lon="0.03791317402645152"><ele>79.66666666666666</ele><time>2026-04-06T09:33:23Z</time></trkpt><trkpt lat="45.64476712617385" lon="0.038152135019520764"><ele>79.0</ele><time>2026-04-06T09:33:24Z</time></trkpt><trkpt lat="45.644783647663694" lon="0.03837421558782514"><ele>77.66666666666666</ele><time>2026-04-06T09:33:25Z</time></trkpt><trkpt lat="45.64478501440035" lon="0.0385898328018534"><ele>76.33333333333333</ele><time>2026-04-06T09:33:26Z</time></trkpt><trkpt lat="45.64475671058637" lon="0.03881197287762449"><ele>75.0</ele><time>2026-04-06T09:33:27Z</time></trkpt><trkpt lat="45.64471839318162" lon="0.03903129206711914"><ele>75.0</ele><time>2026-04-06T09:33:28Z</time></trkpt><trkpt lat="45.6446693673308" lon="0.03926877772412469"><ele>75.0</ele><time>2026-04-06T09:33:29Z</time></trkpt><trkpt lat="45.644623347502076" lon="0.0394917218572118"><ele>75.0</ele><time>2026-04-06T09:33:30Z</time></trkpt><trkpt lat="45.644577001454266" lon="0.03972598445295402"><ele>75.0</ele><time>2026-04-06T09:33:31Z</time></trkpt><trkpt lat="45.6445350854917" lon="0.03996038572894928"><ele>75.0</ele><time>2026-04-06T09:33:32Z</time></trkpt><trkpt lat="45.6445058348127" lon="0.040196739185958896"><ele>75.0</ele><time>2026-04-06T09:33:33Z</time></trkpt><trkpt lat="45.64446553294323" lon="0.04040737866086428"><ele>71.0</ele><time>2026-04-06T09:33:34Z</time></trkpt><trkpt lat="45.64439803091309" lon="0.04059889001945533"><ele>67.0</ele><time>2026-04-06T09:33:35Z</time></trkpt><trkpt lat="45.644310425186795" lon="0.04077791816281797"><ele>63.0</ele><time>2026-04-06T09:33:36Z</time></trkpt><trkpt lat="45.64420162790187" lon="0.04093911028550571"><ele>62.66666666666667</ele><time>2026-04-06T09:33:37Z</time></trkpt><trkpt lat="45.644084155683046" lon="0.041099625420708136"><ele>62.333333333333336</ele><time>2026-04-06T09:33:38Z</time></trkpt><trkpt lat="45.643984697327035" lon="0.04126748877961213"><ele>62.0</ele><time>2026-04-06T09:33:39Z</time></trkpt><trkpt lat="45.643895930675434" lon="0.04145038757414849"><ele>63.0</ele><time>2026-04-06T09:33:40.001Z</time></trkpt><trkpt lat="45.64382381718976" lon="0.04164396688528216"><ele>64.0</ele><time>2026-04-06T09:33:41.001Z</time></trkpt><trkpt lat="45.643781057574394" lon="0.04184252678400864"><ele>65.0</ele><time>2026-04-06T09:33:42.001Z</time></trkpt><trkpt lat="45.64376076785729" lon="0.042047065034796965"><ele>66.0</ele><time>2026-04-06T09:33:43.001Z</time></trkpt><trkpt lat="45.64376146031878" lon="0.042271735929060694"><ele>64.66666666666667</ele><time>2026-04-06T09:33:44.001Z</time></trkpt><trkpt lat="45.64376969552038" lon="0.042508068936616024"><ele>63.333333333333336</ele><time>2026-04-06T09:33:45.001Z</time></trkpt><trkpt lat="45.643769956937014" lon="0.04275407812565479"><ele>62.0</ele><time>2026-04-06T09:33:46.001Z</time></trkpt><trkpt lat="45.64375609006612" lon="0.042985423598747526"><ele>62.0</ele><time>2026-04-06T09:33:47.001Z</time></trkpt><trkpt lat="45.64373939865293" lon="0.04319953059576274"><ele>62.0</ele><time>2026-04-06T09:33:48.001Z</time></trkpt><trkpt lat="45.64370834506022" lon="0.04340986384236609"><ele>62.0</ele><time>2026-04-06T09:33:49.001Z</time></trkpt><trkpt lat="45.6436290398362" lon="0.04361520392785579"><ele>62.0</ele><time>2026-04-06T09:33:50.001Z</time></trkpt><trkpt lat="45.64354298783555" lon="0.04384281846082378"><ele>62.0</ele><time>2026-04-06T09:33:51.001Z</time></trkpt><trkpt lat="45.643430463879945" lon="0.04404501504095916"><ele>62.0</ele><time>2026-04-06T09:33:52.001Z</time></trkpt><trkpt lat="45.64330135865891" lon="0.04426092925556697"><ele>62.0</ele><time>2026-04-06T09:33:53.001Z</time></trkpt><trkpt lat="45.6431840008921" lon="0.044481179174306155"><ele>62.0</ele><time>2026-04-06T09:33:54.001Z</time></trkpt><trkpt lat="45.643067774379276" lon="0.04467615317465929"><ele>62.0</ele><time>2026-04-06T09:33:55.001Z</time></trkpt><trkpt lat="45.64292616509229" lon="0.044828375903272794"><ele>59.333333333333336</ele><time>2026-04-06T09:33:56.001Z</time></trkpt><trkpt lat="45.64276127532751" lon="0.04496887250380288"><ele>56.66666666666667</ele><time>2026-04-06T09:33:57.001Z</time></trkpt><trkpt lat="45.64259891126327" lon="0.04510809071049048"><ele>54.0</ele><time>2026-04-06T09:33:58.001Z</time></trkpt><trkpt lat="45.642461557531234" lon="0.04523528918928535"><ele>54.0</ele><time>2026-04-06T09:33:59.001Z</time></trkpt><trkpt lat="45.64232025033295" lon="0.045362199312759546"><ele>54.0</ele><time>2026-04-06T09:34:00.001Z</time></trkpt><trkpt lat="45.642177804589" lon="0.045476826843466746"><ele>54.0</ele><time>2026-04-06T09:34:01.001Z</time></trkpt><trkpt lat="45.64202935502845" lon="0.0455800317974432"><ele>53.0</ele><time>2026-04-06T09:34:02.001Z</time></trkpt><trkpt lat="45.64186799060296" lon="0.0456645386796285"><ele>52.0</ele><time>2026-04-06T09:34:03.001Z</time></trkpt><trkpt lat="45.64170623891023" lon="0.045731846092930656"><ele>51.0</ele><time>2026-04-06T09:34:04.001Z</time></trkpt><trkpt lat="45.64155336206792" lon="0.045800289145903554"><ele>50.33333333333333</ele><time>2026-04-06T09:34:05.001Z</time></trkpt><trkpt lat="45.6413993786288" lon="0.04586093259925335"><ele>49.666666666666664</ele><time>2026-04-06T09:34:06.001Z</time></trkpt><trkpt lat="45.64124419193955" lon="0.045910716863584784"><ele>49.0</ele><time>2026-04-06T09:34:07.001Z</time></trkpt><trkpt lat="45.641095823968826" lon="0.045930595167730806"><ele>47.2</ele><time>2026-04-06T09:34:08Z</time></trkpt><trkpt lat="45.64096132438159" lon="0.04596348012017853"><ele>45.400000000000006</ele><time>2026-04-06T09:34:09Z</time></trkpt><trkpt lat="45.640865624363244" lon="0.04598763482581861"><ele>43.6</ele><time>2026-04-06T09:34:10Z</time></trkpt><trkpt lat="45.640780128409055" lon="0.045957693537930874"><ele>41.8</ele><time>2026-04-06T09:34:11Z</time></trkpt><trkpt lat="45.64070451834065" lon="0.04599678770680405"><ele>40.0</ele><time>2026-04-06T09:34:12Z</time></trkpt><trkpt lat="45.64060183624856" lon="0.04584174152357022"><ele>40.0</ele><time>2026-04-06T09:34:13Z</time></trkpt><trkpt lat="45.640499040269056" lon="0.04579876419029335"><ele>40.0</ele><time>2026-04-06T09:34:14Z</time></trkpt><trkpt lat="45.64038506227385" lon="0.04570625599474067"><ele>40.0</ele><time>2026-04-06T09:34:15Z</time></trkpt><trkpt lat="45.640263116204" lon="0.04557514295376577"><ele>40.0</ele><time>2026-04-06T09:34:16Z</time></trkpt><trkpt lat="45.64013892665485" lon="0.045406571063508164"><ele>40.66666666666667</ele><time>2026-04-06T09:34:17Z</time></trkpt><trkpt lat="45.640021582576765" lon="0.04520480311216135"><ele>41.333333333333336</ele><time>2026-04-06T09:34:18Z</time></trkpt><trkpt lat="45.63988795565665" lon="0.04496702159164002"><ele>42.0</ele><time>2026-04-06T09:34:19Z</time></trkpt><trkpt lat="45.63975003028079" lon="0.0447612428119813"><ele>43.0</ele><time>2026-04-06T09:34:20Z</time></trkpt><trkpt lat="45.63963499256913" lon="0.04460737188515679"><ele>44.0</ele><time>2026-04-06T09:34:21Z</time></trkpt><trkpt lat="45.63950413302944" lon="0.044475347508186214"><ele>45.0</ele><time>2026-04-06T09:34:22Z</time></trkpt><trkpt lat="45.63935688337552" lon="0.04437549078060871"><ele>42.333333333333336</ele><time>2026-04-06T09:34:23Z</time></trkpt><trkpt lat="45.639199139272755" lon="0.04428809104264831"><ele>39.66666666666667</ele><time>2026-04-06T09:34:24Z</time></trkpt><trkpt lat="45.63904404629206" lon="0.04423341388857263"><ele>37.0</ele><time>2026-04-06T09:34:25Z</time></trkpt><trkpt lat="45.63888274964706" lon="0.04422298537918645"><ele>37.0</ele><time>2026-04-06T09:34:26Z</time></trkpt><trkpt lat="45.6387253143684" lon="0.04423320164888869"><ele>37.0</ele><time>2026-04-06T09:34:27Z</time></trkpt><trkpt lat="45.63856674662804" lon="0.04427633148211608"><ele>37.0</ele><time>2026-04-06T09:34:28Z</time></trkpt><trkpt lat="45.63841224773694" lon="0.04433414640056326"><ele>35.66666666666667</ele><time>2026-04-06T09:34:29Z</time></trkpt><trkpt lat="45.63826443067807" lon="0.04440984956953593"><ele>34.333333333333336</ele><time>2026-04-06T09:34:30Z</time></trkpt><trkpt lat="45.63810729447244" lon="0.04449567206757066"><ele>33.0</ele><time>2026-04-06T09:34:31Z</time></trkpt><trkpt lat="45.63794911128134" lon="0.04460607694763169"><ele>32.666666666666664</ele><time>2026-04-06T09:34:32Z</time></trkpt><trkpt lat="45.63778383090452" lon="0.044715448874224135"><ele>32.33333333333333</ele><time>2026-04-06T09:34:33Z</time></trkpt><trkpt lat="45.637608721084625" lon="0.04481703609423869"><ele>32.0</ele><time>2026-04-06T09:34:34Z</time></trkpt><trkpt lat="45.63743530483897" lon="0.044924048091693404"><ele>30.666666666666664</ele><time>2026-04-06T09:34:35Z</time></trkpt><trkpt lat="45.63725587440489" lon="0.0450327371397214"><ele>29.333333333333336</ele><time>2026-04-06T09:34:36Z</time></trkpt><trkpt lat="45.637071294360325" lon="0.04514377318872789"><ele>28.0</ele><time>2026-04-06T09:34:37Z</time></trkpt><trkpt lat="45.63688087103313" lon="0.045258886363720156"><ele>27.666666666666668</ele><time>2026-04-06T09:34:38Z</time></trkpt><trkpt lat="45.63669092355389" lon="0.04537063058258831"><ele>27.333333333333336</ele><time>2026-04-06T09:34:39Z</time></trkpt><trkpt lat="45.63651118213861" lon="0.04547601374682512"><ele>27.0</ele><time>2026-04-06T09:34:40Z</time></trkpt><trkpt lat="45.636329691103384" lon="0.045588174326659084"><ele>27.0</ele><time>2026-04-06T09:34:41Z</time></trkpt><trkpt lat="45.63614354289594" lon="0.045698270528483464"><ele>27.0</ele><time>2026-04-06T09:34:42Z</time></trkpt><trkpt lat="45.63595478044656" lon="0.0458134616533216"><ele>27.0</ele><time>2026-04-06T09:34:43Z</time></trkpt><trkpt lat="45.63575913684574" lon="0.045935141504049565"><ele>26.666666666666664</ele><time>2026-04-06T09:34:44Z</time></trkpt><trkpt lat="45.63557078980754" lon="0.04603858242546673"><ele>26.333333333333332</ele><time>2026-04-06T09:34:45Z</time></trkpt><trkpt lat="45.63539010248727" lon="0.04615329113542164"><ele>26.0</ele><time>2026-04-06T09:34:46Z</time></trkpt><trkpt lat="45.63521622089046" lon="0.04626431541548417"><ele>25.666666666666664</ele><time>2026-04-06T09:34:47Z</time></trkpt><trkpt lat="45.635050665768055" lon="0.04635326719970653"><ele>25.333333333333336</ele><time>2026-04-06T09:34:48Z</time></trkpt><trkpt lat="45.634910012440685" lon="0.04644280076514206"><ele>25.0</ele><time>2026-04-06T09:34:49Z</time></trkpt><trkpt lat="45.634756563512795" lon="0.046529376694659716"><ele>25.0</ele><time>2026-04-06T09:34:50Z</time></trkpt><trkpt lat="45.63461555151924" lon="0.046604880799796335"><ele>25.0</ele><time>2026-04-06T09:34:51Z</time></trkpt><trkpt lat="45.634485103718504" lon="0.04668452783827856"><ele>25.0</ele><time>2026-04-06T09:34:52Z</time></trkpt><trkpt lat="45.634365164184885" lon="0.046775112124278415"><ele>25.0</ele><time>2026-04-06T09:34:53Z</time></trkpt><trkpt lat="45.63424538570639" lon="0.04685179857097296"><ele>25.5</ele><time>2026-04-06T09:34:54Z</time></trkpt><trkpt lat="45.6341397172867" lon="0.046923267622529234"><ele>26.0</ele><time>2026-04-06T09:34:55Z</time></trkpt><trkpt lat="45.63399952562151" lon="0.04699613902455274"><ele>26.5</ele><time>2026-04-06T09:34:56Z</time></trkpt><trkpt lat="45.633883227362965" lon="0.047070894251645665"><ele>27.0</ele><time>2026-04-06T09:34:57Z</time></trkpt><trkpt lat="45.63379788447953" lon="0.047122269584378144"><ele>27.0</ele><time>2026-04-06T09:34:58Z</time></trkpt><trkpt lat="45.63371507710567" lon="0.047164888931842244"><ele>27.0</ele><time>2026-04-06T09:34:59Z</time></trkpt><trkpt lat="45.633637656704444" lon="0.04720712508987616"><ele>27.0</ele><time>2026-04-06T09:35:00Z</time></trkpt><trkpt lat="45.63356393669122" lon="0.047242484847498906"><ele>27.0</ele><time>2026-04-06T09:35:01Z</time></trkpt><trkpt lat="45.63348585565022" lon="0.04728133065449172"><ele>27.0</ele><time>2026-04-06T09:35:02Z</time></trkpt><trkpt lat="45.633427729792736" lon="0.04734331370062005"><ele>27.0</ele><time>2026-04-06T09:35:03Z</time></trkpt><trkpt lat="45.63334886994473" lon="0.04738756153138279"><ele>27.400000000000002</ele><time>2026-04-06T09:35:04Z</time></trkpt><trkpt lat="45.63327016627025" lon="0.04743268740924455"><ele>27.800000000000004</ele><time>2026-04-06T09:35:05Z</time></trkpt><trkpt lat="45.63318323269412" lon="0.0474839966833257"><ele>28.2</ele><time>2026-04-06T09:35:06Z</time></trkpt><trkpt lat="45.633097246514396" lon="0.04753434656580921"><ele>28.6</ele><time>2026-04-06T09:35:07Z</time></trkpt><trkpt lat="45.63300422509875" lon="0.047596058064745914"><ele>29.0</ele><time>2026-04-06T09:35:08Z</time></trkpt><trkpt lat="45.632903386879356" lon="0.047655190602690495"><ele>29.25</ele><time>2026-04-06T09:35:09Z</time></trkpt><trkpt lat="45.632799684143784" lon="0.04771950319267662"><ele>29.5</ele><time>2026-04-06T09:35:10Z</time></trkpt><trkpt lat="45.632686953452804" lon="0.04779665877154374"><ele>29.75</ele><time>2026-04-06T09:35:11Z</time></trkpt><trkpt lat="45.63257758646096" lon="0.047870440993164065"><ele>30.0</ele><time>2026-04-06T09:35:12Z</time></trkpt><trkpt lat="45.63249327026332" lon="0.04794660418514216"><ele>30.0</ele><time>2026-04-06T09:35:13Z</time></trkpt><trkpt lat="45.63244108118017" lon="0.048054821991682345"><ele>30.0</ele><time>2026-04-06T09:35:14Z</time></trkpt><trkpt lat="45.63239896469306" lon="0.04820076608169629"><ele>30.0</ele><time>2026-04-06T09:35:15Z</time></trkpt><trkpt lat="45.63236650566011" lon="0.04835348284668284"><ele>30.0</ele><time>2026-04-06T09:35:16Z</time></trkpt><trkpt lat="45.63232613662815" lon="0.04847530926208613"><ele>30.0</ele><time>2026-04-06T09:35:17Z</time></trkpt><trkpt lat="45.63226042749298" lon="0.048579909884224406"><ele>30.2</ele><time>2026-04-06T09:35:18Z</time></trkpt><trkpt lat="45.63217320284414" lon="0.04866593167547278"><ele>30.4</ele><time>2026-04-06T09:35:19Z</time></trkpt><trkpt lat="45.63207340857982" lon="0.048712860766481667"><ele>30.6</ele><time>2026-04-06T09:35:20Z</time></trkpt><trkpt lat="45.631968988177654" lon="0.04868821971361087"><ele>30.8</ele><time>2026-04-06T09:35:21Z</time></trkpt><trkpt lat="45.631868040869676" lon="0.048682302924641256"><ele>31.0</ele><time>2026-04-06T09:35:22Z</time></trkpt><trkpt lat="45.63180094386464" lon="0.04866092029880779"><ele>30.666666666666668</ele><time>2026-04-06T09:35:23.001Z</time></trkpt><trkpt lat="45.631736159644994" lon="0.04863326953011437"><ele>30.333333333333336</ele><time>2026-04-06T09:35:25.001Z</time></trkpt><trkpt lat="45.6316350096718" lon="0.04860866288239475"><ele>30.0</ele><time>2026-04-06T09:35:34.001Z</time></trkpt><trkpt lat="45.63156720506895" lon="0.0486122141782003"><ele>29.666666666666664</ele><time>2026-04-06T09:35:35.001Z</time></trkpt><trkpt lat="45.63148571892697" lon="0.04860089372195195"><ele>29.333333333333332</ele><time>2026-04-06T09:35:36.001Z</time></trkpt><trkpt lat="45.6314006899376" lon="0.04856149418872981"><ele>29.0</ele><time>2026-04-06T09:35:37.001Z</time></trkpt><trkpt lat="45.63130467628194" lon="0.04852586588880833"><ele>29.0</ele><time>2026-04-06T09:35:38.001Z</time></trkpt><trkpt lat="45.631196075837934" lon="0.04849729990150344"><ele>29.0</ele><time>2026-04-06T09:35:39.001Z</time></trkpt><trkpt lat="45.63107285999887" lon="0.0484723024793188"><ele>29.0</ele><time>2026-04-06T09:35:40.001Z</time></trkpt><trkpt lat="45.63093347181372" lon="0.04844426230263576"><ele>29.0</ele><time>2026-04-06T09:35:41.001Z</time></trkpt><trkpt lat="45.630809375500576" lon="0.04841162811770223"><ele>29.499999999999996</ele><time>2026-04-06T09:35:43.001Z</time></trkpt><trkpt lat="45.630722209208294" lon="0.04838904830268138"><ele>30.0</ele><time>2026-04-06T09:35:44.001Z</time></trkpt><trkpt lat="45.63063862419406" lon="0.04836874719733507"><ele>30.5</ele><time>2026-04-06T09:35:45.001Z</time></trkpt><trkpt lat="45.6305709321247" lon="0.04839453748880677"><ele>31.0</ele><time>2026-04-06T09:35:46.001Z</time></trkpt><trkpt lat="45.6304995030085" lon="0.048394537489145156"><ele>31.499999999999996</ele><time>2026-04-06T09:35:47.001Z</time></trkpt><trkpt lat="45.630424738780455" lon="0.04840968386136017"><ele>32.0</ele><time>2026-04-06T09:35:48.001Z</time></trkpt><trkpt lat="45.630341435515376" lon="0.04846446675893207"><ele>31.400000000000002</ele><time>2026-04-06T09:35:49.001Z</time></trkpt><trkpt lat="45.63025762123684" lon="0.04854395600480275"><ele>30.800000000000004</ele><time>2026-04-06T09:35:50.001Z</time></trkpt><trkpt lat="45.630174763052224" lon="0.04863590279859692"><ele>30.2</ele><time>2026-04-06T09:35:51.001Z</time></trkpt><trkpt lat="45.63009722837118" lon="0.04875393568898195"><ele>29.6</ele><time>2026-04-06T09:35:52.001Z</time></trkpt><trkpt lat="45.6300207485899" lon="0.04887480079326809"><ele>29.0</ele><time>2026-04-06T09:35:53.001Z</time></trkpt><trkpt lat="45.6299383677696" lon="0.04898887263115153"><ele>29.0</ele><time>2026-04-06T09:35:54.001Z</time></trkpt><trkpt lat="45.62985226166333" lon="0.04911605526350245"><ele>29.0</ele><time>2026-04-06T09:35:55.001Z</time></trkpt><trkpt lat="45.629759846237015" lon="0.04923161765656164"><ele>29.0</ele><time>2026-04-06T09:35:56.001Z</time></trkpt><trkpt lat="45.62966584538174" lon="0.049358807743997465"><ele>29.0</ele><time>2026-04-06T09:35:57.001Z</time></trkpt><trkpt lat="45.629573947430465" lon="0.049474775415881286"><ele>29.5</ele><time>2026-04-06T09:35:58.001Z</time></trkpt><trkpt lat="45.62947616251922" lon="0.04958071163542143"><ele>30.0</ele><time>2026-04-06T09:35:59.001Z</time></trkpt><trkpt lat="45.629358881101155" lon="0.04967529563915255"><ele>30.5</ele><time>2026-04-06T09:36:00.001Z</time></trkpt><trkpt lat="45.629238880293556" lon="0.04974934870056157"><ele>31.0</ele><time>2026-04-06T09:36:01.001Z</time></trkpt><trkpt lat="45.62911062904335" lon="0.04981854082995483"><ele>31.0</ele><time>2026-04-06T09:36:02.001Z</time></trkpt><trkpt lat="45.62898224114843" lon="0.04987872839859558"><ele>31.0</ele><time>2026-04-06T09:36:03.001Z</time></trkpt><trkpt lat="45.62884946571903" lon="0.049942637113031395"><ele>31.0</ele><time>2026-04-06T09:36:04.001Z</time></trkpt><trkpt lat="45.62872101841221" lon="0.05001505010496895"><ele>31.0</ele><time>2026-04-06T09:36:05.001Z</time></trkpt><trkpt lat="45.628587194593145" lon="0.05007854832301696"><ele>31.0</ele><time>2026-04-06T09:36:06.001Z</time></trkpt><trkpt lat="45.62845741080773" lon="0.05014434514302917"><ele>31.0</ele><time>2026-04-06T09:36:07.001Z</time></trkpt><trkpt lat="45.62833745979039" lon="0.050218539049445884"><ele>31.0</ele><time>2026-04-06T09:36:08.001Z</time></trkpt><trkpt lat="45.628215749123214" lon="0.05031204540741862"><ele>31.0</ele><time>2026-04-06T09:36:09.001Z</time></trkpt><trkpt lat="45.62809172698564" lon="0.05039947501760942"><ele>31.0</ele><time>2026-04-06T09:36:10.001Z</time></trkpt><trkpt lat="45.627972518692644" lon="0.050456194695343355"><ele>31.0</ele><time>2026-04-06T09:36:11.001Z</time></trkpt><trkpt lat="45.627857898256416" lon="0.050521262401529696"><ele>31.0</ele><time>2026-04-06T09:36:12.001Z</time></trkpt><trkpt lat="45.627744620667166" lon="0.050588114058765864"><ele>31.0</ele><time>2026-04-06T09:36:13.001Z</time></trkpt><trkpt lat="45.62765616679164" lon="0.05066156759484143"><ele>31.166666666666668</ele><time>2026-04-06T09:36:14Z</time></trkpt><trkpt lat="45.62757961488164" lon="0.050726627371818774"><ele>31.333333333333336</ele><time>2026-04-06T09:36:15Z</time></trkpt><trkpt lat="45.62749891033623" lon="0.050772296690883637"><ele>31.5</ele><time>2026-04-06T09:36:16Z</time></trkpt><trkpt lat="45.62743006865135" lon="0.05082967860597488"><ele>31.666666666666664</ele><time>2026-04-06T09:36:17Z</time></trkpt><trkpt lat="45.6273508966398" lon="0.050873486291337824"><ele>31.833333333333332</ele><time>2026-04-06T09:36:18Z</time></trkpt><trkpt lat="45.627273735852256" lon="0.05092463073904237"><ele>32.0</ele><time>2026-04-06T09:36:19Z</time></trkpt><trkpt lat="45.62720064850332" lon="0.0509601733402054"><ele>32.2</ele><time>2026-04-06T09:36:20Z</time></trkpt><trkpt lat="45.6271142951183" lon="0.05098600867916852"><ele>32.400000000000006</ele><time>2026-04-06T09:36:21Z</time></trkpt><trkpt lat="45.62705058379454" lon="0.05100000111449769"><ele>32.599999999999994</ele><time>2026-04-06T09:36:22Z</time></trkpt><trkpt lat="45.62694080264613" lon="0.051015799170790625"><ele>32.8</ele><time>2026-04-06T09:36:23Z</time></trkpt><trkpt lat="45.6268287323368" lon="0.05102320886086707"><ele>33.0</ele><time>2026-04-06T09:36:24Z</time></trkpt><trkpt lat="45.62671590632249" lon="0.05101677266885665"><ele>33.0</ele><time>2026-04-06T09:36:25Z</time></trkpt><trkpt lat="45.62660522388986" lon="0.05100915642053689"><ele>33.0</ele><time>2026-04-06T09:36:26Z</time></trkpt><trkpt lat="45.62649733269449" lon="0.05099613792258958"><ele>33.0</ele><time>2026-04-06T09:36:27Z</time></trkpt><trkpt lat="45.62638969619233" lon="0.050964123781770294"><ele>33.0</ele><time>2026-04-06T09:36:28Z</time></trkpt><trkpt lat="45.626268947796106" lon="0.05095404056401256"><ele>33.0</ele><time>2026-04-06T09:36:29Z</time></trkpt><trkpt lat="45.62615733532153" lon="0.050976196743154754"><ele>33.0</ele><time>2026-04-06T09:36:30Z</time></trkpt><trkpt lat="45.62603574437427" lon="0.0509532651324545"><ele>33.0</ele><time>2026-04-06T09:36:31Z</time></trkpt><trkpt lat="45.625928405359005" lon="0.05092532382108297"><ele>33.0</ele><time>2026-04-06T09:36:32Z</time></trkpt><trkpt lat="45.62582417335288" lon="0.0508902594521167"><ele>33.199999999999996</ele><time>2026-04-06T09:36:33Z</time></trkpt><trkpt lat="45.62572099638846" lon="0.05085856493398109"><ele>33.4</ele><time>2026-04-06T09:36:34Z</time></trkpt><trkpt lat="45.62563852704251" lon="0.05086894191743695"><ele>33.599999999999994</ele><time>2026-04-06T09:36:35Z</time></trkpt><trkpt lat="45.625567056322" lon="0.05088312632722667"><ele>33.8</ele><time>2026-04-06T09:36:36Z</time></trkpt><trkpt lat="45.625452402261516" lon="0.05091323228969563"><ele>34.0</ele><time>2026-04-06T09:36:38Z</time></trkpt><trkpt lat="45.62547819033455" lon="0.05113701034460047"><ele>34.0</ele><time>2026-04-06T09:36:39Z</time></trkpt><trkpt lat="45.6255020119388" lon="0.05123869567081537"><ele>34.0</ele><time>2026-04-06T09:36:40Z</time></trkpt><trkpt lat="45.62552225544241" lon="0.051378193079817135"><ele>34.0</ele><time>2026-04-06T09:36:41Z</time></trkpt><trkpt lat="45.625535179572985" lon="0.0514938009291775"><ele>34.0</ele><time>2026-04-06T09:36:42Z</time></trkpt><trkpt lat="45.62555012966708" lon="0.051582844718317054"><ele>34.0</ele><time>2026-04-06T09:36:43Z</time></trkpt><trkpt lat="45.62560953095575" lon="0.05173830923392525"><ele>34.0</ele><time>2026-04-06T09:36:45Z</time></trkpt><trkpt lat="45.6256925558417" lon="0.05175965161334068"><ele>34.6</ele><time>2026-04-06T09:36:46Z</time></trkpt><trkpt lat="45.62576442597462" lon="0.05180398749540851"><ele>35.2</ele><time>2026-04-06T09:36:47Z</time></trkpt><trkpt lat="45.625821396277075" lon="0.051862754106415235"><ele>35.800000000000004</ele><time>2026-04-06T09:36:48Z</time></trkpt><trkpt lat="45.62591007104318" lon="0.05194955076783754"><ele>36.4</ele><time>2026-04-06T09:36:50Z</time></trkpt><trkpt lat="45.6259209650379" lon="0.052102171963353726"><ele>37.0</ele><time>2026-04-06T09:36:51Z</time></trkpt><trkpt lat="45.62594387546877" lon="0.052242388591982575"><ele>37.0</ele><time>2026-04-06T09:36:52Z</time></trkpt><trkpt lat="45.62597042137641" lon="0.052404855253587984"><ele>37.0</ele><time>2026-04-06T09:36:53Z</time></trkpt><trkpt lat="45.62596906451179" lon="0.05251104703790529"><ele>37.0</ele><time>2026-04-06T09:36:54Z</time></trkpt><trkpt lat="45.62593705200511" lon="0.05264528654427017"><ele>37.0</ele><time>2026-04-06T09:36:56Z</time></trkpt><trkpt lat="45.62589455810813" lon="0.052739830140560114"><ele>37.0</ele><time>2026-04-06T09:36:57Z</time></trkpt><trkpt lat="45.62590610202443" lon="0.05291008260788602"><ele>37.75</ele><time>2026-04-06T09:36:58Z</time></trkpt><trkpt lat="45.62585399276641" lon="0.05305195339729047"><ele>38.5</ele><time>2026-04-06T09:36:59Z</time></trkpt><trkpt lat="45.62574078449997" lon="0.05314055682698325"><ele>39.25</ele><time>2026-04-06T09:37:00Z</time></trkpt><trkpt lat="45.62560047750288" lon="0.0532232173236197"><ele>40.0</ele><time>2026-04-06T09:37:01Z</time></trkpt><trkpt lat="45.62545042817942" lon="0.0533298627526535"><ele>39.66666666666667</ele><time>2026-04-06T09:37:02Z</time></trkpt><trkpt lat="45.625308013505034" lon="0.0534598155166546"><ele>39.333333333333336</ele><time>2026-04-06T09:37:03Z</time></trkpt><trkpt lat="45.625177694604936" lon="0.05360847746710951"><ele>39.0</ele><time>2026-04-06T09:37:04Z</time></trkpt><trkpt lat="45.6250817778226" lon="0.05377957164464679"><ele>39.0</ele><time>2026-04-06T09:37:05Z</time></trkpt><trkpt lat="45.625007282859755" lon="0.0539637951535935"><ele>39.0</ele><time>2026-04-06T09:37:06Z</time></trkpt><trkpt lat="45.62495367446077" lon="0.05416890101679291"><ele>39.0</ele><time>2026-04-06T09:37:07Z</time></trkpt><trkpt lat="45.624934194306846" lon="0.0543919185764478"><ele>42.0</ele><time>2026-04-06T09:37:08Z</time></trkpt><trkpt lat="45.6249405019862" lon="0.05463460233739432"><ele>45.0</ele><time>2026-04-06T09:37:09Z</time></trkpt><trkpt lat="45.62496418529829" lon="0.05490068197634619"><ele>48.0</ele><time>2026-04-06T09:37:10Z</time></trkpt><trkpt lat="45.625001466576634" lon="0.05521327897950547"><ele>50.5</ele><time>2026-04-06T09:37:11Z</time></trkpt><trkpt lat="45.625031909436466" lon="0.055544340705819074"><ele>53.0</ele><time>2026-04-06T09:37:12.001Z</time></trkpt><trkpt lat="45.62506454231671" lon="0.055892777305099"><ele>53.5</ele><time>2026-04-06T09:37:13.001Z</time></trkpt><trkpt lat="45.62510306573398" lon="0.056258734435670824"><ele>54.0</ele><time>2026-04-06T09:37:14.001Z</time></trkpt><trkpt lat="45.6251447660586" lon="0.05663327117506628"><ele>55.0</ele><time>2026-04-06T09:37:15.001Z</time></trkpt><trkpt lat="45.62518458403026" lon="0.05698791924652979"><ele>56.0</ele><time>2026-04-06T09:37:16.001Z</time></trkpt><trkpt lat="45.625219849163635" lon="0.057350110477811564"><ele>57.0</ele><time>2026-04-06T09:37:17.001Z</time></trkpt><trkpt lat="45.62525797236887" lon="0.057710767016278364"><ele>58.0</ele><time>2026-04-06T09:37:18.001Z</time></trkpt><trkpt lat="45.62529227680048" lon="0.05805650343705394"><ele>59.0</ele><time>2026-04-06T09:37:19.001Z</time></trkpt><trkpt lat="45.62533180750238" lon="0.058395642655990024"><ele>60.0</ele><time>2026-04-06T09:37:20.001Z</time></trkpt><trkpt lat="45.62536060651473" lon="0.05870508785688245"><ele>60.0</ele><time>2026-04-06T09:37:21.001Z</time></trkpt><trkpt lat="45.62538550682457" lon="0.05900139356019926"><ele>60.0</ele><time>2026-04-06T09:37:22.001Z</time></trkpt><trkpt lat="45.62541538973386" lon="0.059273767786050015"><ele>60.0</ele><time>2026-04-06T09:37:23.001Z</time></trkpt><trkpt lat="45.625438051537834" lon="0.05951389352193846"><ele>60.33333333333333</ele><time>2026-04-06T09:37:24.001Z</time></trkpt><trkpt lat="45.6254625048677" lon="0.05974526280826218"><ele>60.666666666666664</ele><time>2026-04-06T09:37:25.001Z</time></trkpt><trkpt lat="45.625481505220726" lon="0.05996409686584691"><ele>61.0</ele><time>2026-04-06T09:37:26.001Z</time></trkpt><trkpt lat="45.62550511919292" lon="0.060158199563649005"><ele>61.75</ele><time>2026-04-06T09:37:27.001Z</time></trkpt><trkpt lat="45.62551791230924" lon="0.06034201156569914"><ele>62.5</ele><time>2026-04-06T09:37:28.001Z</time></trkpt><trkpt lat="45.62553369174959" lon="0.060515442457890825"><ele>63.25</ele><time>2026-04-06T09:37:29.001Z</time></trkpt><trkpt lat="45.62555233342221" lon="0.06069574137789764"><ele>64.0</ele><time>2026-04-06T09:37:30.001Z</time></trkpt><trkpt lat="45.625576715281255" lon="0.060869843862109"><ele>65.0</ele><time>2026-04-06T09:37:31.001Z</time></trkpt><trkpt lat="45.62559274501164" lon="0.0610357845508509"><ele>66.0</ele><time>2026-04-06T09:37:32.001Z</time></trkpt><trkpt lat="45.62560783381064" lon="0.061196867788813045"><ele>67.0</ele><time>2026-04-06T09:37:33.001Z</time></trkpt><trkpt lat="45.62563331431972" lon="0.06135893329019648"><ele>68.0</ele><time>2026-04-06T09:37:34.001Z</time></trkpt><trkpt lat="45.62564299342545" lon="0.061548175556420344"><ele>68.25</ele><time>2026-04-06T09:37:35.001Z</time></trkpt><trkpt lat="45.62565523805493" lon="0.061727691761488956"><ele>68.5</ele><time>2026-04-06T09:37:36.001Z</time></trkpt><trkpt lat="45.625664235469436" lon="0.0618989460388553"><ele>68.75</ele><time>2026-04-06T09:37:37.001Z</time></trkpt><trkpt lat="45.62567906967598" lon="0.06206336284296124"><ele>69.0</ele><time>2026-04-06T09:37:38.001Z</time></trkpt><trkpt lat="45.62569788686237" lon="0.06221834118296123"><ele>69.0</ele><time>2026-04-06T09:37:39.001Z</time></trkpt><trkpt lat="45.62571781131413" lon="0.06236137284216002"><ele>69.0</ele><time>2026-04-06T09:37:40.001Z</time></trkpt><trkpt lat="45.625728797016215" lon="0.062503001270592"><ele>69.0</ele><time>2026-04-06T09:37:41.001Z</time></trkpt><trkpt lat="45.625717713911826" lon="0.06263570706575446"><ele>69.0</ele><time>2026-04-06T09:37:42.001Z</time></trkpt><trkpt lat="45.625698090010054" lon="0.06275190647722093"><ele>69.0</ele><time>2026-04-06T09:37:43.001Z</time></trkpt><trkpt lat="45.62573093512711" lon="0.06287334143594321"><ele>68.25</ele><time>2026-04-06T09:37:44.001Z</time></trkpt><trkpt lat="45.62578722268095" lon="0.06301174138969506"><ele>67.5</ele><time>2026-04-06T09:37:45.001Z</time></trkpt><trkpt lat="45.625815848344494" lon="0.0631721228399193"><ele>66.75</ele><time>2026-04-06T09:37:46.001Z</time></trkpt><trkpt lat="45.62581726228719" lon="0.06335455631867723"><ele>66.0</ele><time>2026-04-06T09:37:47.001Z</time></trkpt><trkpt lat="45.62583648565916" lon="0.06354554748826804"><ele>65.33333333333333</ele><time>2026-04-06T09:37:48.001Z</time></trkpt><trkpt lat="45.62587108994339" lon="0.06373518040061059"><ele>64.66666666666666</ele><time>2026-04-06T09:37:49.001Z</time></trkpt><trkpt lat="45.625891766659926" lon="0.06396241799589815"><ele>64.0</ele><time>2026-04-06T09:37:50.001Z</time></trkpt><trkpt lat="45.625909765439296" lon="0.06419111138991364"><ele>64.0</ele><time>2026-04-06T09:37:51.001Z</time></trkpt><trkpt lat="45.62593400004551" lon="0.06442326989997944"><ele>64.0</ele><time>2026-04-06T09:37:52.001Z</time></trkpt><trkpt lat="45.6259678355062" lon="0.06466338762953096"><ele>64.0</ele><time>2026-04-06T09:37:53.001Z</time></trkpt><trkpt lat="45.625989963184836" lon="0.06491460731986712"><ele>63.33333333333333</ele><time>2026-04-06T09:37:54.001Z</time></trkpt><trkpt lat="45.62602171746089" lon="0.06516220547422227"><ele>62.66666666666667</ele><time>2026-04-06T09:37:55.001Z</time></trkpt><trkpt lat="45.62605004700545" lon="0.06542079580489252"><ele>62.0</ele><time>2026-04-06T09:37:56.001Z</time></trkpt><trkpt lat="45.62607702159894" lon="0.0656877482797349"><ele>61.66666666666667</ele><time>2026-04-06T09:37:57.001Z</time></trkpt><trkpt lat="45.626102031857485" lon="0.06595446847086271"><ele>61.33333333333333</ele><time>2026-04-06T09:37:58.001Z</time></trkpt><trkpt lat="45.6261273082328" lon="0.06622425746841006"><ele>61.0</ele><time>2026-04-06T09:37:59.001Z</time></trkpt><trkpt lat="45.62615175548418" lon="0.06649503735086476"><ele>62.33333333333333</ele><time>2026-04-06T09:38:00.001Z</time></trkpt><trkpt lat="45.62617775947667" lon="0.06676214756937016"><ele>63.66666666666667</ele><time>2026-04-06T09:38:01.001Z</time></trkpt><trkpt lat="45.62620955600762" lon="0.06702507811009323"><ele>65.0</ele><time>2026-04-06T09:38:02.001Z</time></trkpt><trkpt lat="45.626251604345356" lon="0.06726718789244387"><ele>65.33333333333334</ele><time>2026-04-06T09:38:03.001Z</time></trkpt><trkpt lat="45.62631328916941" lon="0.0674794470491463"><ele>65.66666666666667</ele><time>2026-04-06T09:38:04.001Z</time></trkpt><trkpt lat="45.62638416094703" lon="0.06768084426606857"><ele>66.0</ele><time>2026-04-06T09:38:05.001Z</time></trkpt><trkpt lat="45.626474942001444" lon="0.06786230073818857"><ele>66.0</ele><time>2026-04-06T09:38:06.001Z</time></trkpt><trkpt lat="45.626567412022844" lon="0.06802953521172565"><ele>66.0</ele><time>2026-04-06T09:38:07.001Z</time></trkpt><trkpt lat="45.62665960363973" lon="0.0682111763530237"><ele>66.0</ele><time>2026-04-06T09:38:08.001Z</time></trkpt><trkpt lat="45.62673769868078" lon="0.06839776180322646"><ele>65.75</ele><time>2026-04-06T09:38:09.001Z</time></trkpt><trkpt lat="45.62679859376846" lon="0.06860788672876715"><ele>65.5</ele><time>2026-04-06T09:38:10.001Z</time></trkpt><trkpt lat="45.6268144315977" lon="0.06879821287694349"><ele>65.25</ele><time>2026-04-06T09:38:11.001Z</time></trkpt><trkpt lat="45.62680895426233" lon="0.0689664578247738"><ele>65.0</ele><time>2026-04-06T09:38:12.001Z</time></trkpt><trkpt lat="45.62678363611536" lon="0.06910718458362958"><ele>65.0</ele><time>2026-04-06T09:38:13.001Z</time></trkpt><trkpt lat="45.62679108920327" lon="0.06924121738211841"><ele>65.0</ele><time>2026-04-06T09:38:14.001Z</time></trkpt><trkpt lat="45.626848116104895" lon="0.06936782790351365"><ele>65.0</ele><time>2026-04-06T09:38:15.001Z</time></trkpt><trkpt lat="45.62691509579444" lon="0.06954417192938923"><ele>65.0</ele><time>2026-04-06T09:38:16.001Z</time></trkpt><trkpt lat="45.62695142110113" lon="0.06978074109935438"><ele>66.0</ele><time>2026-04-06T09:38:17.001Z</time></trkpt><trkpt lat="45.62695285558063" lon="0.07005641878034205"><ele>67.0</ele><time>2026-04-06T09:38:18.001Z</time></trkpt><trkpt lat="45.626936465727574" lon="0.07032879347323386"><ele>68.0</ele><time>2026-04-06T09:38:19.001Z</time></trkpt><trkpt lat="45.62691627612202" lon="0.07063812193687637"><ele>68.66666666666667</ele><time>2026-04-06T09:38:20Z</time></trkpt><trkpt lat="45.62689751411988" lon="0.0709472278288344"><ele>69.33333333333333</ele><time>2026-04-06T09:38:21Z</time></trkpt><trkpt lat="45.62687486091546" lon="0.07124675697947853"><ele>70.0</ele><time>2026-04-06T09:38:22Z</time></trkpt><trkpt lat="45.626858168149745" lon="0.07156035131665199"><ele>70.33333333333333</ele><time>2026-04-06T09:38:23Z</time></trkpt><trkpt lat="45.62684747159383" lon="0.07188062103815997"><ele>70.66666666666667</ele><time>2026-04-06T09:38:24Z</time></trkpt><trkpt lat="45.62683823775859" lon="0.07219261892926676"><ele>71.0</ele><time>2026-04-06T09:38:25Z</time></trkpt><trkpt lat="45.62683372045687" lon="0.07247927070108393"><ele>71.0</ele><time>2026-04-06T09:38:26Z</time></trkpt><trkpt lat="45.626840404057425" lon="0.0727545974041488"><ele>71.0</ele><time>2026-04-06T09:38:27Z</time></trkpt><trkpt lat="45.62685901692264" lon="0.07304470755584568"><ele>71.0</ele><time>2026-04-06T09:38:28Z</time></trkpt><trkpt lat="45.626886180891255" lon="0.07332597467227661"><ele>71.0</ele><time>2026-04-06T09:38:29Z</time></trkpt><trkpt lat="45.62692183159798" lon="0.07360310150806118"><ele>71.0</ele><time>2026-04-06T09:38:30Z</time></trkpt><trkpt lat="45.626961751530224" lon="0.07387444554769203"><ele>71.0</ele><time>2026-04-06T09:38:31Z</time></trkpt><trkpt lat="45.627009222309" lon="0.074130161890852"><ele>68.0</ele><time>2026-04-06T09:38:32Z</time></trkpt><trkpt lat="45.627064917953014" lon="0.07436872686765607"><ele>65.0</ele><time>2026-04-06T09:38:33Z</time></trkpt><trkpt lat="45.62712376447263" lon="0.0745922272376332"><ele>62.0</ele><time>2026-04-06T09:38:34Z</time></trkpt><trkpt lat="45.627185345200175" lon="0.07480085090795711"><ele>62.25</ele><time>2026-04-06T09:38:35Z</time></trkpt><trkpt lat="45.62724236767057" lon="0.07499888386983436"><ele>62.5</ele><time>2026-04-06T09:38:36Z</time></trkpt><trkpt lat="45.62730352827356" lon="0.07518357471762797"><ele>62.75</ele><time>2026-04-06T09:38:37Z</time></trkpt><trkpt lat="45.62735712736071" lon="0.0753554975264395"><ele>63.0</ele><time>2026-04-06T09:38:38Z</time></trkpt><trkpt lat="45.62740861386533" lon="0.07550748769394441"><ele>63.0</ele><time>2026-04-06T09:38:39Z</time></trkpt><trkpt lat="45.62740398378689" lon="0.07568166839817639"><ele>63.0</ele><time>2026-04-06T09:38:40Z</time></trkpt><trkpt lat="45.62739266717675" lon="0.0758522824861144"><ele>63.0</ele><time>2026-04-06T09:38:41Z</time></trkpt><trkpt lat="45.62734698716083" lon="0.07601720967661224"><ele>63.0</ele><time>2026-04-06T09:38:42Z</time></trkpt><trkpt lat="45.62726757844387" lon="0.07617490162022698"><ele>63.75</ele><time>2026-04-06T09:38:43Z</time></trkpt><trkpt lat="45.627162709448136" lon="0.07631945395148186"><ele>64.5</ele><time>2026-04-06T09:38:44Z</time></trkpt><trkpt lat="45.62704289410437" lon="0.07643523993853073"><ele>65.25</ele><time>2026-04-06T09:38:45Z</time></trkpt><trkpt lat="45.62691626040542" lon="0.0765514520074806"><ele>66.0</ele><time>2026-04-06T09:38:46Z</time></trkpt><trkpt lat="45.62680952250253" lon="0.07669356642031508"><ele>67.5</ele><time>2026-04-06T09:38:47Z</time></trkpt><trkpt lat="45.626711405296795" lon="0.07681647950446643"><ele>69.0</ele><time>2026-04-06T09:38:48Z</time></trkpt><trkpt lat="45.62661540162276" lon="0.0768983934317585"><ele>70.5</ele><time>2026-04-06T09:38:49Z</time></trkpt><trkpt lat="45.62653874465805" lon="0.07698422565845332"><ele>72.0</ele><time>2026-04-06T09:38:50Z</time></trkpt><trkpt lat="45.62651152914101" lon="0.07714507650590922"><ele>72.0</ele><time>2026-04-06T09:38:51Z</time></trkpt><trkpt lat="45.626427651051756" lon="0.07728956503480289"><ele>72.0</ele><time>2026-04-06T09:38:52Z</time></trkpt><trkpt lat="45.6263643808505" lon="0.07750103090516569"><ele>72.0</ele><time>2026-04-06T09:38:53Z</time></trkpt><trkpt lat="45.62621382315411" lon="0.07794789382182984"><ele>73.0</ele><time>2026-04-06T09:38:55Z</time></trkpt><trkpt lat="45.6261927528898" lon="0.07823464127483262"><ele>74.0</ele><time>2026-04-06T09:38:56Z</time></trkpt><trkpt lat="45.626203107619176" lon="0.07851708039698829"><ele>75.0</ele><time>2026-04-06T09:38:57Z</time></trkpt><trkpt lat="45.62623805567648" lon="0.0787921003037515"><ele>75.33333333333333</ele><time>2026-04-06T09:38:58Z</time></trkpt><trkpt lat="45.62630594510742" lon="0.07905600151434994"><ele>75.66666666666666</ele><time>2026-04-06T09:38:59Z</time></trkpt><trkpt lat="45.62638772070763" lon="0.07933017522461917"><ele>76.0</ele><time>2026-04-06T09:39:00Z</time></trkpt><trkpt lat="45.62650144603488" lon="0.0796110373869723"><ele>76.5</ele><time>2026-04-06T09:39:01Z</time></trkpt><trkpt lat="45.626622356388815" lon="0.07990515720566212"><ele>77.0</ele><time>2026-04-06T09:39:02Z</time></trkpt><trkpt lat="45.62674565997087" lon="0.08021127915580444"><ele>78.0</ele><time>2026-04-06T09:39:03Z</time></trkpt><trkpt lat="45.626874993184835" lon="0.0805325899805705"><ele>79.0</ele><time>2026-04-06T09:39:04Z</time></trkpt><trkpt lat="45.62699866678479" lon="0.08086806542716349"><ele>79.5</ele><time>2026-04-06T09:39:05Z</time></trkpt><trkpt lat="45.62712066466665" lon="0.08118228379890217"><ele>80.0</ele><time>2026-04-06T09:39:06Z</time></trkpt><trkpt lat="45.627247554905374" lon="0.0815126870462108"><ele>80.0</ele><time>2026-04-06T09:39:07Z</time></trkpt><trkpt lat="45.62737458784687" lon="0.08184675605110203"><ele>80.0</ele><time>2026-04-06T09:39:08Z</time></trkpt><trkpt lat="45.62750183081827" lon="0.08219073852397403"><ele>78.5</ele><time>2026-04-06T09:39:09Z</time></trkpt><trkpt lat="45.627631256788966" lon="0.08253020953400267"><ele>77.0</ele><time>2026-04-06T09:39:10Z</time></trkpt><trkpt lat="45.62776408361918" lon="0.08286919426715808"><ele>76.5</ele><time>2026-04-06T09:39:11Z</time></trkpt><trkpt lat="45.62789085359881" lon="0.08321178966838341"><ele>76.0</ele><time>2026-04-06T09:39:12Z</time></trkpt><trkpt lat="45.62802076211792" lon="0.08354713667846589"><ele>76.0</ele><time>2026-04-06T09:39:13Z</time></trkpt><trkpt lat="45.6281429320717" lon="0.0838745100288697"><ele>76.0</ele><time>2026-04-06T09:39:14Z</time></trkpt><trkpt lat="45.62825366224209" lon="0.08418582225305127"><ele>74.5</ele><time>2026-04-06T09:39:15Z</time></trkpt><trkpt lat="45.62834666810062" lon="0.08449888217112969"><ele>73.0</ele><time>2026-04-06T09:39:16Z</time></trkpt><trkpt lat="45.62842432062338" lon="0.08483163659935539"><ele>72.0</ele><time>2026-04-06T09:39:17Z</time></trkpt><trkpt lat="45.62847069958295" lon="0.08516842864849063"><ele>71.0</ele><time>2026-04-06T09:39:18Z</time></trkpt><trkpt lat="45.62849482639083" lon="0.08550010402842854"><ele>70.0</ele><time>2026-04-06T09:39:19Z</time></trkpt><trkpt lat="45.62849106399483" lon="0.08582872343687616"><ele>69.0</ele><time>2026-04-06T09:39:20Z</time></trkpt><trkpt lat="45.628461415790504" lon="0.0861532597597103"><ele>69.0</ele><time>2026-04-06T09:39:21Z</time></trkpt><trkpt lat="45.62841360813126" lon="0.0864801221711348"><ele>69.0</ele><time>2026-04-06T09:39:22Z</time></trkpt><trkpt lat="45.6283403784216" lon="0.08678151747432089"><ele>69.5</ele><time>2026-04-06T09:39:23Z</time></trkpt><trkpt lat="45.628242606503484" lon="0.08708181672360046"><ele>70.0</ele><time>2026-04-06T09:39:24Z</time></trkpt><trkpt lat="45.62812557834547" lon="0.08736429814744794"><ele>69.0</ele><time>2026-04-06T09:39:25Z</time></trkpt><trkpt lat="45.62798522707269" lon="0.08765180035028773"><ele>68.0</ele><time>2026-04-06T09:39:26Z</time></trkpt><trkpt lat="45.627822474742544" lon="0.08791687205513182"><ele>68.5</ele><time>2026-04-06T09:39:27Z</time></trkpt><trkpt lat="45.627642098944555" lon="0.08814774637304099"><ele>69.0</ele><time>2026-04-06T09:39:28Z</time></trkpt><trkpt lat="45.62745754068091" lon="0.0883751407978306"><ele>69.0</ele><time>2026-04-06T09:39:29Z</time></trkpt><trkpt lat="45.62729108820642" lon="0.08862249217821591"><ele>69.0</ele><time>2026-04-06T09:39:30Z</time></trkpt><trkpt lat="45.62700570882945" lon="0.08872527398777694"><ele>67.5</ele><time>2026-04-06T09:39:31Z</time></trkpt><trkpt lat="45.62678203565032" lon="0.08892503095727794"><ele>66.0</ele><time>2026-04-06T09:39:32Z</time></trkpt><trkpt lat="45.62656236947211" lon="0.08912873187433133"><ele>66.0</ele><time>2026-04-06T09:39:33Z</time></trkpt><trkpt lat="45.62633422645239" lon="0.0893381705531992"><ele>66.0</ele><time>2026-04-06T09:39:34Z</time></trkpt><trkpt lat="45.62610995034023" lon="0.08955272985923203"><ele>67.5</ele><time>2026-04-06T09:39:35Z</time></trkpt><trkpt lat="45.62587886112397" lon="0.08976315278300646"><ele>69.0</ele><time>2026-04-06T09:39:36Z</time></trkpt><trkpt lat="45.62564738317545" lon="0.08996514346601342"><ele>69.0</ele><time>2026-04-06T09:39:37Z</time></trkpt><trkpt lat="45.62541391507023" lon="0.0901717497830961"><ele>69.0</ele><time>2026-04-06T09:39:38Z</time></trkpt><trkpt lat="45.62517840250564" lon="0.09038150167722371"><ele>69.0</ele><time>2026-04-06T09:39:39.001Z</time></trkpt><trkpt lat="45.62494485046656" lon="0.09059071786983529"><ele>69.0</ele><time>2026-04-06T09:39:40.001Z</time></trkpt><trkpt lat="45.624709072783574" lon="0.09079359740683497"><ele>69.0</ele><time>2026-04-06T09:39:41.001Z</time></trkpt><trkpt lat="45.62446797316447" lon="0.09100392212029798"><ele>69.0</ele><time>2026-04-06T09:39:42.001Z</time></trkpt><trkpt lat="45.624227814841646" lon="0.09120597689448734"><ele>69.0</ele><time>2026-04-06T09:39:43.001Z</time></trkpt><trkpt lat="45.623990559757445" lon="0.09141605962505173"><ele>69.0</ele><time>2026-04-06T09:39:44.001Z</time></trkpt><trkpt lat="45.623753220468615" lon="0.09161928804790521"><ele>68.0</ele><time>2026-04-06T09:39:45.001Z</time></trkpt><trkpt lat="45.623517248023965" lon="0.09182977953923803"><ele>67.0</ele><time>2026-04-06T09:39:46.001Z</time></trkpt><trkpt lat="45.623281427318766" lon="0.09204133138657551"><ele>67.0</ele><time>2026-04-06T09:39:47.001Z</time></trkpt><trkpt lat="45.62304779494097" lon="0.0922619497088175"><ele>67.0</ele><time>2026-04-06T09:39:48.001Z</time></trkpt><trkpt lat="45.62281633198429" lon="0.09246772373383633"><ele>65.5</ele><time>2026-04-06T09:39:49.001Z</time></trkpt><trkpt lat="45.622590441282995" lon="0.09270632008458521"><ele>64.0</ele><time>2026-04-06T09:39:50.001Z</time></trkpt><trkpt lat="45.62237091237493" lon="0.09293510138503168"><ele>64.0</ele><time>2026-04-06T09:39:51.001Z</time></trkpt><trkpt lat="45.62215129685294" lon="0.093175650577209"><ele>64.0</ele><time>2026-04-06T09:39:52.001Z</time></trkpt><trkpt lat="45.62193353047364" lon="0.09340640014378332"><ele>63.5</ele><time>2026-04-06T09:39:53.001Z</time></trkpt><trkpt lat="45.62170732327768" lon="0.09364447214020226"><ele>63.0</ele><time>2026-04-06T09:39:54.001Z</time></trkpt><trkpt lat="45.62148761885165" lon="0.09386923804202581"><ele>63.0</ele><time>2026-04-06T09:39:55.001Z</time></trkpt><trkpt lat="45.62126595050816" lon="0.09408293645683494"><ele>63.0</ele><time>2026-04-06T09:39:56.001Z</time></trkpt><trkpt lat="45.62084230595537" lon="0.0944565068939971"><ele>62.66666666666667</ele><time>2026-04-06T09:39:58.001Z</time></trkpt><trkpt lat="45.62063953850637" lon="0.09460725290193936"><ele>62.333333333333336</ele><time>2026-04-06T09:39:59.001Z</time></trkpt><trkpt lat="45.620457785305206" lon="0.09473716125327192"><ele>62.0</ele><time>2026-04-06T09:40:00.001Z</time></trkpt><trkpt lat="45.62028423144609" lon="0.09483601596509547"><ele>62.0</ele><time>2026-04-06T09:40:01.001Z</time></trkpt><trkpt lat="45.62011288527919" lon="0.09490551267568571"><ele>62.0</ele><time>2026-04-06T09:40:02.001Z</time></trkpt><trkpt lat="45.61994882660862" lon="0.09496250564501804"><ele>62.0</ele><time>2026-04-06T09:40:03.001Z</time></trkpt><trkpt lat="45.619796134139854" lon="0.0949988709347705"><ele>62.0</ele><time>2026-04-06T09:40:04.001Z</time></trkpt><trkpt lat="45.61965268261131" lon="0.09503892820807347"><ele>62.0</ele><time>2026-04-06T09:40:05.001Z</time></trkpt><trkpt lat="45.619524847236136" lon="0.09507753926567396"><ele>62.0</ele><time>2026-04-06T09:40:06.001Z</time></trkpt><trkpt lat="45.61940508321509" lon="0.09513049910787012"><ele>62.0</ele><time>2026-04-06T09:40:07.001Z</time></trkpt><trkpt lat="45.61929153306474" lon="0.09520214903615863"><ele>62.0</ele><time>2026-04-06T09:40:08.001Z</time></trkpt><trkpt lat="45.61919230594534" lon="0.09529802264944459"><ele>62.0</ele><time>2026-04-06T09:40:09.001Z</time></trkpt><trkpt lat="45.61911354333397" lon="0.09542313435127973"><ele>62.0</ele><time>2026-04-06T09:40:10.001Z</time></trkpt><trkpt lat="45.619058131144754" lon="0.09556777128426852"><ele>62.0</ele><time>2026-04-06T09:40:11.001Z</time></trkpt><trkpt lat="45.61901843776302" lon="0.09570389971468744"><ele>62.333333333333336</ele><time>2026-04-06T09:40:12.001Z</time></trkpt><trkpt lat="45.618988536665555" lon="0.095831606627492"><ele>62.66666666666667</ele><time>2026-04-06T09:40:13.001Z</time></trkpt><trkpt lat="45.61897038952061" lon="0.09595694261601154"><ele>63.0</ele><time>2026-04-06T09:40:14.001Z</time></trkpt><trkpt lat="45.618936012471515" lon="0.09606973600130715"><ele>63.33333333333333</ele><time>2026-04-06T09:40:15.001Z</time></trkpt><trkpt lat="45.61888044697842" lon="0.09616239148472666"><ele>63.666666666666664</ele><time>2026-04-06T09:40:16.001Z</time></trkpt><trkpt lat="45.618846821852635" lon="0.09626365900614278"><ele>64.0</ele><time>2026-04-06T09:40:17.001Z</time></trkpt><trkpt lat="45.61884825571369" lon="0.09635911789847076"><ele>64.0</ele><time>2026-04-06T09:40:18.001Z</time></trkpt><trkpt lat="45.61891455909328" lon="0.09651517155514135"><ele>64.0</ele><time>2026-04-06T09:40:20.001Z</time></trkpt><trkpt lat="45.61893080922666" lon="0.09661649634209929"><ele>64.0</ele><time>2026-04-06T09:40:21.001Z</time></trkpt><trkpt lat="45.61892943035276" lon="0.0967409075730877"><ele>64.0</ele><time>2026-04-06T09:40:22.001Z</time></trkpt><trkpt lat="45.618914582574796" lon="0.09688343860194636"><ele>64.0</ele><time>2026-04-06T09:40:23.001Z</time></trkpt><trkpt lat="45.61888449899753" lon="0.09703582889991745"><ele>64.0</ele><time>2026-04-06T09:40:24.001Z</time></trkpt><trkpt lat="45.618852806960376" lon="0.09719045897827885"><ele>64.0</ele><time>2026-04-06T09:40:25.001Z</time></trkpt><trkpt lat="45.61881796161493" lon="0.09734201505994075"><ele>64.0</ele><time>2026-04-06T09:40:26Z</time></trkpt><trkpt lat="45.61877191822972" lon="0.09750712186153235"><ele>64.0</ele><time>2026-04-06T09:40:27Z</time></trkpt><trkpt lat="45.61872903531615" lon="0.09767327659702159"><ele>64.0</ele><time>2026-04-06T09:40:28Z</time></trkpt><trkpt lat="45.6186881426058" lon="0.09784635134950892"><ele>64.0</ele><time>2026-04-06T09:40:29Z</time></trkpt><trkpt lat="45.61864743988161" lon="0.09802049203287906"><ele>64.0</ele><time>2026-04-06T09:40:30Z</time></trkpt><trkpt lat="45.618605044099674" lon="0.09819587708382731"><ele>64.0</ele><time>2026-04-06T09:40:31Z</time></trkpt><trkpt lat="45.618564349352596" lon="0.09836851153063288"><ele>63.5</ele><time>2026-04-06T09:40:32Z</time></trkpt><trkpt lat="45.61852040777126" lon="0.09853885808012759"><ele>63.0</ele><time>2026-04-06T09:40:33Z</time></trkpt><trkpt lat="45.618476770874935" lon="0.0987083717832972"><ele>62.5</ele><time>2026-04-06T09:40:34Z</time></trkpt><trkpt lat="45.61843804287853" lon="0.09888313703234833"><ele>62.0</ele><time>2026-04-06T09:40:35Z</time></trkpt><trkpt lat="45.61840359870225" lon="0.09904885176046152"><ele>62.0</ele><time>2026-04-06T09:40:36Z</time></trkpt><trkpt lat="45.618365736697434" lon="0.0991937436116932"><ele>62.0</ele><time>2026-04-06T09:40:37Z</time></trkpt><trkpt lat="45.61831459984375" lon="0.09933344591835432"><ele>62.0</ele><time>2026-04-06T09:40:38Z</time></trkpt><trkpt lat="45.61826300694831" lon="0.09946552343625326"><ele>62.0</ele><time>2026-04-06T09:40:39Z</time></trkpt><trkpt lat="45.618214147800366" lon="0.09959118709895952"><ele>62.0</ele><time>2026-04-06T09:40:40Z</time></trkpt><trkpt lat="45.61816177721296" lon="0.09970268221825311"><ele>62.00000000000001</ele><time>2026-04-06T09:40:41Z</time></trkpt><trkpt lat="45.61810395242032" lon="0.09982364133459198"><ele>62.0</ele><time>2026-04-06T09:40:42Z</time></trkpt><trkpt lat="45.61804246169377" lon="0.09992756505836184"><ele>62.0</ele><time>2026-04-06T09:40:43Z</time></trkpt><trkpt lat="45.6179886200523" lon="0.10000038834100464"><ele>62.0</ele><time>2026-04-06T09:40:44Z</time></trkpt><trkpt lat="45.61793356302624" lon="0.10004972848247186"><ele>62.00000000000001</ele><time>2026-04-06T09:40:45Z</time></trkpt><trkpt lat="45.61786103613627" lon="0.10009235739922484"><ele>62.0</ele><time>2026-04-06T09:40:46Z</time></trkpt><trkpt lat="45.61778467912832" lon="0.10014510673540293"><ele>61.66666666666667</ele><time>2026-04-06T09:40:47Z</time></trkpt><trkpt lat="45.617733928849724" lon="0.1002178595706536"><ele>61.333333333333336</ele><time>2026-04-06T09:40:48Z</time></trkpt><trkpt lat="45.61771851464051" lon="0.10030592547534142"><ele>61.0</ele><time>2026-04-06T09:40:49Z</time></trkpt><trkpt lat="45.61774051179042" lon="0.10039246312328602"><ele>60.66666666666667</ele><time>2026-04-06T09:40:50Z</time></trkpt><trkpt lat="45.617858849342376" lon="0.10046460101100085"><ele>60.333333333333336</ele><time>2026-04-06T09:40:52Z</time></trkpt><trkpt lat="45.61792658664012" lon="0.10045840147644068"><ele>60.0</ele><time>2026-04-06T09:40:53Z</time></trkpt><trkpt lat="45.61798087792103" lon="0.10037312787006057"><ele>60.4</ele><time>2026-04-06T09:40:54Z</time></trkpt><trkpt lat="45.61800121296271" lon="0.10025903822182654"><ele>60.8</ele><time>2026-04-06T09:40:55Z</time></trkpt><trkpt lat="45.61800903457275" lon="0.10013851788388294"><ele>61.2</ele><time>2026-04-06T09:40:56Z</time></trkpt><trkpt lat="45.61805341118035" lon="0.10002251497160104"><ele>61.6</ele><time>2026-04-06T09:40:57Z</time></trkpt><trkpt lat="45.61811111220563" lon="0.09990321968683291"><ele>62.0</ele><time>2026-04-06T09:40:58Z</time></trkpt><trkpt lat="45.6181870746022" lon="0.09979673648625972"><ele>62.0</ele><time>2026-04-06T09:40:59Z</time></trkpt><trkpt lat="45.618243334772224" lon="0.09967911427551919"><ele>62.0</ele><time>2026-04-06T09:41:00Z</time></trkpt><trkpt lat="45.618284890499325" lon="0.09958257595348015"><ele>62.0</ele><time>2026-04-06T09:41:01Z</time></trkpt><trkpt lat="45.618375545867515" lon="0.0995384721725873"><ele>62.0</ele><time>2026-04-06T09:41:03Z</time></trkpt><trkpt lat="45.61848517037039" lon="0.09967163946512189"><ele>62.0</ele><time>2026-04-06T09:41:05Z</time></trkpt><trkpt lat="45.618569526181645" lon="0.09980807909223796"><ele>63.6</ele><time>2026-04-06T09:41:06Z</time></trkpt><trkpt lat="45.618671791706994" lon="0.09994760023102392"><ele>65.2</ele><time>2026-04-06T09:41:07Z</time></trkpt><trkpt lat="45.618762332977" lon="0.10006075209314362"><ele>66.8</ele><time>2026-04-06T09:41:08Z</time></trkpt><trkpt lat="45.61882661605159" lon="0.10011595418448163"><ele>68.4</ele><time>2026-04-06T09:41:09Z</time></trkpt><trkpt lat="45.6189049793626" lon="0.10012731219073522"><ele>70.0</ele><time>2026-04-06T09:41:11Z</time></trkpt><trkpt lat="45.618986991891" lon="0.10005811871054797"><ele>70.0</ele><time>2026-04-06T09:41:13Z</time></trkpt><trkpt lat="45.619000845189305" lon="0.0999245284807545"><ele>70.0</ele><time>2026-04-06T09:41:14Z</time></trkpt><trkpt lat="45.619014520235275" lon="0.09983333460696264"><ele>70.0</ele><time>2026-04-06T09:41:15Z</time></trkpt><trkpt lat="45.619057465288314" lon="0.09971394069931802"><ele>70.0</ele><time>2026-04-06T09:41:17Z</time></trkpt><trkpt lat="45.619158029146945" lon="0.09969636970698942"><ele>70.0</ele><time>2026-04-06T09:41:19Z</time></trkpt><trkpt lat="45.619252077339134" lon="0.09967941639576844"><ele>69.8</ele><time>2026-04-06T09:41:20Z</time></trkpt><trkpt lat="45.61935036140084" lon="0.09966449119717163"><ele>69.6</ele><time>2026-04-06T09:41:21Z</time></trkpt><trkpt lat="45.619435391714205" lon="0.09964606926850295"><ele>69.4</ele><time>2026-04-06T09:41:22Z</time></trkpt><trkpt lat="45.619521832268326" lon="0.09961236399409863"><ele>69.2</ele><time>2026-04-06T09:41:23Z</time></trkpt><trkpt lat="45.61961544809646" lon="0.09960842101189754"><ele>69.0</ele><time>2026-04-06T09:41:24Z</time></trkpt><trkpt lat="45.61972154041458" lon="0.09961541171803392"><ele>68.75</ele><time>2026-04-06T09:41:25Z</time></trkpt><trkpt lat="45.61985359873284" lon="0.09964110442779828"><ele>68.5</ele><time>2026-04-06T09:41:26Z</time></trkpt><trkpt lat="45.619998511490856" lon="0.09964066246043249"><ele>68.25</ele><time>2026-04-06T09:41:27Z</time></trkpt><trkpt lat="45.62016835559187" lon="0.09963215165450509"><ele>68.0</ele><time>2026-04-06T09:41:28Z</time></trkpt><trkpt lat="45.62029935227766" lon="0.09963296767578836"><ele>66.25</ele><time>2026-04-06T09:41:29Z</time></trkpt><trkpt lat="45.62042694463227" lon="0.09967610744570148"><ele>64.5</ele><time>2026-04-06T09:41:30Z</time></trkpt><trkpt lat="45.62055194426203" lon="0.09975778724506822"><ele>62.75</ele><time>2026-04-06T09:41:31Z</time></trkpt><trkpt lat="45.62069365871373" lon="0.09987120231534136"><ele>61.0</ele><time>2026-04-06T09:41:32Z</time></trkpt><trkpt lat="45.62083167804998" lon="0.09998814870392607"><ele>60.0</ele><time>2026-04-06T09:41:33Z</time></trkpt><trkpt lat="45.62097810450955" lon="0.10011135160895092"><ele>59.0</ele><time>2026-04-06T09:41:34Z</time></trkpt><trkpt lat="45.62114003616742" lon="0.10024244292365428"><ele>58.0</ele><time>2026-04-06T09:41:35Z</time></trkpt><trkpt lat="45.6213008542646" lon="0.1003744812791026"><ele>57.666666666666664</ele><time>2026-04-06T09:41:36Z</time></trkpt><trkpt lat="45.62146510271017" lon="0.10050876856480818"><ele>57.33333333333333</ele><time>2026-04-06T09:41:37Z</time></trkpt><trkpt lat="45.6216281644085" lon="0.10063398457533602"><ele>57.0</ele><time>2026-04-06T09:41:38.001Z</time></trkpt><trkpt lat="45.621787286276934" lon="0.10076722943884113"><ele>56.33333333333333</ele><time>2026-04-06T09:41:39.001Z</time></trkpt><trkpt lat="45.62193740990807" lon="0.10088483731353695"><ele>55.666666666666664</ele><time>2026-04-06T09:41:40.001Z</time></trkpt><trkpt lat="45.62208823022345" lon="0.10098881094528886"><ele>55.0</ele><time>2026-04-06T09:41:41.001Z</time></trkpt><trkpt lat="45.622201470298336" lon="0.10108181290724728"><ele>54.8</ele><time>2026-04-06T09:41:42.001Z</time></trkpt><trkpt lat="45.62229589998739" lon="0.10115331354502172"><ele>54.6</ele><time>2026-04-06T09:41:43.001Z</time></trkpt><trkpt lat="45.62236777121622" lon="0.10120683675576161"><ele>54.400000000000006</ele><time>2026-04-06T09:41:44.001Z</time></trkpt><trkpt lat="45.6224207069661" lon="0.1012609420342125"><ele>54.2</ele><time>2026-04-06T09:41:45.001Z</time></trkpt><trkpt lat="45.6224863380296" lon="0.10129922338926775"><ele>54.0</ele><time>2026-04-06T09:41:46.001Z</time></trkpt><trkpt lat="45.62251108491044" lon="0.10148484388353728"><ele>53.5</ele><time>2026-04-06T09:41:47.001Z</time></trkpt><trkpt lat="45.62255844910962" lon="0.10164315925709515"><ele>53.0</ele><time>2026-04-06T09:41:48.001Z</time></trkpt><trkpt lat="45.622619757964806" lon="0.10181007716046526"><ele>52.5</ele><time>2026-04-06T09:41:49.001Z</time></trkpt><trkpt lat="45.622676640847146" lon="0.10197012193676713"><ele>52.0</ele><time>2026-04-06T09:41:50.001Z</time></trkpt><trkpt lat="45.62273887497425" lon="0.1021308606136718"><ele>52.0</ele><time>2026-04-06T09:41:51.001Z</time></trkpt><trkpt lat="45.62280033832979" lon="0.1023102253303718"><ele>52.0</ele><time>2026-04-06T09:41:52.001Z</time></trkpt><trkpt lat="45.62286023909041" lon="0.10248830574077458"><ele>52.0</ele><time>2026-04-06T09:41:53.001Z</time></trkpt><trkpt lat="45.62292978120156" lon="0.10265326415519178"><ele>52.0</ele><time>2026-04-06T09:41:54.001Z</time></trkpt><trkpt lat="45.62298121061931" lon="0.1028400423854571"><ele>52.75</ele><time>2026-04-06T09:41:55.001Z</time></trkpt><trkpt lat="45.62302855176657" lon="0.10303664842022586"><ele>53.5</ele><time>2026-04-06T09:41:56.001Z</time></trkpt><trkpt lat="45.623069182950914" lon="0.10323400127042835"><ele>54.25</ele><time>2026-04-06T09:41:57.001Z</time></trkpt><trkpt lat="45.62310665158233" lon="0.10343386898840266"><ele>55.0</ele><time>2026-04-06T09:41:58.001Z</time></trkpt><trkpt lat="45.6231385927577" lon="0.10362519803151478"><ele>55.0</ele><time>2026-04-06T09:41:59.001Z</time></trkpt><trkpt lat="45.62317142834652" lon="0.10382188458766133"><ele>55.0</ele><time>2026-04-06T09:42:00.001Z</time></trkpt><trkpt lat="45.62320569245379" lon="0.10402016025915743"><ele>55.0</ele><time>2026-04-06T09:42:01.001Z</time></trkpt><trkpt lat="45.62322333967322" lon="0.10421167323988431"><ele>55.0</ele><time>2026-04-06T09:42:02.001Z</time></trkpt><trkpt lat="45.623261006580876" lon="0.1044039294133068"><ele>54.75</ele><time>2026-04-06T09:42:03.001Z</time></trkpt><trkpt lat="45.62329890657458" lon="0.10459072927747416"><ele>54.5</ele><time>2026-04-06T09:42:04.001Z</time></trkpt><trkpt lat="45.62333755827964" lon="0.10478254275830824"><ele>54.25</ele><time>2026-04-06T09:42:05.001Z</time></trkpt><trkpt lat="45.62338103645915" lon="0.10497317235792586"><ele>54.0</ele><time>2026-04-06T09:42:06.001Z</time></trkpt><trkpt lat="45.6234195323749" lon="0.10516310999850896"><ele>53.5</ele><time>2026-04-06T09:42:07.001Z</time></trkpt><trkpt lat="45.623456396875426" lon="0.10534972132148626"><ele>53.0</ele><time>2026-04-06T09:42:08.001Z</time></trkpt><trkpt lat="45.62350622803849" lon="0.10552237541907926"><ele>52.5</ele><time>2026-04-06T09:42:09.001Z</time></trkpt><trkpt lat="45.62354443980452" lon="0.10570038787286085"><ele>52.0</ele><time>2026-04-06T09:42:10.001Z</time></trkpt><trkpt lat="45.62357367667134" lon="0.10588461444810827"><ele>51.5</ele><time>2026-04-06T09:42:11.001Z</time></trkpt><trkpt lat="45.623617141339906" lon="0.10608582517589604"><ele>51.0</ele><time>2026-04-06T09:42:12.001Z</time></trkpt><trkpt lat="45.62365727116468" lon="0.1062796645504846"><ele>50.5</ele><time>2026-04-06T09:42:13.001Z</time></trkpt><trkpt lat="45.62370051004473" lon="0.10646483925032132"><ele>50.0</ele><time>2026-04-06T09:42:14.001Z</time></trkpt><trkpt lat="45.62374909748137" lon="0.10665381248641753"><ele>50.0</ele><time>2026-04-06T09:42:15.001Z</time></trkpt><trkpt lat="45.62380541164945" lon="0.10684078657852376"><ele>50.0</ele><time>2026-04-06T09:42:16.001Z</time></trkpt><trkpt lat="45.623858696568604" lon="0.10702962837149906"><ele>50.0</ele><time>2026-04-06T09:42:17.001Z</time></trkpt><trkpt lat="45.62391579710863" lon="0.1072167099151822"><ele>50.0</ele><time>2026-04-06T09:42:18.001Z</time></trkpt><trkpt lat="45.623968021244764" lon="0.10739274306658957"><ele>49.5</ele><time>2026-04-06T09:42:19.001Z</time></trkpt><trkpt lat="45.62402605997688" lon="0.10756749195662929"><ele>49.0</ele><time>2026-04-06T09:42:20.001Z</time></trkpt><trkpt lat="45.62409365136243" lon="0.10773300992262191"><ele>48.5</ele><time>2026-04-06T09:42:21.001Z</time></trkpt><trkpt lat="45.624170352791054" lon="0.10789548555319868"><ele>48.0</ele><time>2026-04-06T09:42:22.001Z</time></trkpt><trkpt lat="45.624200603266395" lon="0.10809243695047834"><ele>47.5</ele><time>2026-04-06T09:42:23.001Z</time></trkpt><trkpt lat="45.62415896842507" lon="0.10828592043235162"><ele>47.0</ele><time>2026-04-06T09:42:24.001Z</time></trkpt><trkpt lat="45.62411895192941" lon="0.10849073245156507"><ele>46.5</ele><time>2026-04-06T09:42:25.001Z</time></trkpt><trkpt lat="45.624074744053985" lon="0.10862222196608934"><ele>46.0</ele><time>2026-04-06T09:42:27.001Z</time></trkpt><trkpt lat="45.624031741749945" lon="0.10880221513107938"><ele>46.0</ele><time>2026-04-06T09:42:28.001Z</time></trkpt><trkpt lat="45.624002226406695" lon="0.1089952862982832"><ele>46.0</ele><time>2026-04-06T09:42:29.001Z</time></trkpt><trkpt lat="45.6239600697008" lon="0.10916482512756837"><ele>46.0</ele><time>2026-04-06T09:42:30.001Z</time></trkpt><trkpt lat="45.623931093210246" lon="0.1093261525250242"><ele>46.0</ele><time>2026-04-06T09:42:31.001Z</time></trkpt><trkpt lat="45.62390146576067" lon="0.10947199965050126"><ele>45.833333333333336</ele><time>2026-04-06T09:42:32Z</time></trkpt><trkpt lat="45.62389972873106" lon="0.10962300469913197"><ele>45.66666666666667</ele><time>2026-04-06T09:42:33Z</time></trkpt><trkpt lat="45.62390665872301" lon="0.10975080274345245"><ele>45.5</ele><time>2026-04-06T09:42:34Z</time></trkpt><trkpt lat="45.623966527990746" lon="0.10980841636593305"><ele>45.333333333333336</ele><time>2026-04-06T09:42:35Z</time></trkpt><trkpt lat="45.62399694480909" lon="0.10990419647124923"><ele>45.166666666666664</ele><time>2026-04-06T09:42:36Z</time></trkpt><trkpt lat="45.623986387797515" lon="0.11003256479293935"><ele>45.0</ele><time>2026-04-06T09:42:37Z</time></trkpt><trkpt lat="45.62402632501733" lon="0.11013899019583406"><ele>45.75</ele><time>2026-04-06T09:42:39Z</time></trkpt><trkpt lat="45.62416217943203" lon="0.11002630022054592"><ele>46.5</ele><time>2026-04-06T09:42:41Z</time></trkpt><trkpt lat="45.62424513192381" lon="0.10994550593760873"><ele>47.25</ele><time>2026-04-06T09:42:42Z</time></trkpt><trkpt lat="45.624338541611316" lon="0.10992824474900778"><ele>48.0</ele><time>2026-04-06T09:42:43Z</time></trkpt><trkpt lat="45.624437114129385" lon="0.10995672587473243"><ele>47.666666666666664</ele><time>2026-04-06T09:42:44Z</time></trkpt><trkpt lat="45.62453546946685" lon="0.1100010744569299"><ele>47.333333333333336</ele><time>2026-04-06T09:42:45Z</time></trkpt><trkpt lat="45.62460912426532" lon="0.11006552015503851"><ele>47.0</ele><time>2026-04-06T09:42:46Z</time></trkpt><trkpt lat="45.624665483409196" lon="0.11012597364710933"><ele>46.66666666666667</ele><time>2026-04-06T09:42:47Z</time></trkpt><trkpt lat="45.62466760908999" lon="0.11024107133758096"><ele>46.333333333333336</ele><time>2026-04-06T09:42:48Z</time></trkpt><trkpt lat="45.624686973510016" lon="0.11034478935324019"><ele>46.0</ele><time>2026-04-06T09:42:49Z</time></trkpt><trkpt lat="45.62469633656992" lon="0.1104490450492555"><ele>46.0</ele><time>2026-04-06T09:42:50Z</time></trkpt><trkpt lat="45.62470416250554" lon="0.11060092045512736"><ele>46.0</ele><time>2026-04-06T09:42:52Z</time></trkpt><trkpt lat="45.62479215429663" lon="0.11066931787579748"><ele>46.0</ele><time>2026-04-06T09:42:54Z</time></trkpt><trkpt lat="45.62475092781096" lon="0.11077993546720678"><ele>46.0</ele><time>2026-04-06T09:42:55Z</time></trkpt><trkpt lat="45.62471638297417" lon="0.11086557613970296"><ele>46.0</ele><time>2026-04-06T09:42:56Z</time></trkpt><trkpt lat="45.62465172876055" lon="0.11100313100211998"><ele>45.8</ele><time>2026-04-06T09:42:58Z</time></trkpt><trkpt lat="45.62468913151703" lon="0.11116767987621143"><ele>45.599999999999994</ele><time>2026-04-06T09:43:00Z</time></trkpt><trkpt lat="45.62470197086306" lon="0.11130980180867707"><ele>45.4</ele><time>2026-04-06T09:43:02Z</time></trkpt><trkpt lat="45.62472133929355" lon="0.11142995892869936"><ele>45.2</ele><time>2026-04-06T09:43:04Z</time></trkpt><trkpt lat="45.62474701394567" lon="0.11154724479146866"><ele>45.0</ele><time>2026-04-06T09:43:06Z</time></trkpt><trkpt lat="45.624783953705574" lon="0.11163205526232878"><ele>45.0</ele><time>2026-04-06T09:43:08Z</time></trkpt><trkpt lat="45.62473291044159" lon="0.11172584801256455"><ele>45.0</ele><time>2026-04-06T09:43:11Z</time></trkpt><trkpt lat="45.62466763905824" lon="0.11178300983542003"><ele>45.0</ele><time>2026-04-06T09:43:13Z</time></trkpt></trkseg></trk></gpx>